Wetterdaten: aktuell Dienstag, 09.08.2022 23:00
Datum Zeit Temp. A. Feuchte A. Luftdruck Regen Wind Richtung Richtung Sonnenschein ET UV Solar Taupunkt Windchill Windben Empfang
09.08.2022 23:00 18,4 C 46 % 1023,5 hPa 0,0 l/m 6,4 km/h (2 Bft) NO 45 0 min 0,025 mm 0,0 UV-I 0 W/m 6,6 C 18,4 C 9,7 km/h (2 Bft) 100,00 %
09.08.2022 22:59 18,4 C 46 % 1023,5 hPa 0,0 l/m 6,4 km/h (2 Bft) O-NO 67 0 min 0,000 mm 0,0 UV-I 0 W/m 6,6 C 18,4 C 8,0 km/h (2 Bft) 100,00 %
09.08.2022 22:58 18,4 C 46 % 1023,4 hPa 0,0 l/m 4,8 km/h (1 Bft) O-SO 112 0 min 0,000 mm 0,0 UV-I 0 W/m 6,6 C 18,4 C 6,4 km/h (2 Bft) 100,00 %
09.08.2022 22:57 18,3 C 46 % 1023,4 hPa 0,0 l/m 6,4 km/h (2 Bft) O 90 0 min 0,000 mm 0,0 UV-I 0 W/m 6,5 C 18,3 C 8,0 km/h (2 Bft) 100,00 %
09.08.2022 22:56 18,3 C 46 % 1023,4 hPa 0,0 l/m 8,0 km/h (2 Bft) O-NO 67 0 min 0,000 mm 0,0 UV-I 0 W/m 6,5 C 18,3 C 12,9 km/h (3 Bft) 95,65 %
09.08.2022 22:55 18,3 C 46 % 1023,4 hPa 0,0 l/m 8,0 km/h (2 Bft) O 90 0 min 0,000 mm 0,0 UV-I 0 W/m 6,5 C 18,3 C 11,3 km/h (2 Bft) 100,00 %
09.08.2022 22:54 18,2 C 46 % 1023,4 hPa 0,0 l/m 9,7 km/h (2 Bft) O-NO 67 0 min 0,000 mm 0,0 UV-I 0 W/m 6,4 C 18,2 C 14,5 km/h (3 Bft) 100,00 %
09.08.2022 22:53 18,2 C 46 % 1023,4 hPa 0,0 l/m 4,8 km/h (1 Bft) O 90 0 min 0,000 mm 0,0 UV-I 0 W/m 6,4 C 18,2 C 9,7 km/h (2 Bft) 100,00 %
09.08.2022 22:52 18,2 C 46 % 1023,5 hPa 0,0 l/m 8,0 km/h (2 Bft) O-NO 67 0 min 0,000 mm 0,0 UV-I 0 W/m 6,4 C 18,2 C 14,5 km/h (3 Bft) 100,00 %
09.08.2022 22:51 18,2 C 46 % 1023,5 hPa 0,0 l/m 4,8 km/h (1 Bft) O-NO 67 0 min 0,000 mm 0,0 UV-I 0 W/m 6,4 C 18,2 C 6,4 km/h (2 Bft) 100,00 %
09.08.2022 22:50 18,2 C 46 % 1023,4 hPa 0,0 l/m 6,4 km/h (2 Bft) O-NO 67 0 min 0,000 mm 0,0 UV-I 0 W/m 6,4 C 18,2 C 8,0 km/h (2 Bft) 100,00 %
09.08.2022 22:49 18,2 C 46 % 1023,5 hPa 0,0 l/m 6,4 km/h (2 Bft) O 90 0 min 0,000 mm 0,0 UV-I 0 W/m 6,4 C 18,2 C 8,0 km/h (2 Bft) 95,65 %
09.08.2022 22:48 18,2 C 46 % 1023,5 hPa 0,0 l/m 3,2 km/h (1 Bft) O-SO 112 0 min 0,000 mm 0,0 UV-I 0 W/m 6,4 C 18,2 C 6,4 km/h (2 Bft) 100,00 %
09.08.2022 22:47 18,2 C 46 % 1023,4 hPa 0,0 l/m 4,8 km/h (1 Bft) O 90 0 min 0,000 mm 0,0 UV-I 0 W/m 6,4 C 18,2 C 6,4 km/h (2 Bft) 100,00 %
09.08.2022 22:46 18,2 C 47 % 1023,5 hPa 0,0 l/m 4,8 km/h (1 Bft) O 90 0 min 0,000 mm 0,0 UV-I 0 W/m 6,7 C 18,2 C 4,8 km/h (1 Bft) 100,00 %
09.08.2022 22:45 18,2 C 46 % 1023,4 hPa 0,0 l/m 3,2 km/h (1 Bft) O-NO 67 0 min 0,000 mm 0,0 UV-I 0 W/m 6,4 C 18,2 C 6,4 km/h (2 Bft) 100,00 %
09.08.2022 22:44 18,2 C 46 % 1023,5 hPa 0,0 l/m 3,2 km/h (1 Bft) O-NO 67 0 min 0,000 mm 0,0 UV-I 0 W/m 6,4 C 18,2 C 4,8 km/h (1 Bft) 100,00 %
09.08.2022 22:43 18,2 C 47 % 1023,6 hPa 0,0 l/m 3,2 km/h (1 Bft) N-NO 22 0 min 0,000 mm 0,0 UV-I 0 W/m 6,7 C 18,2 C 4,8 km/h (1 Bft) 100,00 %
09.08.2022 22:42 18,2 C 47 % 1023,6 hPa 0,0 l/m 3,2 km/h (1 Bft) O-NO 67 0 min 0,000 mm 0,0 UV-I 0 W/m 6,7 C 18,2 C 4,8 km/h (1 Bft) 95,65 %
09.08.2022 22:41 18,2 C 47 % 1023,5 hPa 0,0 l/m 4,8 km/h (1 Bft) O-NO 67 0 min 0,000 mm 0,0 UV-I 0 W/m 6,7 C 18,2 C 6,4 km/h (2 Bft) 100,00 %
09.08.2022 22:40 18,2 C 47 % 1023,5 hPa 0,0 l/m 3,2 km/h (1 Bft) N-NO 22 0 min 0,000 mm 0,0 UV-I 0 W/m 6,7 C 18,2 C 6,4 km/h (2 Bft) 95,65 %
09.08.2022 22:39 18,2 C 47 % 1023,6 hPa 0,0 l/m 3,2 km/h (1 Bft) O-NO 67 0 min 0,000 mm 0,0 UV-I 0 W/m 6,7 C 18,2 C 6,4 km/h (2 Bft) 95,65 %
09.08.2022 22:38 18,2 C 46 % 1023,6 hPa 0,0 l/m 4,8 km/h (1 Bft) NO 45 0 min 0,000 mm 0,0 UV-I 0 W/m 6,4 C 18,2 C 6,4 km/h (2 Bft) 95,65 %
09.08.2022 22:37 18,3 C 46 % 1023,6 hPa 0,0 l/m 1,6 km/h (1 Bft) NO 45 0 min 0,000 mm 0,0 UV-I 0 W/m 6,5 C 18,3 C 3,2 km/h (1 Bft) 100,00 %
09.08.2022 22:36 18,2 C 46 % 1023,5 hPa 0,0 l/m 3,2 km/h (1 Bft) NO 45 0 min 0,000 mm 0,0 UV-I 0 W/m 6,4 C 18,2 C 6,4 km/h (2 Bft) 91,30 %
09.08.2022 22:35 18,3 C 46 % 1023,6 hPa 0,0 l/m 3,2 km/h (1 Bft) O 90 0 min 0,000 mm 0,0 UV-I 0 W/m 6,5 C 18,3 C 4,8 km/h (1 Bft) 95,65 %
09.08.2022 22:34 18,3 C 46 % 1023,6 hPa 0,0 l/m 1,6 km/h (1 Bft) O 90 0 min 0,000 mm 0,0 UV-I 0 W/m 6,5 C 18,3 C 4,8 km/h (1 Bft) 95,65 %
09.08.2022 22:33 18,3 C 46 % 1023,5 hPa 0,0 l/m 3,2 km/h (1 Bft) O 90 0 min 0,000 mm 0,0 UV-I 0 W/m 6,5 C 18,3 C 4,8 km/h (1 Bft) 100,00 %
09.08.2022 22:32 18,3 C 46 % 1023,5 hPa 0,0 l/m 3,2 km/h (1 Bft) O 90 0 min 0,000 mm 0,0 UV-I 0 W/m 6,5 C 18,3 C 6,4 km/h (2 Bft) 95,65 %
09.08.2022 22:31 18,3 C 46 % 1023,6 hPa 0,0 l/m 3,2 km/h (1 Bft) O-NO 67 0 min 0,000 mm 0,0 UV-I 0 W/m 6,5 C 18,3 C 4,8 km/h (1 Bft) 95,65 %
09.08.2022 22:30 18,3 C 46 % 1023,6 hPa 0,0 l/m 1,6 km/h (1 Bft) O-NO 67 0 min 0,000 mm 0,0 UV-I 0 W/m 6,5 C 18,3 C 3,2 km/h (1 Bft) 100,00 %
09.08.2022 22:29 18,4 C 46 % 1023,5 hPa 0,0 l/m 0,0 km/h (0 Bft) O-NO 67 0 min 0,000 mm 0,0 UV-I 0 W/m 6,6 C 18,4 C 1,6 km/h (1 Bft) 95,65 %
09.08.2022 22:28 18,4 C 46 % 1023,6 hPa 0,0 l/m 1,6 km/h (1 Bft) O-NO 67 0 min 0,000 mm 0,0 UV-I 0 W/m 6,6 C 18,4 C 4,8 km/h (1 Bft) 95,65 %
09.08.2022 22:27 18,4 C 46 % 1023,6 hPa 0,0 l/m 3,2 km/h (1 Bft) O-NO 67 0 min 0,000 mm 0,0 UV-I 0 W/m 6,6 C 18,4 C 6,4 km/h (2 Bft) 95,65 %
09.08.2022 22:26 18,4 C 46 % 1023,6 hPa 0,0 l/m 3,2 km/h (1 Bft) O 90 0 min 0,000 mm 0,0 UV-I 0 W/m 6,6 C 18,4 C 6,4 km/h (2 Bft) 100,00 %
09.08.2022 22:25 18,4 C 46 % 1023,6 hPa 0,0 l/m 1,6 km/h (1 Bft) O-NO 67 0 min 0,000 mm 0,0 UV-I 0 W/m 6,6 C 18,4 C 4,8 km/h (1 Bft) 95,65 %
09.08.2022 22:24 18,5 C 46 % 1023,5 hPa 0,0 l/m 3,2 km/h (1 Bft) O-NO 67 0 min 0,000 mm 0,0 UV-I 0 W/m 6,7 C 18,5 C 3,2 km/h (1 Bft) 100,00 %
09.08.2022 22:23 18,5 C 46 % 1023,5 hPa 0,0 l/m 3,2 km/h (1 Bft) O-NO 67 0 min 0,000 mm 0,0 UV-I 0 W/m 6,7 C 18,5 C 4,8 km/h (1 Bft) 95,65 %
09.08.2022 22:22 18,6 C 46 % 1023,5 hPa 0,0 l/m 1,6 km/h (1 Bft) O-NO 67 0 min 0,000 mm 0,0 UV-I 0 W/m 6,8 C 18,6 C 3,2 km/h (1 Bft) 95,65 %
09.08.2022 22:21 18,6 C 46 % 1023,5 hPa 0,0 l/m 3,2 km/h (1 Bft) O-NO 67 0 min 0,000 mm 0,0 UV-I 0 W/m 6,8 C 18,6 C 4,8 km/h (1 Bft) 95,65 %
09.08.2022 22:20 18,6 C 45 % 1023,5 hPa 0,0 l/m 3,2 km/h (1 Bft) O-NO 67 0 min 0,000 mm 0,0 UV-I 0 W/m 6,4 C 18,6 C 3,2 km/h (1 Bft) 95,65 %
09.08.2022 22:19 18,7 C 45 % 1023,5 hPa 0,0 l/m 4,8 km/h (1 Bft) O-NO 67 0 min 0,000 mm 0,0 UV-I 0 W/m 6,5 C 18,7 C 8,0 km/h (2 Bft) 100,00 %
09.08.2022 22:18 18,7 C 46 % 1023,4 hPa 0,0 l/m 3,2 km/h (1 Bft) O-NO 67 0 min 0,000 mm 0,0 UV-I 0 W/m 6,8 C 18,7 C 6,4 km/h (2 Bft) 100,00 %
09.08.2022 22:17 18,7 C 46 % 1023,4 hPa 0,0 l/m 4,8 km/h (1 Bft) O-NO 67 0 min 0,000 mm 0,0 UV-I 0 W/m 6,8 C 18,7 C 8,0 km/h (2 Bft) 100,00 %
09.08.2022 22:16 18,8 C 46 % 1023,5 hPa 0,0 l/m 4,8 km/h (1 Bft) NO 45 0 min 0,000 mm 0,0 UV-I 0 W/m 6,9 C 18,8 C 6,4 km/h (2 Bft) 100,00 %
09.08.2022 22:15 18,8 C 46 % 1023,5 hPa 0,0 l/m 3,2 km/h (1 Bft) NO 45 0 min 0,000 mm 0,0 UV-I 0 W/m 6,9 C 18,8 C 4,8 km/h (1 Bft) 100,00 %
09.08.2022 22:14 18,9 C 46 % 1023,4 hPa 0,0 l/m 1,6 km/h (1 Bft) NO 45 0 min 0,000 mm 0,0 UV-I 0 W/m 7,0 C 18,9 C 4,8 km/h (1 Bft) 95,65 %
09.08.2022 22:13 18,9 C 46 % 1023,4 hPa 0,0 l/m 0,0 km/h (0 Bft) N-NO 22 0 min 0,000 mm 0,0 UV-I 0 W/m 7,0 C 18,9 C 1,6 km/h (1 Bft) 100,00 %
09.08.2022 22:12 18,9 C 45 % 1023,4 hPa 0,0 l/m 0,0 km/h (0 Bft) N-NO 22 0 min 0,000 mm 0,0 UV-I 0 W/m 6,7 C 18,9 C 1,6 km/h (1 Bft) 100,00 %
09.08.2022 22:11 19,0 C 45 % 1023,4 hPa 0,0 l/m 1,6 km/h (1 Bft) N-NO 22 0 min 0,000 mm 0,0 UV-I 0 W/m 6,8 C 19,0 C 1,6 km/h (1 Bft) 100,00 %
09.08.2022 22:10 19,1 C 45 % 1023,4 hPa 0,0 l/m 0,0 km/h (0 Bft) N-NO 22 0 min 0,000 mm 0,0 UV-I 0 W/m 6,9 C 19,1 C 1,6 km/h (1 Bft) 95,65 %
09.08.2022 22:09 19,1 C 45 % 1023,3 hPa 0,0 l/m 1,6 km/h (1 Bft) N-NO 22 0 min 0,000 mm 0,0 UV-I 0 W/m 6,9 C 19,1 C 3,2 km/h (1 Bft) 100,00 %
09.08.2022 22:08 19,1 C 45 % 1023,3 hPa 0,0 l/m 3,2 km/h (1 Bft) N-NO 22 0 min 0,000 mm 0,0 UV-I 0 W/m 6,9 C 19,1 C 4,8 km/h (1 Bft) 100,00 %
09.08.2022 22:07 19,2 C 45 % 1023,3 hPa 0,0 l/m 4,8 km/h (1 Bft) N 360 0 min 0,000 mm 0,0 UV-I 0 W/m 7,0 C 19,2 C 6,4 km/h (2 Bft) 100,00 %
09.08.2022 22:06 19,2 C 45 % 1023,3 hPa 0,0 l/m 1,6 km/h (1 Bft) O-NO 67 0 min 0,000 mm 0,0 UV-I 0 W/m 7,0 C 19,2 C 6,4 km/h (2 Bft) 91,30 %
09.08.2022 22:05 19,2 C 45 % 1023,3 hPa 0,0 l/m 0,0 km/h (0 Bft) N 0 0 min 0,000 mm 0,0 UV-I 0 W/m 7,0 C 19,2 C 0,0 km/h (0 Bft) 95,65 %
09.08.2022 22:04 19,3 C 45 % 1023,3 hPa 0,0 l/m 0,0 km/h (0 Bft) NO 45 0 min 0,000 mm 0,0 UV-I 0 W/m 7,1 C 19,3 C 1,6 km/h (1 Bft) 100,00 %
09.08.2022 22:03 19,3 C 45 % 1023,3 hPa 0,0 l/m 1,6 km/h (1 Bft) NO 45 0 min 0,000 mm 0,0 UV-I 0 W/m 7,1 C 19,3 C 1,6 km/h (1 Bft) 100,00 %
09.08.2022 22:02 19,3 C 45 % 1023,3 hPa 0,0 l/m 0,0 km/h (0 Bft) N 0 0 min 0,000 mm 0,0 UV-I 0 W/m 7,1 C 19,3 C 0,0 km/h (0 Bft) 100,00 %
09.08.2022 22:01 19,3 C 45 % 1023,2 hPa 0,0 l/m 0,0 km/h (0 Bft) N 0 0 min 0,000 mm 0,0 UV-I 0 W/m 7,1 C 19,3 C 0,0 km/h (0 Bft) 100,00 %
09.08.2022 22:00 19,3 C 45 % 1023,2 hPa 0,0 l/m 0,0 km/h (0 Bft) N 0 0 min 0,025 mm 0,0 UV-I 0 W/m 7,1 C 19,3 C 0,0 km/h (0 Bft) 100,00 %
09.08.2022 21:59 19,4 C 45 % 1023,2 hPa 0,0 l/m 0,0 km/h (0 Bft) NO 45 0 min 0,000 mm 0,0 UV-I 0 W/m 7,2 C 19,4 C 1,6 km/h (1 Bft) 95,65 %
09.08.2022 21:58 19,4 C 45 % 1023,2 hPa 0,0 l/m 0,0 km/h (0 Bft) NO 45 0 min 0,000 mm 0,0 UV-I 0 W/m 7,2 C 19,4 C 1,6 km/h (1 Bft) 100,00 %
09.08.2022 21:57 19,4 C 44 % 1023,2 hPa 0,0 l/m 0,0 km/h (0 Bft) N 0 0 min 0,000 mm 0,0 UV-I 0 W/m 6,8 C 19,4 C 0,0 km/h (0 Bft) 100,00 %
09.08.2022 21:56 19,5 C 44 % 1023,2 hPa 0,0 l/m 0,0 km/h (0 Bft) N 0 0 min 0,000 mm 0,0 UV-I 0 W/m 6,9 C 19,5 C 0,0 km/h (0 Bft) 95,65 %
09.08.2022 21:55 19,5 C 44 % 1023,2 hPa 0,0 l/m 0,0 km/h (0 Bft) N 0 0 min 0,000 mm 0,0 UV-I 0 W/m 6,9 C 19,5 C 0,0 km/h (0 Bft) 100,00 %
09.08.2022 21:54 19,6 C 44 % 1023,2 hPa 0,0 l/m 0,0 km/h (0 Bft) NO 45 0 min 0,000 mm 0,0 UV-I 0 W/m 7,0 C 19,6 C 1,6 km/h (1 Bft) 100,00 %
09.08.2022 21:53 19,6 C 44 % 1023,3 hPa 0,0 l/m 3,2 km/h (1 Bft) NO 45 0 min 0,000 mm 0,0 UV-I 0 W/m 7,0 C 19,6 C 4,8 km/h (1 Bft) 100,00 %
09.08.2022 21:52 19,6 C 44 % 1023,2 hPa 0,0 l/m 1,6 km/h (1 Bft) O-NO 67 0 min 0,000 mm 0,0 UV-I 0 W/m 7,0 C 19,6 C 4,8 km/h (1 Bft) 95,65 %
09.08.2022 21:51 19,7 C 44 % 1023,2 hPa 0,0 l/m 0,0 km/h (0 Bft) O-NO 67 0 min 0,000 mm 0,0 UV-I 0 W/m 7,1 C 19,7 C 1,6 km/h (1 Bft) 100,00 %
09.08.2022 21:50 19,7 C 44 % 1023,2 hPa 0,0 l/m 0,0 km/h (0 Bft) O-NO 67 0 min 0,000 mm 0,0 UV-I 0 W/m 7,1 C 19,7 C 1,6 km/h (1 Bft) 100,00 %
09.08.2022 21:49 19,7 C 44 % 1023,2 hPa 0,0 l/m 1,6 km/h (1 Bft) O-NO 67 0 min 0,000 mm 0,0 UV-I 0 W/m 7,1 C 19,7 C 3,2 km/h (1 Bft) 100,00 %
09.08.2022 21:48 19,7 C 44 % 1023,2 hPa 0,0 l/m 1,6 km/h (1 Bft) O-NO 67 0 min 0,000 mm 0,0 UV-I 0 W/m 7,1 C 19,7 C 4,8 km/h (1 Bft) 100,00 %
09.08.2022 21:47 19,8 C 44 % 1023,2 hPa 0,0 l/m 0,0 km/h (0 Bft) N 0 0 min 0,000 mm 0,0 UV-I 0 W/m 7,2 C 19,8 C 0,0 km/h (0 Bft) 100,00 %
09.08.2022 21:46 19,8 C 44 % 1023,2 hPa 0,0 l/m 0,0 km/h (0 Bft) N 0 0 min 0,000 mm 0,0 UV-I 0 W/m 7,2 C 19,8 C 0,0 km/h (0 Bft) 95,65 %
09.08.2022 21:45 19,8 C 44 % 1023,2 hPa 0,0 l/m 0,0 km/h (0 Bft) N 0 0 min 0,000 mm 0,0 UV-I 0 W/m 7,2 C 19,8 C 0,0 km/h (0 Bft) 95,65 %
09.08.2022 21:44 19,9 C 44 % 1023,2 hPa 0,0 l/m 0,0 km/h (0 Bft) N 0 0 min 0,000 mm 0,0 UV-I 0 W/m 7,3 C 19,9 C 0,0 km/h (0 Bft) 100,00 %
09.08.2022 21:43 19,9 C 44 % 1023,2 hPa 0,0 l/m 0,0 km/h (0 Bft) N 0 0 min 0,000 mm 0,0 UV-I 0 W/m 7,3 C 19,9 C 0,0 km/h (0 Bft) 100,00 %
09.08.2022 21:42 19,9 C 44 % 1023,2 hPa 0,0 l/m 0,0 km/h (0 Bft) N 0 0 min 0,000 mm 0,0 UV-I 0 W/m 7,3 C 19,9 C 0,0 km/h (0 Bft) 100,00 %
09.08.2022 21:41 19,9 C 44 % 1023,2 hPa 0,0 l/m 0,0 km/h (0 Bft) N 0 0 min 0,000 mm 0,0 UV-I 0 W/m 7,3 C 19,9 C 0,0 km/h (0 Bft) 100,00 %
09.08.2022 21:40 20,0 C 44 % 1023,2 hPa 0,0 l/m 0,0 km/h (0 Bft) N 0 0 min 0,000 mm 0,0 UV-I 0 W/m 7,4 C 20,0 C 0,0 km/h (0 Bft) 100,00 %
09.08.2022 21:39 20,0 C 44 % 1023,2 hPa 0,0 l/m 0,0 km/h (0 Bft) N 0 0 min 0,000 mm 0,0 UV-I 0 W/m 7,4 C 20,0 C 0,0 km/h (0 Bft) 100,00 %
09.08.2022 21:38 20,1 C 44 % 1023,2 hPa 0,0 l/m 1,6 km/h (1 Bft) NO 45 0 min 0,000 mm 0,0 UV-I 0 W/m 7,5 C 20,1 C 3,2 km/h (1 Bft) 95,65 %
09.08.2022 21:37 20,1 C 44 % 1023,2 hPa 0,0 l/m 0,0 km/h (0 Bft) NO 45 0 min 0,000 mm 0,0 UV-I 0 W/m 7,5 C 20,1 C 1,6 km/h (1 Bft) 100,00 %
09.08.2022 21:36 20,1 C 43 % 1023,1 hPa 0,0 l/m 0,0 km/h (0 Bft) NO 45 0 min 0,000 mm 0,0 UV-I 0 W/m 7,1 C 20,1 C 1,6 km/h (1 Bft) 100,00 %
09.08.2022 21:35 20,2 C 44 % 1023,1 hPa 0,0 l/m 1,6 km/h (1 Bft) NO 45 0 min 0,000 mm 0,0 UV-I 0 W/m 7,6 C 20,2 C 3,2 km/h (1 Bft) 95,65 %
09.08.2022 21:34 20,2 C 44 % 1023,1 hPa 0,0 l/m 1,6 km/h (1 Bft) NO 45 0 min 0,000 mm 0,0 UV-I 0 W/m 7,6 C 20,2 C 4,8 km/h (1 Bft) 100,00 %
09.08.2022 21:33 20,2 C 43 % 1023,1 hPa 0,0 l/m 1,6 km/h (1 Bft) N-NO 22 0 min 0,000 mm 0,0 UV-I 0 W/m 7,2 C 20,2 C 3,2 km/h (1 Bft) 100,00 %
09.08.2022 21:32 20,3 C 43 % 1023,1 hPa 0,0 l/m 0,0 km/h (0 Bft) N 0 0 min 0,000 mm 0,0 UV-I 0 W/m 7,3 C 20,3 C 0,0 km/h (0 Bft) 95,65 %
09.08.2022 21:31 20,3 C 43 % 1023,1 hPa 0,0 l/m 0,0 km/h (0 Bft) N 0 0 min 0,000 mm 0,0 UV-I 0 W/m 7,3 C 20,3 C 0,0 km/h (0 Bft) 100,00 %
09.08.2022 21:30 20,3 C 43 % 1023,1 hPa 0,0 l/m 0,0 km/h (0 Bft) N 0 0 min 0,000 mm 0,0 UV-I 0 W/m 7,3 C 20,3 C 0,0 km/h (0 Bft) 95,65 %
09.08.2022 21:29 20,3 C 43 % 1023,2 hPa 0,0 l/m 0,0 km/h (0 Bft) N-NO 22 0 min 0,000 mm 0,0 UV-I 0 W/m 7,3 C 20,3 C 1,6 km/h (1 Bft) 100,00 %
09.08.2022 21:28 20,4 C 43 % 1023,1 hPa 0,0 l/m 1,6 km/h (1 Bft) N-NO 22 0 min 0,000 mm 0,0 UV-I 0 W/m 7,4 C 20,4 C 3,2 km/h (1 Bft) 95,65 %
09.08.2022 21:27 20,4 C 43 % 1023,3 hPa 0,0 l/m 3,2 km/h (1 Bft) N-NO 22 0 min 0,000 mm 0,0 UV-I 0 W/m 7,4 C 20,4 C 4,8 km/h (1 Bft) 100,00 %
09.08.2022 21:26 20,4 C 43 % 1023,2 hPa 0,0 l/m 1,6 km/h (1 Bft) NO 45 0 min 0,000 mm 0,0 UV-I 0 W/m 7,4 C 20,4 C 3,2 km/h (1 Bft) 91,30 %
09.08.2022 21:25 20,5 C 43 % 1023,2 hPa 0,0 l/m 1,6 km/h (1 Bft) NO 45 0 min 0,000 mm 0,0 UV-I 0 W/m 7,5 C 20,5 C 4,8 km/h (1 Bft) 100,00 %
09.08.2022 21:24 20,6 C 43 % 1023,2 hPa 0,0 l/m 3,2 km/h (1 Bft) O-NO 67 0 min 0,000 mm 0,0 UV-I 0 W/m 7,6 C 20,6 C 4,8 km/h (1 Bft) 91,30 %
09.08.2022 21:23 20,6 C 43 % 1023,3 hPa 0,0 l/m 1,6 km/h (1 Bft) NO 45 0 min 0,000 mm 0,0 UV-I 0 W/m 7,6 C 20,6 C 4,8 km/h (1 Bft) 100,00 %
09.08.2022 21:22 20,6 C 43 % 1023,2 hPa 0,0 l/m 3,2 km/h (1 Bft) NO 45 0 min 0,000 mm 0,0 UV-I 0 W/m 7,6 C 20,6 C 6,4 km/h (2 Bft) 95,65 %
09.08.2022 21:21 20,6 C 43 % 1023,2 hPa 0,0 l/m 3,2 km/h (1 Bft) N 360 0 min 0,000 mm 0,0 UV-I 0 W/m 7,6 C 20,6 C 8,0 km/h (2 Bft) 95,65 %
09.08.2022 21:20 20,6 C 43 % 1023,1 hPa 0,0 l/m 1,6 km/h (1 Bft) N 360 0 min 0,000 mm 0,0 UV-I 0 W/m 7,6 C 20,6 C 3,2 km/h (1 Bft) 100,00 %
09.08.2022 21:19 20,7 C 43 % 1023,1 hPa 0,0 l/m 3,2 km/h (1 Bft) N 360 0 min 0,000 mm 0,0 UV-I 0 W/m 7,7 C 20,7 C 4,8 km/h (1 Bft) 95,65 %
09.08.2022 21:18 20,7 C 43 % 1023,1 hPa 0,0 l/m 3,2 km/h (1 Bft) NO 45 0 min 0,000 mm 0,0 UV-I 0 W/m 7,7 C 20,7 C 3,2 km/h (1 Bft) 100,00 %
09.08.2022 21:17 20,7 C 42 % 1023,1 hPa 0,0 l/m 4,8 km/h (1 Bft) NO 45 0 min 0,000 mm 0,0 UV-I 0 W/m 7,3 C 20,7 C 6,4 km/h (2 Bft) 91,30 %
09.08.2022 21:16 20,8 C 42 % 1023,1 hPa 0,0 l/m 3,2 km/h (1 Bft) NO 45 0 min 0,000 mm 0,0 UV-I 0 W/m 7,4 C 20,8 C 6,4 km/h (2 Bft) 100,00 %
09.08.2022 21:15 20,8 C 42 % 1023,1 hPa 0,0 l/m 1,6 km/h (1 Bft) N 360 0 min 0,000 mm 0,0 UV-I 0 W/m 7,4 C 20,8 C 3,2 km/h (1 Bft) 95,65 %
09.08.2022 21:14 20,8 C 42 % 1023,1 hPa 0,0 l/m 1,6 km/h (1 Bft) N 360 0 min 0,000 mm 0,0 UV-I 0 W/m 7,4 C 20,8 C 3,2 km/h (1 Bft) 100,00 %
09.08.2022 21:13 20,9 C 42 % 1023,1 hPa 0,0 l/m 1,6 km/h (1 Bft) N 360 0 min 0,000 mm 0,0 UV-I 0 W/m 7,5 C 20,9 C 1,6 km/h (1 Bft) 95,65 %
09.08.2022 21:12 20,9 C 42 % 1023,1 hPa 0,0 l/m 1,6 km/h (1 Bft) N 360 0 min 0,000 mm 0,0 UV-I 0 W/m 7,5 C 20,9 C 3,2 km/h (1 Bft) 95,65 %
09.08.2022 21:11 20,9 C 42 % 1023,1 hPa 0,0 l/m 1,6 km/h (1 Bft) N 360 0 min 0,000 mm 0,0 UV-I 0 W/m 7,5 C 20,9 C 4,8 km/h (1 Bft) 100,00 %
09.08.2022 21:10 21,0 C 42 % 1023,1 hPa 0,0 l/m 0,0 km/h (0 Bft) N 360 0 min 0,000 mm 0,0 UV-I 0 W/m 7,6 C 21,0 C 1,6 km/h (1 Bft) 91,30 %
09.08.2022 21:09 21,0 C 42 % 1023,1 hPa 0,0 l/m 1,6 km/h (1 Bft) N 360 0 min 0,000 mm 0,0 UV-I 0 W/m 7,6 C 21,0 C 3,2 km/h (1 Bft) 100,00 %
09.08.2022 21:08 21,1 C 42 % 1023,0 hPa 0,0 l/m 1,6 km/h (1 Bft) N 360 0 min 0,000 mm 0,0 UV-I 0 W/m 7,7 C 21,1 C 3,2 km/h (1 Bft) 100,00 %
09.08.2022 21:07 21,1 C 42 % 1023,1 hPa 0,0 l/m 4,8 km/h (1 Bft) N 360 0 min 0,000 mm 0,0 UV-I 0 W/m 7,7 C 21,1 C 8,0 km/h (2 Bft) 100,00 %
09.08.2022 21:06 21,1 C 42 % 1023,1 hPa 0,0 l/m 4,8 km/h (1 Bft) N-NO 22 0 min 0,000 mm 0,0 UV-I 0 W/m 7,7 C 21,1 C 8,0 km/h (2 Bft) 100,00 %
09.08.2022 21:05 21,2 C 42 % 1023,1 hPa 0,0 l/m 3,2 km/h (1 Bft) N-NO 22 0 min 0,000 mm 0,0 UV-I 0 W/m 7,8 C 21,2 C 4,8 km/h (1 Bft) 100,00 %
09.08.2022 21:04 21,2 C 42 % 1023,0 hPa 0,0 l/m 1,6 km/h (1 Bft) NO 45 0 min 0,000 mm 0,0 UV-I 0 W/m 7,8 C 21,2 C 3,2 km/h (1 Bft) 100,00 %
09.08.2022 21:03 21,3 C 41 % 1023,1 hPa 0,0 l/m 1,6 km/h (1 Bft) NO 45 0 min 0,000 mm 0,0 UV-I 0 W/m 7,5 C 21,3 C 4,8 km/h (1 Bft) 95,65 %
09.08.2022 21:02 21,3 C 42 % 1023,0 hPa 0,0 l/m 1,6 km/h (1 Bft) NO 45 0 min 0,000 mm 0,0 UV-I 0 W/m 7,9 C 21,3 C 3,2 km/h (1 Bft) 100,00 %
09.08.2022 21:01 21,4 C 42 % 1023,0 hPa 0,0 l/m 1,6 km/h (1 Bft) NO 45 0 min 0,000 mm 0,0 UV-I 0 W/m 8,0 C 21,4 C 3,2 km/h (1 Bft) 100,00 %
09.08.2022 21:00 21,4 C 41 % 1023,0 hPa 0,0 l/m 3,2 km/h (1 Bft) NO 45 0 min 0,025 mm 0,0 UV-I 0 W/m 7,6 C 21,4 C 4,8 km/h (1 Bft) 100,00 %
09.08.2022 20:59 21,4 C 42 % 1023,0 hPa 0,0 l/m 3,2 km/h (1 Bft) O-NO 67 0 min 0,000 mm 0,0 UV-I 0 W/m 8,0 C 21,4 C 3,2 km/h (1 Bft) 100,00 %
09.08.2022 20:58 21,5 C 41 % 1023,0 hPa 0,0 l/m 0,0 km/h (0 Bft) O-NO 67 0 min 0,000 mm 0,0 UV-I 0 W/m 7,7 C 21,5 C 1,6 km/h (1 Bft) 100,00 %
09.08.2022 20:57 21,6 C 41 % 1022,9 hPa 0,0 l/m 1,6 km/h (1 Bft) O-NO 67 0 min 0,000 mm 0,0 UV-I 0 W/m 7,8 C 21,6 C 1,6 km/h (1 Bft) 100,00 %
09.08.2022 20:56 21,6 C 41 % 1023,0 hPa 0,0 l/m 0,0 km/h (0 Bft) O-NO 67 0 min 0,000 mm 0,0 UV-I 0 W/m 7,8 C 21,6 C 1,6 km/h (1 Bft) 91,30 %
09.08.2022 20:55 21,6 C 41 % 1022,9 hPa 0,0 l/m 1,6 km/h (1 Bft) O-NO 67 0 min 0,000 mm 0,0 UV-I 0 W/m 7,8 C 21,6 C 3,2 km/h (1 Bft) 100,00 %
09.08.2022 20:54 21,7 C 41 % 1022,9 hPa 0,0 l/m 1,6 km/h (1 Bft) O-NO 67 0 min 0,000 mm 0,0 UV-I 0 W/m 7,9 C 21,7 C 3,2 km/h (1 Bft) 100,00 %
09.08.2022 20:53 21,7 C 41 % 1022,9 hPa 0,0 l/m 1,6 km/h (1 Bft) O-NO 67 0 min 0,000 mm 0,0 UV-I 0 W/m 7,9 C 21,7 C 3,2 km/h (1 Bft) 100,00 %
09.08.2022 20:52 21,8 C 40 % 1022,9 hPa 0,0 l/m 1,6 km/h (1 Bft) O-NO 67 0 min 0,000 mm 0,0 UV-I 0 W/m 7,6 C 21,8 C 3,2 km/h (1 Bft) 100,00 %
09.08.2022 20:51 21,8 C 40 % 1022,8 hPa 0,0 l/m 1,6 km/h (1 Bft) O-NO 67 0 min 0,000 mm 0,0 UV-I 0 W/m 7,6 C 21,8 C 3,2 km/h (1 Bft) 95,65 %
09.08.2022 20:50 21,9 C 40 % 1022,9 hPa 0,0 l/m 1,6 km/h (1 Bft) O-NO 67 0 min 0,000 mm 0,0 UV-I 0 W/m 7,7 C 21,9 C 3,2 km/h (1 Bft) 100,00 %
09.08.2022 20:49 21,9 C 40 % 1022,8 hPa 0,0 l/m 1,6 km/h (1 Bft) O-NO 67 0 min 0,000 mm 0,0 UV-I 0 W/m 7,7 C 21,9 C 3,2 km/h (1 Bft) 95,65 %
09.08.2022 20:48 22,0 C 40 % 1022,9 hPa 0,0 l/m 3,2 km/h (1 Bft) O-NO 67 0 min 0,000 mm 0,0 UV-I 0 W/m 7,8 C 22,0 C 3,2 km/h (1 Bft) 100,00 %
09.08.2022 20:47 22,1 C 40 % 1022,8 hPa 0,0 l/m 1,6 km/h (1 Bft) O-NO 67 0 min 0,000 mm 0,0 UV-I 0 W/m 7,9 C 22,1 C 3,2 km/h (1 Bft) 100,00 %
09.08.2022 20:46 22,1 C 40 % 1022,8 hPa 0,0 l/m 1,6 km/h (1 Bft) O-NO 67 0 min 0,000 mm 0,0 UV-I 0 W/m 7,9 C 22,1 C 3,2 km/h (1 Bft) 100,00 %
09.08.2022 20:45 22,2 C 40 % 1022,8 hPa 0,0 l/m 3,2 km/h (1 Bft) O-NO 67 0 min 0,000 mm 0,0 UV-I 0 W/m 8,0 C 22,2 C 4,8 km/h (1 Bft) 100,00 %
09.08.2022 20:44 22,2 C 40 % 1022,8 hPa 0,0 l/m 3,2 km/h (1 Bft) O-NO 67 0 min 0,000 mm 0,0 UV-I 0 W/m 8,0 C 22,2 C 4,8 km/h (1 Bft) 100,00 %
09.08.2022 20:43 22,3 C 40 % 1022,8 hPa 0,0 l/m 4,8 km/h (1 Bft) O-NO 67 0 min 0,000 mm 0,0 UV-I 0 W/m 8,0 C 22,3 C 8,0 km/h (2 Bft) 100,00 %
09.08.2022 20:42 22,3 C 40 % 1022,8 hPa 0,0 l/m 3,2 km/h (1 Bft) NO 45 0 min 0,000 mm 0,0 UV-I 0 W/m 8,0 C 22,3 C 9,7 km/h (2 Bft) 95,65 %
09.08.2022 20:41 22,4 C 40 % 1022,8 hPa 0,0 l/m 1,6 km/h (1 Bft) NO 45 0 min 0,000 mm 0,0 UV-I 0 W/m 8,1 C 22,4 C 3,2 km/h (1 Bft) 95,65 %
09.08.2022 20:40 22,4 C 39 % 1022,7 hPa 0,0 l/m 1,6 km/h (1 Bft) NO 45 0 min 0,000 mm 0,0 UV-I 0 W/m 7,8 C 22,4 C 3,2 km/h (1 Bft) 100,00 %
09.08.2022 20:39 22,5 C 39 % 1022,6 hPa 0,0 l/m 1,6 km/h (1 Bft) NO 45 0 min 0,000 mm 0,0 UV-I 0 W/m 7,8 C 22,5 C 4,8 km/h (1 Bft) 100,00 %
09.08.2022 20:38 22,6 C 40 % 1022,7 hPa 0,0 l/m 1,6 km/h (1 Bft) N-NO 22 0 min 0,000 mm 0,0 UV-I 0 W/m 8,3 C 22,6 C 3,2 km/h (1 Bft) 100,00 %
09.08.2022 20:37 22,7 C 39 % 1022,7 hPa 0,0 l/m 1,6 km/h (1 Bft) NO 45 0 min 0,000 mm 0,0 UV-I 0 W/m 8,0 C 22,7 C 3,2 km/h (1 Bft) 100,00 %
09.08.2022 20:36 22,7 C 39 % 1022,7 hPa 0,0 l/m 3,2 km/h (1 Bft) NO 45 0 min 0,000 mm 0,0 UV-I 0 W/m 8,0 C 22,7 C 4,8 km/h (1 Bft) 100,00 %
09.08.2022 20:35 22,8 C 40 % 1022,7 hPa 0,0 l/m 1,6 km/h (1 Bft) NO 45 0 min 0,000 mm 0,0 UV-I 0 W/m 8,5 C 22,8 C 3,2 km/h (1 Bft) 95,65 %
09.08.2022 20:34 22,9 C 39 % 1022,7 hPa 0,0 l/m 1,6 km/h (1 Bft) NO 45 0 min 0,000 mm 0,0 UV-I 0 W/m 8,2 C 22,9 C 3,2 km/h (1 Bft) 100,00 %
09.08.2022 20:33 22,9 C 39 % 1022,6 hPa 0,0 l/m 3,2 km/h (1 Bft) NO 45 0 min 0,000 mm 0,0 UV-I 0 W/m 8,2 C 22,9 C 4,8 km/h (1 Bft) 100,00 %
09.08.2022 20:32 23,0 C 39 % 1022,5 hPa 0,0 l/m 1,6 km/h (1 Bft) NO 45 0 min 0,000 mm 0,0 UV-I 0 W/m 8,3 C 23,0 C 3,2 km/h (1 Bft) 100,00 %
09.08.2022 20:31 23,1 C 39 % 1022,6 hPa 0,0 l/m 1,6 km/h (1 Bft) NO 45 0 min 0,000 mm 0,0 UV-I 0 W/m 8,4 C 23,1 C 3,2 km/h (1 Bft) 100,00 %
09.08.2022 20:30 23,2 C 39 % 1022,7 hPa 0,0 l/m 1,6 km/h (1 Bft) NO 45 0 min 0,000 mm 0,0 UV-I 0 W/m 8,5 C 23,2 C 3,2 km/h (1 Bft) 100,00 %
09.08.2022 20:29 23,2 C 39 % 1022,6 hPa 0,0 l/m 1,6 km/h (1 Bft) NO 45 0 min 0,000 mm 0,0 UV-I 0 W/m 8,5 C 23,2 C 3,2 km/h (1 Bft) 100,00 %
09.08.2022 20:28 23,3 C 39 % 1022,6 hPa 0,0 l/m 1,6 km/h (1 Bft) NO 45 0 min 0,000 mm 0,0 UV-I 0 W/m 8,6 C 23,3 C 3,2 km/h (1 Bft) 95,65 %
09.08.2022 20:27 23,3 C 38 % 1022,5 hPa 0,0 l/m 1,6 km/h (1 Bft) NO 45 0 min 0,000 mm 0,0 UV-I 0 W/m 8,2 C 23,3 C 3,2 km/h (1 Bft) 95,65 %
09.08.2022 20:26 23,4 C 39 % 1022,5 hPa 0,0 l/m 1,6 km/h (1 Bft) NO 45 0 min 0,000 mm 0,0 UV-I 0 W/m 8,6 C 23,4 C 3,2 km/h (1 Bft) 100,00 %
09.08.2022 20:25 23,4 C 39 % 1022,6 hPa 0,0 l/m 3,2 km/h (1 Bft) NO 45 0 min 0,000 mm 0,0 UV-I 5 W/m 8,6 C 23,4 C 4,8 km/h (1 Bft) 100,00 %
09.08.2022 20:24 23,5 C 39 % 1022,5 hPa 0,0 l/m 3,2 km/h (1 Bft) NO 45 0 min 0,000 mm 0,0 UV-I 5 W/m 8,7 C 23,5 C 3,2 km/h (1 Bft) 100,00 %
09.08.2022 20:23 23,6 C 38 % 1022,5 hPa 0,0 l/m 3,2 km/h (1 Bft) NO 45 0 min 0,000 mm 0,0 UV-I 5 W/m 8,4 C 23,6 C 6,4 km/h (2 Bft) 100,00 %
09.08.2022 20:22 23,6 C 37 % 1022,5 hPa 0,0 l/m 1,6 km/h (1 Bft) O-NO 67 0 min 0,000 mm 0,0 UV-I 5 W/m 8,0 C 23,6 C 4,8 km/h (1 Bft) 100,00 %
09.08.2022 20:21 23,7 C 38 % 1022,6 hPa 0,0 l/m 1,6 km/h (1 Bft) NO 45 0 min 0,000 mm 0,0 UV-I 5 W/m 8,5 C 23,7 C 1,6 km/h (1 Bft) 95,65 %
09.08.2022 20:20 23,8 C 38 % 1022,5 hPa 0,0 l/m 1,6 km/h (1 Bft) NO 45 0 min 0,000 mm 0,0 UV-I 7 W/m 8,6 C 23,8 C 3,2 km/h (1 Bft) 100,00 %
09.08.2022 20:19 23,8 C 39 % 1022,5 hPa 0,0 l/m 1,6 km/h (1 Bft) NO 45 0 min 0,000 mm 0,0 UV-I 7 W/m 9,0 C 23,8 C 1,6 km/h (1 Bft) 100,00 %
09.08.2022 20:18 23,9 C 38 % 1022,5 hPa 0,0 l/m 3,2 km/h (1 Bft) NO 45 0 min 0,000 mm 0,0 UV-I 7 W/m 8,7 C 23,9 C 3,2 km/h (1 Bft) 100,00 %
09.08.2022 20:17 23,9 C 38 % 1022,5 hPa 0,0 l/m 1,6 km/h (1 Bft) NO 45 0 min 0,000 mm 0,0 UV-I 7 W/m 8,7 C 23,9 C 3,2 km/h (1 Bft) 100,00 %
09.08.2022 20:16 23,9 C 39 % 1022,5 hPa 0,0 l/m 1,6 km/h (1 Bft) NO 45 0 min 0,000 mm 0,0 UV-I 7 W/m 9,1 C 23,9 C 3,2 km/h (1 Bft) 95,65 %
09.08.2022 20:15 24,0 C 38 % 1022,5 hPa 0,0 l/m 1,6 km/h (1 Bft) NO 45 0 min 0,000 mm 0,0 UV-I 9 W/m 8,8 C 24,0 C 3,2 km/h (1 Bft) 95,65 %
09.08.2022 20:14 24,1 C 39 % 1022,5 hPa 0,0 l/m 1,6 km/h (1 Bft) NO 45 0 min 0,000 mm 0,0 UV-I 9 W/m 9,3 C 24,1 C 1,6 km/h (1 Bft) 91,30 %
09.08.2022 20:13 24,1 C 39 % 1022,6 hPa 0,0 l/m 1,6 km/h (1 Bft) NO 45 0 min 0,000 mm 0,0 UV-I 11 W/m 9,3 C 24,1 C 1,6 km/h (1 Bft) 100,00 %
09.08.2022 20:12 24,1 C 39 % 1022,5 hPa 0,0 l/m 1,6 km/h (1 Bft) NO 45 0 min 0,000 mm 0,0 UV-I 11 W/m 9,3 C 24,1 C 3,2 km/h (1 Bft) 91,30 %
09.08.2022 20:11 24,2 C 39 % 1022,5 hPa 0,0 l/m 1,6 km/h (1 Bft) NO 45 0 min 0,000 mm 0,0 UV-I 12 W/m 9,4 C 24,2 C 3,2 km/h (1 Bft) 95,65 %
09.08.2022 20:10 24,2 C 38 % 1022,4 hPa 0,0 l/m 0,0 km/h (0 Bft) NO 45 0 min 0,000 mm 0,0 UV-I 12 W/m 9,0 C 24,2 C 1,6 km/h (1 Bft) 100,00 %
09.08.2022 20:09 24,3 C 39 % 1022,5 hPa 0,0 l/m 1,6 km/h (1 Bft) NO 45 0 min 0,000 mm 0,0 UV-I 14 W/m 9,4 C 24,3 C 3,2 km/h (1 Bft) 95,65 %
09.08.2022 20:08 24,2 C 38 % 1022,6 hPa 0,0 l/m 1,6 km/h (1 Bft) NO 45 0 min 0,000 mm 0,0 UV-I 12 W/m 9,0 C 24,2 C 3,2 km/h (1 Bft) 100,00 %
09.08.2022 20:07 24,3 C 39 % 1022,5 hPa 0,0 l/m 1,6 km/h (1 Bft) NO 45 0 min 0,000 mm 0,0 UV-I 12 W/m 9,4 C 24,3 C 3,2 km/h (1 Bft) 91,30 %
09.08.2022 20:06 24,3 C 39 % 1022,5 hPa 0,0 l/m 1,6 km/h (1 Bft) NO 45 0 min 0,000 mm 0,0 UV-I 14 W/m 9,4 C 24,3 C 3,2 km/h (1 Bft) 100,00 %
09.08.2022 20:05 24,3 C 38 % 1022,5 hPa 0,0 l/m 1,6 km/h (1 Bft) NO 45 0 min 0,000 mm 0,0 UV-I 16 W/m 9,1 C 24,3 C 3,2 km/h (1 Bft) 95,65 %
09.08.2022 20:04 24,3 C 38 % 1022,4 hPa 0,0 l/m 1,6 km/h (1 Bft) NO 45 0 min 0,000 mm 0,0 UV-I 18 W/m 9,1 C 24,3 C 3,2 km/h (1 Bft) 100,00 %
09.08.2022 20:03 24,3 C 38 % 1022,5 hPa 0,0 l/m 0,0 km/h (0 Bft) NO 45 0 min 0,000 mm 0,0 UV-I 21 W/m 9,1 C 24,3 C 1,6 km/h (1 Bft) 95,65 %
09.08.2022 20:02 24,4 C 38 % 1022,5 hPa 0,0 l/m 0,0 km/h (0 Bft) N 0 0 min 0,000 mm 0,0 UV-I 23 W/m 9,2 C 24,4 C 0,0 km/h (0 Bft) 95,65 %
09.08.2022 20:01 24,4 C 37 % 1022,4 hPa 0,0 l/m 0,0 km/h (0 Bft) NO 45 0 min 0,000 mm 0,0 UV-I 25 W/m 8,8 C 24,4 C 1,6 km/h (1 Bft) 100,00 %
09.08.2022 20:00 24,4 C 38 % 1022,5 hPa 0,0 l/m 0,0 km/h (0 Bft) NO 45 0 min 0,051 mm 0,0 UV-I 25 W/m 9,2 C 24,4 C 1,6 km/h (1 Bft) 91,30 %
09.08.2022 19:59 24,4 C 38 % 1022,4 hPa 0,0 l/m 0,0 km/h (0 Bft) N 0 0 min 0,000 mm 0,0 UV-I 26 W/m 9,2 C 24,4 C 0,0 km/h (0 Bft) 100,00 %
09.08.2022 19:58 24,5 C 38 % 1022,4 hPa 0,0 l/m 0,0 km/h (0 Bft) NO 45 0 min 0,000 mm 0,0 UV-I 28 W/m 9,2 C 24,5 C 1,6 km/h (1 Bft) 95,65 %
09.08.2022 19:57 24,5 C 37 % 1022,5 hPa 0,0 l/m 1,6 km/h (1 Bft) NO 45 0 min 0,000 mm 0,0 UV-I 30 W/m 8,8 C 24,5 C 1,6 km/h (1 Bft) 100,00 %
09.08.2022 19:56 24,5 C 37 % 1022,4 hPa 0,0 l/m 1,6 km/h (1 Bft) NO 45 0 min 0,000 mm 0,0 UV-I 33 W/m 8,8 C 24,5 C 3,2 km/h (1 Bft) 95,65 %
09.08.2022 19:55 24,6 C 36 % 1022,4 hPa 0,0 l/m 1,6 km/h (1 Bft) NO 45 0 min 0,000 mm 0,0 UV-I 33 W/m 8,5 C 24,6 C 3,2 km/h (1 Bft) 100,00 %
09.08.2022 19:54 24,5 C 38 % 1022,4 hPa 0,0 l/m 0,0 km/h (0 Bft) NO 45 0 min 0,000 mm 0,0 UV-I 33 W/m 9,2 C 24,5 C 3,2 km/h (1 Bft) 95,65 %
09.08.2022 19:53 24,6 C 37 % 1022,2 hPa 0,0 l/m 0,0 km/h (0 Bft) NO 45 0 min 0,000 mm 0,0 UV-I 35 W/m 8,9 C 24,6 C 1,6 km/h (1 Bft) 95,65 %
09.08.2022 19:52 24,6 C 38 % 1022,4 hPa 0,0 l/m 0,0 km/h (0 Bft) N 0 0 min 0,000 mm 0,0 UV-I 37 W/m 9,3 C 24,6 C 0,0 km/h (0 Bft) 100,00 %
09.08.2022 19:51 24,6 C 38 % 1022,3 hPa 0,0 l/m 0,0 km/h (0 Bft) N 0 0 min 0,000 mm 0,0 UV-I 40 W/m 9,3 C 24,6 C 0,0 km/h (0 Bft) 100,00 %
09.08.2022 19:50 24,6 C 38 % 1022,3 hPa 0,0 l/m 0,0 km/h (0 Bft) N 0 0 min 0,000 mm 0,0 UV-I 42 W/m 9,3 C 24,6 C 0,0 km/h (0 Bft) 100,00 %
09.08.2022 19:49 24,6 C 38 % 1022,4 hPa 0,0 l/m 0,0 km/h (0 Bft) NO 45 0 min 0,000 mm 0,0 UV-I 44 W/m 9,3 C 24,6 C 1,6 km/h (1 Bft) 100,00 %
09.08.2022 19:48 24,6 C 37 % 1022,4 hPa 0,0 l/m 1,6 km/h (1 Bft) NO 45 0 min 0,000 mm 0,0 UV-I 46 W/m 8,9 C 24,6 C 1,6 km/h (1 Bft) 100,00 %
09.08.2022 19:47 24,5 C 37 % 1022,2 hPa 0,0 l/m 1,6 km/h (1 Bft) NO 45 0 min 0,000 mm 0,0 UV-I 47 W/m 8,8 C 24,5 C 3,2 km/h (1 Bft) 100,00 %
09.08.2022 19:46 24,5 C 38 % 1022,4 hPa 0,0 l/m 1,6 km/h (1 Bft) NO 45 0 min 0,000 mm 0,0 UV-I 49 W/m 9,2 C 24,5 C 3,2 km/h (1 Bft) 100,00 %
09.08.2022 19:45 24,4 C 38 % 1022,2 hPa 0,0 l/m 0,0 km/h (0 Bft) NO 45 0 min 0,000 mm 0,0 UV-I 51 W/m 9,2 C 24,4 C 1,6 km/h (1 Bft) 95,65 %
09.08.2022 19:44 24,4 C 38 % 1022,3 hPa 0,0 l/m 1,6 km/h (1 Bft) NO 45 0 min 0,000 mm 0,0 UV-I 54 W/m 9,2 C 24,4 C 3,2 km/h (1 Bft) 100,00 %
09.08.2022 19:43 24,3 C 38 % 1022,3 hPa 0,0 l/m 1,6 km/h (1 Bft) NO 45 0 min 0,000 mm 0,0 UV-I 56 W/m 9,1 C 24,3 C 3,2 km/h (1 Bft) 100,00 %
09.08.2022 19:42 24,3 C 38 % 1022,3 hPa 0,0 l/m 0,0 km/h (0 Bft) NO 45 0 min 0,000 mm 0,0 UV-I 58 W/m 9,1 C 24,3 C 1,6 km/h (1 Bft) 100,00 %
09.08.2022 19:41 24,3 C 38 % 1022,3 hPa 0,0 l/m 0,0 km/h (0 Bft) N 0 0 min 0,000 mm 0,0 UV-I 60 W/m 9,1 C 24,3 C 0,0 km/h (0 Bft) 100,00 %
09.08.2022 19:40 24,3 C 38 % 1022,3 hPa 0,0 l/m 0,0 km/h (0 Bft) N 0 0 min 0,000 mm 0,0 UV-I 62 W/m 9,1 C 24,3 C 0,0 km/h (0 Bft) 100,00 %
09.08.2022 19:39 24,2 C 38 % 1022,3 hPa 0,0 l/m 0,0 km/h (0 Bft) NO 45 0 min 0,000 mm 0,0 UV-I 63 W/m 9,0 C 24,2 C 1,6 km/h (1 Bft) 100,00 %
09.08.2022 19:38 24,2 C 38 % 1022,2 hPa 0,0 l/m 0,0 km/h (0 Bft) NO 45 0 min 0,000 mm 0,0 UV-I 54 W/m 9,0 C 24,2 C 1,6 km/h (1 Bft) 95,65 %
09.08.2022 19:37 24,2 C 38 % 1022,3 hPa 0,0 l/m 0,0 km/h (0 Bft) NO 45 0 min 0,000 mm 0,0 UV-I 35 W/m 9,0 C 24,2 C 1,6 km/h (1 Bft) 100,00 %
09.08.2022 19:36 24,1 C 38 % 1022,3 hPa 0,0 l/m 1,6 km/h (1 Bft) NO 45 0 min 0,000 mm 0,0 UV-I 44 W/m 8,9 C 24,1 C 3,2 km/h (1 Bft) 95,65 %
09.08.2022 19:35 24,1 C 38 % 1022,3 hPa 0,0 l/m 3,2 km/h (1 Bft) NO 45 0 min 0,000 mm 0,0 UV-I 69 W/m 8,9 C 24,1 C 4,8 km/h (1 Bft) 100,00 %
09.08.2022 19:34 24,0 C 38 % 1022,4 hPa 0,0 l/m 3,2 km/h (1 Bft) O-NO 67 0 min 0,000 mm 0,0 UV-I 74 W/m 8,8 C 24,0 C 4,8 km/h (1 Bft) 100,00 %
09.08.2022 19:33 24,0 C 38 % 1022,3 hPa 0,0 l/m 1,6 km/h (1 Bft) O-NO 67 0 min 0,000 mm 0,0 UV-I 77 W/m 8,8 C 24,0 C 3,2 km/h (1 Bft) 100,00 %
09.08.2022 19:32 23,9 C 40 % 1022,4 hPa 0,0 l/m 0,0 km/h (0 Bft) O-NO 67 0 min 0,000 mm 0,0 UV-I 79 W/m 9,5 C 23,9 C 3,2 km/h (1 Bft) 100,00 %
09.08.2022 19:31 23,9 C 38 % 1022,2 hPa 0,0 l/m 1,6 km/h (1 Bft) O-NO 67 0 min 0,000 mm 0,0 UV-I 81 W/m 8,7 C 23,9 C 1,6 km/h (1 Bft) 95,65 %
09.08.2022 19:30 23,9 C 38 % 1022,3 hPa 0,0 l/m 1,6 km/h (1 Bft) O-NO 67 0 min 0,000 mm 0,0 UV-I 83 W/m 8,7 C 23,9 C 3,2 km/h (1 Bft) 100,00 %
09.08.2022 19:29 23,9 C 39 % 1022,3 hPa 0,0 l/m 3,2 km/h (1 Bft) O-NO 67 0 min 0,000 mm 0,0 UV-I 86 W/m 9,1 C 23,9 C 3,2 km/h (1 Bft) 100,00 %
09.08.2022 19:28 24,1 C 38 % 1022,3 hPa 0,0 l/m 3,2 km/h (1 Bft) O-NO 67 0 min 0,000 mm 0,0 UV-I 93 W/m 8,9 C 24,1 C 4,8 km/h (1 Bft) 100,00 %
09.08.2022 19:27 24,1 C 39 % 1022,2 hPa 0,0 l/m 1,6 km/h (1 Bft) O-NO 67 0 min 0,000 mm 0,0 UV-I 97 W/m 9,3 C 24,1 C 4,8 km/h (1 Bft) 100,00 %
09.08.2022 19:26 24,1 C 40 % 1022,2 hPa 0,0 l/m 0,0 km/h (0 Bft) O-NO 67 0 min 0,000 mm 0,0 UV-I 100 W/m 9,6 C 24,1 C 1,6 km/h (1 Bft) 100,00 %
09.08.2022 19:25 24,2 C 41 % 1022,2 hPa 0,0 l/m 1,6 km/h (1 Bft) O-NO 67 0 min 0,000 mm 0,0 UV-I 105 W/m 10,1 C 24,2 C 3,2 km/h (1 Bft) 100,00 %
09.08.2022 19:24 24,2 C 39 % 1022,4 hPa 0,0 l/m 1,6 km/h (1 Bft) O-NO 67 0 min 0,000 mm 0,0 UV-I 111 W/m 9,4 C 24,2 C 3,2 km/h (1 Bft) 95,65 %
09.08.2022 19:23 24,2 C 39 % 1022,3 hPa 0,0 l/m 3,2 km/h (1 Bft) O-NO 67 0 min 0,000 mm 0,0 UV-I 114 W/m 9,4 C 24,2 C 6,4 km/h (2 Bft) 100,00 %
09.08.2022 19:22 24,3 C 41 % 1022,3 hPa 0,0 l/m 1,6 km/h (1 Bft) O 90 0 min 0,000 mm 0,0 UV-I 121 W/m 10,2 C 24,3 C 3,2 km/h (1 Bft) 100,00 %
09.08.2022 19:21 24,3 C 38 % 1022,2 hPa 0,0 l/m 3,2 km/h (1 Bft) O 90 0 min 0,000 mm 0,0 UV-I 123 W/m 9,1 C 24,3 C 4,8 km/h (1 Bft) 100,00 %
09.08.2022 19:20 24,3 C 38 % 1022,3 hPa 0,0 l/m 4,8 km/h (1 Bft) O 90 0 min 0,000 mm 0,0 UV-I 125 W/m 9,1 C 24,3 C 8,0 km/h (2 Bft) 100,00 %
09.08.2022 19:19 24,3 C 38 % 1022,2 hPa 0,0 l/m 6,4 km/h (2 Bft) O-NO 67 0 min 0,000 mm 0,0 UV-I 127 W/m 9,1 C 24,3 C 8,0 km/h (2 Bft) 100,00 %
09.08.2022 19:18 24,3 C 39 % 1022,1 hPa 0,0 l/m 8,0 km/h (2 Bft) O 90 0 min 0,000 mm 0,0 UV-I 130 W/m 9,4 C 24,3 C 12,9 km/h (3 Bft) 100,00 %
09.08.2022 19:17 24,4 C 39 % 1022,2 hPa 0,0 l/m 8,0 km/h (2 Bft) O-NO 67 0 min 0,000 mm 0,0 UV-I 134 W/m 9,5 C 24,4 C 12,9 km/h (3 Bft) 95,65 %
09.08.2022 19:16 24,4 C 37 % 1022,2 hPa 0,0 l/m 8,0 km/h (2 Bft) O-SO 112 0 min 0,000 mm 0,0 UV-I 137 W/m 8,8 C 24,4 C 14,5 km/h (3 Bft) 100,00 %
09.08.2022 19:15 24,4 C 38 % 1022,2 hPa 0,0 l/m 6,4 km/h (2 Bft) O 90 0 min 0,000 mm 0,0 UV-I 146 W/m 9,2 C 24,4 C 9,7 km/h (2 Bft) 100,00 %
09.08.2022 19:14 24,4 C 37 % 1022,1 hPa 0,0 l/m 3,2 km/h (1 Bft) NO 45 1 min 0,000 mm 0,0 UV-I 153 W/m 8,8 C 24,4 C 4,8 km/h (1 Bft) 100,00 %
09.08.2022 19:13 24,4 C 37 % 1022,2 hPa 0,0 l/m 4,8 km/h (1 Bft) NO 45 1 min 0,000 mm 0,0 UV-I 156 W/m 8,8 C 24,4 C 8,0 km/h (2 Bft) 100,00 %
09.08.2022 19:12 24,4 C 37 % 1022,1 hPa 0,0 l/m 4,8 km/h (1 Bft) NO 45 1 min 0,000 mm 0,0 UV-I 160 W/m 8,8 C 24,4 C 8,0 km/h (2 Bft) 100,00 %
09.08.2022 19:11 24,4 C 38 % 1022,2 hPa 0,0 l/m 1,6 km/h (1 Bft) NO 45 1 min 0,000 mm 0,0 UV-I 163 W/m 9,2 C 24,4 C 4,8 km/h (1 Bft) 95,65 %
09.08.2022 19:10 24,4 C 37 % 1022,1 hPa 0,0 l/m 1,6 km/h (1 Bft) NO 45 1 min 0,000 mm 0,0 UV-I 165 W/m 8,8 C 24,4 C 3,2 km/h (1 Bft) 95,65 %
09.08.2022 19:09 24,4 C 38 % 1022,1 hPa 0,0 l/m 3,2 km/h (1 Bft) N-NO 22 1 min 0,000 mm 0,0 UV-I 169 W/m 9,2 C 24,4 C 4,8 km/h (1 Bft) 100,00 %
09.08.2022 19:08 24,4 C 37 % 1022,1 hPa 0,0 l/m 1,6 km/h (1 Bft) N 360 1 min 0,000 mm 0,0 UV-I 174 W/m 8,8 C 24,4 C 3,2 km/h (1 Bft) 100,00 %
09.08.2022 19:07 24,4 C 39 % 1022,1 hPa 0,0 l/m 1,6 km/h (1 Bft) N 360 1 min 0,000 mm 0,0 UV-I 178 W/m 9,5 C 24,4 C 4,8 km/h (1 Bft) 100,00 %
09.08.2022 19:06 24,4 C 38 % 1022,2 hPa 0,0 l/m 3,2 km/h (1 Bft) N 360 1 min 0,000 mm 0,0 UV-I 179 W/m 9,2 C 24,4 C 6,4 km/h (2 Bft) 100,00 %
09.08.2022 19:05 24,4 C 39 % 1022,2 hPa 0,0 l/m 4,8 km/h (1 Bft) N 360 1 min 0,000 mm 0,0 UV-I 183 W/m 9,5 C 24,4 C 4,8 km/h (1 Bft) 100,00 %
09.08.2022 19:04 24,4 C 41 % 1022,2 hPa 0,0 l/m 1,6 km/h (1 Bft) NO 45 1 min 0,000 mm 0,0 UV-I 185 W/m 10,3 C 24,4 C 3,2 km/h (1 Bft) 100,00 %
09.08.2022 19:03 24,4 C 38 % 1022,2 hPa 0,0 l/m 1,6 km/h (1 Bft) NO 45 1 min 0,000 mm 0,0 UV-I 185 W/m 9,2 C 24,4 C 3,2 km/h (1 Bft) 95,65 %
09.08.2022 19:02 24,4 C 37 % 1022,2 hPa 0,0 l/m 1,6 km/h (1 Bft) N-NO 22 1 min 0,000 mm 0,0 UV-I 185 W/m 8,8 C 24,4 C 3,2 km/h (1 Bft) 100,00 %
09.08.2022 19:01 24,4 C 38 % 1022,2 hPa 0,0 l/m 3,2 km/h (1 Bft) NO 45 1 min 0,000 mm 0,0 UV-I 186 W/m 9,2 C 24,4 C 4,8 km/h (1 Bft) 100,00 %
09.08.2022 19:00 24,4 C 38 % 1022,2 hPa 0,0 l/m 3,2 km/h (1 Bft) NO 45 1 min 0,203 mm 0,0 UV-I 186 W/m 9,2 C 24,4 C 4,8 km/h (1 Bft) 100,00 %
09.08.2022 18:59 24,4 C 39 % 1022,1 hPa 0,0 l/m 1,6 km/h (1 Bft) NO 45 1 min 0,000 mm 0,0 UV-I 188 W/m 9,5 C 24,4 C 3,2 km/h (1 Bft) 95,65 %
09.08.2022 18:58 24,4 C 37 % 1022,1 hPa 0,0 l/m 1,6 km/h (1 Bft) N-NO 22 1 min 0,000 mm 0,0 UV-I 192 W/m 8,8 C 24,4 C 4,8 km/h (1 Bft) 100,00 %
09.08.2022 18:57 24,4 C 38 % 1022,1 hPa 0,0 l/m 3,2 km/h (1 Bft) NO 45 1 min 0,000 mm 0,0 UV-I 193 W/m 9,2 C 24,4 C 4,8 km/h (1 Bft) 95,65 %
09.08.2022 18:56 24,3 C 37 % 1022,1 hPa 0,0 l/m 3,2 km/h (1 Bft) NO 45 1 min 0,000 mm 0,0 UV-I 195 W/m 8,7 C 24,3 C 4,8 km/h (1 Bft) 95,65 %
09.08.2022 18:55 24,4 C 37 % 1022,1 hPa 0,0 l/m 1,6 km/h (1 Bft) NO 45 1 min 0,000 mm 0,0 UV-I 197 W/m 8,8 C 24,4 C 4,8 km/h (1 Bft) 95,65 %
09.08.2022 18:54 24,4 C 36 % 1022,2 hPa 0,0 l/m 1,6 km/h (1 Bft) N-NO 22 1 min 0,000 mm 0,0 UV-I 199 W/m 8,4 C 24,4 C 3,2 km/h (1 Bft) 100,00 %
09.08.2022 18:53 24,4 C 38 % 1022,1 hPa 0,0 l/m 1,6 km/h (1 Bft) N-NO 22 1 min 0,000 mm 0,0 UV-I 202 W/m 9,2 C 24,4 C 4,8 km/h (1 Bft) 95,65 %
09.08.2022 18:52 24,4 C 37 % 1022,1 hPa 0,0 l/m 1,6 km/h (1 Bft) NO 45 1 min 0,000 mm 0,0 UV-I 204 W/m 8,8 C 24,4 C 4,8 km/h (1 Bft) 95,65 %
09.08.2022 18:51 24,4 C 37 % 1022,1 hPa 0,0 l/m 1,6 km/h (1 Bft) NO 45 1 min 0,000 mm 0,0 UV-I 206 W/m 8,8 C 24,4 C 3,2 km/h (1 Bft) 95,65 %
09.08.2022 18:50 24,4 C 38 % 1022,1 hPa 0,0 l/m 1,6 km/h (1 Bft) O-NO 67 1 min 0,000 mm 0,0 UV-I 202 W/m 9,2 C 24,4 C 1,6 km/h (1 Bft) 95,65 %
09.08.2022 18:49 24,4 C 37 % 1022,1 hPa 0,0 l/m 1,6 km/h (1 Bft) O-NO 67 1 min 0,000 mm 0,0 UV-I 204 W/m 8,8 C 24,4 C 1,6 km/h (1 Bft) 95,65 %
09.08.2022 18:48 24,4 C 39 % 1022,1 hPa 0,0 l/m 1,6 km/h (1 Bft) O-NO 67 1 min 0,000 mm 0,0 UV-I 206 W/m 9,5 C 24,4 C 3,2 km/h (1 Bft) 95,65 %
09.08.2022 18:47 24,4 C 38 % 1022,2 hPa 0,0 l/m 1,6 km/h (1 Bft) O-NO 67 1 min 0,000 mm 0,0 UV-I 213 W/m 9,2 C 24,4 C 3,2 km/h (1 Bft) 100,00 %
09.08.2022 18:46 24,3 C 38 % 1022,1 hPa 0,0 l/m 3,2 km/h (1 Bft) O-NO 67 1 min 0,000 mm 0,0 UV-I 214 W/m 9,1 C 24,3 C 4,8 km/h (1 Bft) 95,65 %
09.08.2022 18:45 24,3 C 40 % 1022,1 hPa 0,0 l/m 3,2 km/h (1 Bft) O-NO 67 1 min 0,000 mm 0,0 UV-I 216 W/m 9,8 C 24,3 C 4,8 km/h (1 Bft) 100,00 %
09.08.2022 18:44 24,3 C 37 % 1022,1 hPa 0,0 l/m 3,2 km/h (1 Bft) O-NO 67 1 min 0,000 mm 0,0 UV-I 220 W/m 8,7 C 24,3 C 4,8 km/h (1 Bft) 95,65 %
09.08.2022 18:43 24,3 C 38 % 1022,2 hPa 0,0 l/m 6,4 km/h (2 Bft) N-NO 22 1 min 0,000 mm 0,0 UV-I 221 W/m 9,1 C 24,3 C 9,7 km/h (2 Bft) 95,65 %
09.08.2022 18:42 24,2 C 38 % 1022,2 hPa 0,0 l/m 4,8 km/h (1 Bft) O-NO 67 1 min 0,000 mm 0,0 UV-I 225 W/m 9,0 C 24,2 C 8,0 km/h (2 Bft) 95,65 %
09.08.2022 18:41 24,2 C 36 % 1022,2 hPa 0,0 l/m 3,2 km/h (1 Bft) O-SO 112 1 min 0,000 mm 0,0 UV-I 230 W/m 8,2 C 24,2 C 4,8 km/h (1 Bft) 91,30 %
09.08.2022 18:40 24,2 C 36 % 1022,2 hPa 0,0 l/m 1,6 km/h (1 Bft) NO 45 1 min 0,000 mm 0,0 UV-I 232 W/m 8,2 C 24,2 C 3,2 km/h (1 Bft) 100,00 %
09.08.2022 18:39 24,2 C 37 % 1022,2 hPa 0,0 l/m 3,2 km/h (1 Bft) NO 45 1 min 0,000 mm 0,0 UV-I 236 W/m 8,6 C 24,2 C 8,0 km/h (2 Bft) 95,65 %
09.08.2022 18:38 24,2 C 37 % 1022,1 hPa 0,0 l/m 6,4 km/h (2 Bft) O-NO 67 1 min 0,000 mm 0,0 UV-I 241 W/m 8,6 C 24,2 C 8,0 km/h (2 Bft) 100,00 %
09.08.2022 18:37 24,2 C 38 % 1022,1 hPa 0,0 l/m 4,8 km/h (1 Bft) O-NO 67 1 min 0,000 mm 0,0 UV-I 230 W/m 9,0 C 24,2 C 8,0 km/h (2 Bft) 95,65 %
09.08.2022 18:36 24,2 C 37 % 1022,2 hPa 0,0 l/m 3,2 km/h (1 Bft) O-NO 67 1 min 0,000 mm 0,0 UV-I 250 W/m 8,6 C 24,2 C 4,8 km/h (1 Bft) 100,00 %
09.08.2022 18:35 24,3 C 37 % 1022,1 hPa 0,0 l/m 3,2 km/h (1 Bft) N-NO 22 1 min 0,000 mm 0,0 UV-I 250 W/m 8,7 C 24,3 C 4,8 km/h (1 Bft) 95,65 %
09.08.2022 18:34 24,5 C 35 % 1022,2 hPa 0,0 l/m 8,0 km/h (2 Bft) NO 45 0 min 0,000 mm 0,0 UV-I 47 W/m 8,0 C 24,5 C 14,5 km/h (3 Bft) 100,00 %
09.08.2022 18:33 24,6 C 35 % 1022,2 hPa 0,0 l/m 9,7 km/h (2 Bft) NO 45 0 min 0,000 mm 0,0 UV-I 47 W/m 8,1 C 24,6 C 16,1 km/h (3 Bft) 100,00 %
09.08.2022 18:32 24,7 C 37 % 1022,2 hPa 0,0 l/m 3,2 km/h (1 Bft) O-NO 67 0 min 0,000 mm 0,0 UV-I 47 W/m 9,0 C 24,7 C 8,0 km/h (2 Bft) 100,00 %
09.08.2022 18:31 24,8 C 37 % 1022,2 hPa 0,0 l/m 6,4 km/h (2 Bft) O-NO 67 0 min 0,000 mm 0,0 UV-I 51 W/m 9,1 C 24,8 C 8,0 km/h (2 Bft) 100,00 %
09.08.2022 18:30 24,9 C 37 % 1022,2 hPa 0,0 l/m 6,4 km/h (2 Bft) NO 45 1 min 0,000 mm 0,0 UV-I 278 W/m 9,2 C 24,9 C 9,7 km/h (2 Bft) 100,00 %
09.08.2022 18:29 24,9 C 37 % 1022,2 hPa 0,0 l/m 6,4 km/h (2 Bft) O-NO 67 1 min 0,000 mm 0,5 UV-I 281 W/m 9,2 C 24,9 C 11,3 km/h (2 Bft) 100,00 %
09.08.2022 18:28 24,9 C 36 % 1022,2 hPa 0,0 l/m 9,7 km/h (2 Bft) O-NO 67 1 min 0,000 mm 0,5 UV-I 292 W/m 8,8 C 24,9 C 14,5 km/h (3 Bft) 95,65 %
09.08.2022 18:27 24,9 C 36 % 1022,2 hPa 0,0 l/m 8,0 km/h (2 Bft) O-NO 67 1 min 0,000 mm 0,5 UV-I 299 W/m 8,8 C 24,9 C 12,9 km/h (3 Bft) 100,00 %
09.08.2022 18:26 24,9 C 36 % 1022,2 hPa 0,0 l/m 9,7 km/h (2 Bft) O-NO 67 1 min 0,000 mm 0,5 UV-I 308 W/m 8,8 C 24,9 C 16,1 km/h (3 Bft) 95,65 %
09.08.2022 18:25 24,9 C 35 % 1022,3 hPa 0,0 l/m 14,5 km/h (3 Bft) O-SO 112 1 min 0,000 mm 0,5 UV-I 313 W/m 8,4 C 24,9 C 17,7 km/h (3 Bft) 100,00 %
09.08.2022 18:24 24,9 C 37 % 1022,2 hPa 0,0 l/m 12,9 km/h (3 Bft) NO 45 1 min 0,000 mm 0,5 UV-I 320 W/m 9,2 C 24,9 C 19,3 km/h (3 Bft) 100,00 %
09.08.2022 18:23 24,9 C 38 % 1022,2 hPa 0,0 l/m 8,0 km/h (2 Bft) NO 45 1 min 0,000 mm 0,5 UV-I 334 W/m 9,6 C 24,9 C 14,5 km/h (3 Bft) 100,00 %
09.08.2022 18:22 25,0 C 38 % 1022,2 hPa 0,0 l/m 6,4 km/h (2 Bft) NO 45 1 min 0,000 mm 0,5 UV-I 341 W/m 9,7 C 25,0 C 9,7 km/h (2 Bft) 100,00 %
09.08.2022 18:21 25,0 C 37 % 1022,1 hPa 0,0 l/m 4,8 km/h (1 Bft) NO 45 1 min 0,000 mm 0,5 UV-I 346 W/m 9,3 C 25,0 C 6,4 km/h (2 Bft) 91,30 %
09.08.2022 18:20 25,2 C 35 % 1022,2 hPa 0,0 l/m 3,2 km/h (1 Bft) O-SO 112 1 min 0,000 mm 0,5 UV-I 352 W/m 8,6 C 25,2 C 4,8 km/h (1 Bft) 100,00 %
09.08.2022 18:19 25,3 C 38 % 1022,2 hPa 0,0 l/m 6,4 km/h (2 Bft) O-SO 112 1 min 0,000 mm 0,5 UV-I 357 W/m 9,9 C 25,3 C 9,7 km/h (2 Bft) 100,00 %
09.08.2022 18:18 25,3 C 37 % 1022,1 hPa 0,0 l/m 3,2 km/h (1 Bft) SO 135 1 min 0,000 mm 0,6 UV-I 362 W/m 9,6 C 25,3 C 4,8 km/h (1 Bft) 100,00 %
09.08.2022 18:17 25,2 C 36 % 1022,2 hPa 0,0 l/m 3,2 km/h (1 Bft) NO 45 1 min 0,000 mm 0,6 UV-I 376 W/m 9,1 C 25,2 C 4,8 km/h (1 Bft) 100,00 %
09.08.2022 18:16 25,3 C 38 % 1022,2 hPa 0,0 l/m 4,8 km/h (1 Bft) O-NO 67 1 min 0,000 mm 0,6 UV-I 381 W/m 9,9 C 25,3 C 6,4 km/h (2 Bft) 100,00 %
09.08.2022 18:15 25,3 C 37 % 1022,2 hPa 0,0 l/m 4,8 km/h (1 Bft) NO 45 1 min 0,000 mm 0,6 UV-I 387 W/m 9,6 C 25,3 C 6,4 km/h (2 Bft) 95,65 %
09.08.2022 18:14 25,2 C 37 % 1022,2 hPa 0,0 l/m 4,8 km/h (1 Bft) O-NO 67 1 min 0,000 mm 0,6 UV-I 388 W/m 9,5 C 25,2 C 11,3 km/h (2 Bft) 95,65 %
09.08.2022 18:13 25,2 C 37 % 1022,2 hPa 0,0 l/m 3,2 km/h (1 Bft) NO 45 1 min 0,000 mm 0,6 UV-I 387 W/m 9,5 C 25,2 C 6,4 km/h (2 Bft) 100,00 %
09.08.2022 18:12 25,2 C 40 % 1022,2 hPa 0,0 l/m 3,2 km/h (1 Bft) O-SO 112 1 min 0,000 mm 0,6 UV-I 388 W/m 10,6 C 25,2 C 6,4 km/h (2 Bft) 100,00 %
09.08.2022 18:11 25,2 C 37 % 1022,2 hPa 0,0 l/m 1,6 km/h (1 Bft) O-SO 112 1 min 0,000 mm 0,7 UV-I 385 W/m 9,5 C 25,2 C 1,6 km/h (1 Bft) 100,00 %
09.08.2022 18:10 25,2 C 37 % 1022,2 hPa 0,0 l/m 1,6 km/h (1 Bft) O-SO 112 1 min 0,000 mm 0,7 UV-I 381 W/m 9,5 C 25,2 C 3,2 km/h (1 Bft) 100,00 %
09.08.2022 18:09 25,1 C 38 % 1022,2 hPa 0,0 l/m 1,6 km/h (1 Bft) O-SO 112 1 min 0,000 mm 0,7 UV-I 380 W/m 9,8 C 25,1 C 3,2 km/h (1 Bft) 100,00 %
09.08.2022 18:08 25,1 C 37 % 1022,2 hPa 0,0 l/m 1,6 km/h (1 Bft) O-SO 112 1 min 0,000 mm 0,7 UV-I 380 W/m 9,4 C 25,1 C 3,2 km/h (1 Bft) 100,00 %
09.08.2022 18:07 25,1 C 38 % 1022,2 hPa 0,0 l/m 3,2 km/h (1 Bft) O-SO 112 1 min 0,000 mm 0,7 UV-I 380 W/m 9,8 C 25,1 C 4,8 km/h (1 Bft) 95,65 %
09.08.2022 18:06 25,0 C 39 % 1022,2 hPa 0,0 l/m 4,8 km/h (1 Bft) O 90 1 min 0,000 mm 0,7 UV-I 376 W/m 10,1 C 25,0 C 9,7 km/h (2 Bft) 100,00 %
09.08.2022 18:05 24,9 C 38 % 1022,2 hPa 0,0 l/m 4,8 km/h (1 Bft) O-SO 112 1 min 0,000 mm 0,7 UV-I 371 W/m 9,6 C 24,9 C 9,7 km/h (2 Bft) 95,65 %
09.08.2022 18:04 24,9 C 37 % 1022,3 hPa 0,0 l/m 3,2 km/h (1 Bft) O 90 1 min 0,000 mm 0,7 UV-I 369 W/m 9,2 C 24,9 C 4,8 km/h (1 Bft) 100,00 %
09.08.2022 18:03 24,9 C 39 % 1022,2 hPa 0,0 l/m 1,6 km/h (1 Bft) O-SO 112 1 min 0,000 mm 0,7 UV-I 366 W/m 10,0 C 24,9 C 4,8 km/h (1 Bft) 100,00 %
09.08.2022 18:02 24,9 C 37 % 1022,3 hPa 0,0 l/m 3,2 km/h (1 Bft) SO 135 1 min 0,000 mm 0,8 UV-I 366 W/m 9,2 C 24,9 C 6,4 km/h (2 Bft) 100,00 %
09.08.2022 18:01 24,9 C 38 % 1022,3 hPa 0,0 l/m 6,4 km/h (2 Bft) O-SO 112 1 min 0,000 mm 0,8 UV-I 367 W/m 9,6 C 24,9 C 9,7 km/h (2 Bft) 100,00 %
09.08.2022 18:00 24,8 C 39 % 1022,3 hPa 0,0 l/m 4,8 km/h (1 Bft) O-SO 112 1 min 0,330 mm 0,8 UV-I 373 W/m 9,9 C 24,8 C 6,4 km/h (2 Bft) 95,65 %
09.08.2022 17:59 24,7 C 39 % 1022,3 hPa 0,0 l/m 6,4 km/h (2 Bft) O-SO 112 1 min 0,000 mm 0,8 UV-I 374 W/m 9,8 C 24,7 C 11,3 km/h (2 Bft) 100,00 %
09.08.2022 17:58 24,7 C 39 % 1022,4 hPa 0,0 l/m 6,4 km/h (2 Bft) SO 135 1 min 0,000 mm 0,8 UV-I 373 W/m 9,8 C 24,7 C 11,3 km/h (2 Bft) 100,00 %
09.08.2022 17:57 24,7 C 37 % 1022,3 hPa 0,0 l/m 3,2 km/h (1 Bft) O 90 1 min 0,000 mm 0,8 UV-I 371 W/m 9,0 C 24,7 C 4,8 km/h (1 Bft) 100,00 %
09.08.2022 17:56 24,7 C 40 % 1022,4 hPa 0,0 l/m 4,8 km/h (1 Bft) O-SO 112 1 min 0,000 mm 0,8 UV-I 367 W/m 10,2 C 24,7 C 6,4 km/h (2 Bft) 100,00 %
09.08.2022 17:55 24,7 C 36 % 1022,4 hPa 0,0 l/m 4,8 km/h (1 Bft) O-SO 112 1 min 0,000 mm 0,8 UV-I 367 W/m 8,6 C 24,7 C 8,0 km/h (2 Bft) 100,00 %
09.08.2022 17:54 24,7 C 36 % 1022,4 hPa 0,0 l/m 3,2 km/h (1 Bft) O-SO 112 1 min 0,000 mm 0,9 UV-I 371 W/m 8,6 C 24,7 C 6,4 km/h (2 Bft) 100,00 %
09.08.2022 17:53 24,8 C 36 % 1022,5 hPa 0,0 l/m 3,2 km/h (1 Bft) O-SO 112 1 min 0,000 mm 0,9 UV-I 371 W/m 8,7 C 24,8 C 6,4 km/h (2 Bft) 95,65 %
09.08.2022 17:52 24,7 C 37 % 1022,4 hPa 0,0 l/m 8,0 km/h (2 Bft) O-SO 112 1 min 0,000 mm 0,9 UV-I 371 W/m 9,0 C 24,7 C 12,9 km/h (3 Bft) 100,00 %
09.08.2022 17:51 24,7 C 37 % 1022,4 hPa 0,0 l/m 3,2 km/h (1 Bft) O-SO 112 1 min 0,000 mm 0,9 UV-I 371 W/m 9,0 C 24,7 C 9,7 km/h (2 Bft) 95,65 %
09.08.2022 17:50 24,7 C 37 % 1022,3 hPa 0,0 l/m 4,8 km/h (1 Bft) O-NO 67 1 min 0,000 mm 0,9 UV-I 373 W/m 9,0 C 24,7 C 8,0 km/h (2 Bft) 100,00 %
09.08.2022 17:49 24,7 C 37 % 1022,4 hPa 0,0 l/m 8,0 km/h (2 Bft) O-SO 112 1 min 0,000 mm 0,9 UV-I 374 W/m 9,0 C 24,7 C 12,9 km/h (3 Bft) 100,00 %
09.08.2022 17:48 24,6 C 38 % 1022,4 hPa 0,0 l/m 4,8 km/h (1 Bft) O 90 1 min 0,000 mm 0,9 UV-I 378 W/m 9,3 C 24,6 C 6,4 km/h (2 Bft) 100,00 %
09.08.2022 17:47 24,6 C 37 % 1022,4 hPa 0,0 l/m 3,2 km/h (1 Bft) O-NO 67 1 min 0,000 mm 0,9 UV-I 381 W/m 8,9 C 24,6 C 4,8 km/h (1 Bft) 100,00 %
09.08.2022 17:46 24,5 C 38 % 1022,4 hPa 0,0 l/m 3,2 km/h (1 Bft) O 90 1 min 0,000 mm 1,0 UV-I 383 W/m 9,2 C 24,5 C 6,4 km/h (2 Bft) 95,65 %
09.08.2022 17:45 24,4 C 38 % 1022,5 hPa 0,0 l/m 4,8 km/h (1 Bft) O 90 1 min 0,000 mm 1,0 UV-I 388 W/m 9,2 C 24,4 C 6,4 km/h (2 Bft) 95,65 %
09.08.2022 17:44 24,4 C 39 % 1022,4 hPa 0,0 l/m 8,0 km/h (2 Bft) O 90 1 min 0,000 mm 1,0 UV-I 390 W/m 9,5 C 24,4 C 12,9 km/h (3 Bft) 100,00 %
09.08.2022 17:43 24,3 C 41 % 1022,4 hPa 0,0 l/m 4,8 km/h (1 Bft) O-NO 67 1 min 0,000 mm 1,0 UV-I 374 W/m 10,2 C 24,3 C 11,3 km/h (2 Bft) 95,65 %
09.08.2022 17:42 24,3 C 39 % 1022,4 hPa 0,0 l/m 4,8 km/h (1 Bft) O-NO 67 1 min 0,000 mm 1,0 UV-I 397 W/m 9,4 C 24,3 C 4,8 km/h (1 Bft) 95,65 %
09.08.2022 17:41 24,3 C 39 % 1022,4 hPa 0,0 l/m 6,4 km/h (2 Bft) O-SO 112 1 min 0,000 mm 1,0 UV-I 403 W/m 9,4 C 24,3 C 9,7 km/h (2 Bft) 100,00 %
09.08.2022 17:40 24,3 C 38 % 1022,4 hPa 0,0 l/m 8,0 km/h (2 Bft) O 90 0 min 0,000 mm 1,0 UV-I 88 W/m 9,1 C 24,3 C 12,9 km/h (3 Bft) 95,65 %
09.08.2022 17:39 24,4 C 37 % 1022,5 hPa 0,0 l/m 8,0 km/h (2 Bft) O 90 0 min 0,000 mm 1,0 UV-I 88 W/m 8,8 C 24,4 C 11,3 km/h (2 Bft) 95,65 %
09.08.2022 17:38 24,7 C 37 % 1022,4 hPa 0,0 l/m 8,0 km/h (2 Bft) O-SO 112 0 min 0,000 mm 0,8 UV-I 88 W/m 9,0 C 24,7 C 14,5 km/h (3 Bft) 95,65 %
09.08.2022 17:37 24,8 C 36 % 1022,5 hPa 0,0 l/m 9,7 km/h (2 Bft) O 90 0 min 0,000 mm 0,8 UV-I 84 W/m 8,7 C 24,8 C 12,9 km/h (3 Bft) 100,00 %
09.08.2022 17:36 24,9 C 35 % 1022,4 hPa 0,0 l/m 6,4 km/h (2 Bft) O-NO 67 1 min 0,000 mm 0,9 UV-I 327 W/m 8,4 C 24,9 C 12,9 km/h (3 Bft) 91,30 %
09.08.2022 17:35 25,0 C 34 % 1022,4 hPa 0,0 l/m 9,7 km/h (2 Bft) NO 45 1 min 0,000 mm 1,0 UV-I 394 W/m 8,0 C 25,0 C 16,1 km/h (3 Bft) 100,00 %
09.08.2022 17:34 25,1 C 34 % 1022,4 hPa 0,0 l/m 8,0 km/h (2 Bft) O-NO 67 1 min 0,000 mm 1,1 UV-I 394 W/m 8,1 C 25,1 C 11,3 km/h (2 Bft) 95,65 %
09.08.2022 17:33 25,2 C 34 % 1022,4 hPa 0,0 l/m 6,4 km/h (2 Bft) O-NO 67 1 min 0,000 mm 1,1 UV-I 471 W/m 8,2 C 25,2 C 9,7 km/h (2 Bft) 95,65 %
09.08.2022 17:32 25,3 C 36 % 1022,4 hPa 0,0 l/m 11,3 km/h (2 Bft) NO 45 1 min 0,000 mm 1,0 UV-I 452 W/m 9,1 C 25,3 C 17,7 km/h (3 Bft) 95,65 %
09.08.2022 17:31 25,2 C 35 % 1022,5 hPa 0,0 l/m 8,0 km/h (2 Bft) O-SO 112 1 min 0,000 mm 1,1 UV-I 476 W/m 8,6 C 25,2 C 16,1 km/h (3 Bft) 95,65 %
09.08.2022 17:30 25,2 C 35 % 1022,5 hPa 0,0 l/m 6,4 km/h (2 Bft) O-NO 67 1 min 0,000 mm 1,2 UV-I 506 W/m 8,6 C 25,2 C 9,7 km/h (2 Bft) 100,00 %
09.08.2022 17:29 25,3 C 35 % 1022,5 hPa 0,0 l/m 11,3 km/h (2 Bft) O-NO 67 1 min 0,000 mm 1,2 UV-I 522 W/m 8,7 C 25,3 C 16,1 km/h (3 Bft) 95,65 %
09.08.2022 17:28 25,2 C 36 % 1022,5 hPa 0,0 l/m 14,5 km/h (3 Bft) O-SO 112 1 min 0,000 mm 1,2 UV-I 533 W/m 9,1 C 25,2 C 17,7 km/h (3 Bft) 100,00 %
09.08.2022 17:27 25,2 C 35 % 1022,5 hPa 0,0 l/m 8,0 km/h (2 Bft) O 90 1 min 0,000 mm 1,2 UV-I 536 W/m 8,6 C 25,2 C 19,3 km/h (3 Bft) 95,65 %
09.08.2022 17:26 25,2 C 35 % 1022,5 hPa 0,0 l/m 8,0 km/h (2 Bft) NO 45 1 min 0,000 mm 1,3 UV-I 543 W/m 8,6 C 25,2 C 11,3 km/h (2 Bft) 91,30 %
09.08.2022 17:25 25,2 C 34 % 1022,5 hPa 0,0 l/m 12,9 km/h (3 Bft) O-SO 112 1 min 0,000 mm 1,3 UV-I 550 W/m 8,2 C 25,2 C 17,7 km/h (3 Bft) 100,00 %
09.08.2022 17:24 25,3 C 34 % 1022,4 hPa 0,0 l/m 14,5 km/h (3 Bft) O 90 1 min 0,000 mm 1,3 UV-I 548 W/m 8,3 C 25,3 C 19,3 km/h (3 Bft) 95,65 %
09.08.2022 17:23 25,3 C 35 % 1022,5 hPa 0,0 l/m 12,9 km/h (3 Bft) NO 45 1 min 0,000 mm 1,3 UV-I 543 W/m 8,7 C 25,3 C 16,1 km/h (3 Bft) 100,00 %
09.08.2022 17:22 25,2 C 35 % 1022,6 hPa 0,0 l/m 8,0 km/h (2 Bft) O-NO 67 1 min 0,000 mm 1,4 UV-I 538 W/m 8,6 C 25,2 C 14,5 km/h (3 Bft) 100,00 %
09.08.2022 17:21 25,1 C 35 % 1022,5 hPa 0,0 l/m 8,0 km/h (2 Bft) NO 45 1 min 0,000 mm 1,4 UV-I 536 W/m 8,6 C 25,1 C 12,9 km/h (3 Bft) 95,65 %
09.08.2022 17:20 25,1 C 36 % 1022,6 hPa 0,0 l/m 9,7 km/h (2 Bft) O-NO 67 1 min 0,000 mm 1,4 UV-I 536 W/m 9,0 C 25,1 C 14,5 km/h (3 Bft) 95,65 %
09.08.2022 17:19 24,9 C 37 % 1022,5 hPa 0,0 l/m 6,4 km/h (2 Bft) O-NO 67 1 min 0,000 mm 1,4 UV-I 531 W/m 9,2 C 24,9 C 16,1 km/h (3 Bft) 100,00 %
09.08.2022 17:18 24,9 C 37 % 1022,5 hPa 0,0 l/m 1,6 km/h (1 Bft) N 360 1 min 0,000 mm 1,4 UV-I 517 W/m 9,2 C 24,9 C 4,8 km/h (1 Bft) 100,00 %
09.08.2022 17:17 24,9 C 34 % 1022,5 hPa 0,0 l/m 3,2 km/h (1 Bft) N-NW 337 1 min 0,000 mm 1,5 UV-I 513 W/m 7,9 C 24,9 C 6,4 km/h (2 Bft) 95,65 %
09.08.2022 17:16 24,9 C 36 % 1022,5 hPa 0,0 l/m 3,2 km/h (1 Bft) N-NO 22 1 min 0,000 mm 1,5 UV-I 510 W/m 8,8 C 24,9 C 8,0 km/h (2 Bft) 100,00 %
09.08.2022 17:15 24,9 C 35 % 1022,6 hPa 0,0 l/m 4,8 km/h (1 Bft) N 360 1 min 0,000 mm 1,5 UV-I 504 W/m 8,4 C 24,9 C 8,0 km/h (2 Bft) 100,00 %
09.08.2022 17:14 24,9 C 36 % 1022,6 hPa 0,0 l/m 6,4 km/h (2 Bft) N 360 1 min 0,000 mm 1,5 UV-I 499 W/m 8,8 C 24,9 C 9,7 km/h (2 Bft) 100,00 %
09.08.2022 17:13 24,9 C 35 % 1022,5 hPa 0,0 l/m 4,8 km/h (1 Bft) N 360 1 min 0,000 mm 1,5 UV-I 494 W/m 8,4 C 24,9 C 6,4 km/h (2 Bft) 100,00 %
09.08.2022 17:12 24,8 C 39 % 1022,5 hPa 0,0 l/m 8,0 km/h (2 Bft) O-NO 67 1 min 0,000 mm 1,5 UV-I 489 W/m 9,9 C 24,8 C 11,3 km/h (2 Bft) 100,00 %
09.08.2022 17:11 24,6 C 38 % 1022,6 hPa 0,0 l/m 4,8 km/h (1 Bft) NO 45 1 min 0,000 mm 1,5 UV-I 492 W/m 9,3 C 24,6 C 6,4 km/h (2 Bft) 100,00 %
09.08.2022 17:10 24,5 C 38 % 1022,5 hPa 0,0 l/m 8,0 km/h (2 Bft) NO 45 1 min 0,000 mm 1,6 UV-I 492 W/m 9,2 C 24,5 C 9,7 km/h (2 Bft) 95,65 %
09.08.2022 17:09 24,3 C 37 % 1022,5 hPa 0,0 l/m 4,8 km/h (1 Bft) N-NO 22 1 min 0,000 mm 1,5 UV-I 487 W/m 8,7 C 24,3 C 9,7 km/h (2 Bft) 100,00 %
09.08.2022 17:08 24,2 C 37 % 1022,6 hPa 0,0 l/m 4,8 km/h (1 Bft) NO 45 1 min 0,000 mm 1,6 UV-I 492 W/m 8,6 C 24,2 C 8,0 km/h (2 Bft) 100,00 %
09.08.2022 17:07 24,0 C 38 % 1022,6 hPa 0,0 l/m 6,4 km/h (2 Bft) N-NO 22 1 min 0,000 mm 1,6 UV-I 501 W/m 8,8 C 24,0 C 9,7 km/h (2 Bft) 100,00 %
09.08.2022 17:06 23,9 C 37 % 1022,6 hPa 0,0 l/m 4,8 km/h (1 Bft) O-NO 67 1 min 0,000 mm 1,6 UV-I 512 W/m 8,3 C 23,9 C 8,0 km/h (2 Bft) 95,65 %
09.08.2022 17:05 23,8 C 36 % 1022,7 hPa 0,0 l/m 4,8 km/h (1 Bft) NW 315 1 min 0,000 mm 1,5 UV-I 200 W/m 7,8 C 23,8 C 9,7 km/h (2 Bft) 100,00 %
09.08.2022 17:04 23,9 C 37 % 1022,6 hPa 0,0 l/m 8,0 km/h (2 Bft) NO 45 1 min 0,000 mm 1,3 UV-I 200 W/m 8,3 C 23,9 C 14,5 km/h (3 Bft) 100,00 %
09.08.2022 17:03 24,0 C 39 % 1022,6 hPa 0,0 l/m 4,8 km/h (1 Bft) N 360 0 min 0,000 mm 1,2 UV-I 109 W/m 9,2 C 24,0 C 8,0 km/h (2 Bft) 95,65 %
09.08.2022 17:02 24,2 C 37 % 1022,6 hPa 0,0 l/m 6,4 km/h (2 Bft) N-NO 22 0 min 0,000 mm 1,2 UV-I 104 W/m 8,6 C 24,2 C 11,3 km/h (2 Bft) 100,00 %
09.08.2022 17:01 24,3 C 36 % 1022,6 hPa 0,0 l/m 6,4 km/h (2 Bft) N-NO 22 0 min 0,000 mm 1,3 UV-I 105 W/m 8,3 C 24,3 C 11,3 km/h (2 Bft) 100,00 %
09.08.2022 17:00 24,5 C 35 % 1022,6 hPa 0,0 l/m 8,0 km/h (2 Bft) N 360 1 min 0,457 mm 1,4 UV-I 279 W/m 8,0 C 24,5 C 12,9 km/h (3 Bft) 100,00 %
09.08.2022 16:59 24,6 C 36 % 1022,6 hPa 0,0 l/m 9,7 km/h (2 Bft) NO 45 0 min 0,000 mm 1,3 UV-I 123 W/m 8,5 C 24,6 C 16,1 km/h (3 Bft) 100,00 %
09.08.2022 16:58 24,7 C 35 % 1022,6 hPa 0,0 l/m 9,7 km/h (2 Bft) O-NO 67 0 min 0,000 mm 1,2 UV-I 123 W/m 8,2 C 24,7 C 16,1 km/h (3 Bft) 100,00 %
09.08.2022 16:57 24,8 C 37 % 1022,6 hPa 0,0 l/m 8,0 km/h (2 Bft) N-NO 22 0 min 0,000 mm 1,3 UV-I 125 W/m 9,1 C 24,8 C 11,3 km/h (2 Bft) 100,00 %
09.08.2022 16:56 24,9 C 38 % 1022,6 hPa 0,0 l/m 8,0 km/h (2 Bft) O-NO 67 1 min 0,000 mm 1,7 UV-I 582 W/m 9,6 C 24,9 C 14,5 km/h (3 Bft) 95,65 %
09.08.2022 16:55 24,7 C 38 % 1022,6 hPa 0,0 l/m 8,0 km/h (2 Bft) O-NO 67 1 min 0,000 mm 1,8 UV-I 589 W/m 9,4 C 24,7 C 11,3 km/h (2 Bft) 100,00 %
09.08.2022 16:54 24,6 C 38 % 1022,6 hPa 0,0 l/m 4,8 km/h (1 Bft) NO 45 1 min 0,000 mm 1,8 UV-I 592 W/m 9,3 C 24,6 C 6,4 km/h (2 Bft) 100,00 %
09.08.2022 16:53 24,6 C 37 % 1022,6 hPa 0,0 l/m 6,4 km/h (2 Bft) N 360 1 min 0,000 mm 1,7 UV-I 548 W/m 8,9 C 24,6 C 8,0 km/h (2 Bft) 100,00 %
09.08.2022 16:52 24,5 C 40 % 1022,6 hPa 0,0 l/m 6,4 km/h (2 Bft) NO 45 1 min 0,000 mm 1,8 UV-I 274 W/m 10,0 C 24,5 C 9,7 km/h (2 Bft) 100,00 %
09.08.2022 16:51 24,4 C 39 % 1022,6 hPa 0,0 l/m 8,0 km/h (2 Bft) NO 45 1 min 0,000 mm 1,6 UV-I 274 W/m 9,5 C 24,4 C 12,9 km/h (3 Bft) 95,65 %
09.08.2022 16:50 24,4 C 38 % 1022,6 hPa 0,0 l/m 6,4 km/h (2 Bft) O-NO 67 1 min 0,000 mm 1,4 UV-I 214 W/m 9,2 C 24,4 C 8,0 km/h (2 Bft) 100,00 %
09.08.2022 16:49 24,3 C 39 % 1022,5 hPa 0,0 l/m 6,4 km/h (2 Bft) O-NO 67 1 min 0,000 mm 1,8 UV-I 181 W/m 9,4 C 24,3 C 8,0 km/h (2 Bft) 95,65 %
09.08.2022 16:48 24,1 C 37 % 1022,6 hPa 0,0 l/m 8,0 km/h (2 Bft) NO 45 1 min 0,000 mm 2,0 UV-I 181 W/m 8,5 C 24,1 C 11,3 km/h (2 Bft) 100,00 %
09.08.2022 16:47 24,2 C 37 % 1022,6 hPa 0,0 l/m 4,8 km/h (1 Bft) O-NO 67 1 min 0,000 mm 1,5 UV-I 181 W/m 8,6 C 24,2 C 9,7 km/h (2 Bft) 100,00 %
09.08.2022 16:46 24,3 C 37 % 1022,6 hPa 0,0 l/m 6,4 km/h (2 Bft) O-NO 67 1 min 0,000 mm 1,6 UV-I 216 W/m 8,7 C 24,3 C 11,3 km/h (2 Bft) 100,00 %
09.08.2022 16:45 24,4 C 36 % 1022,5 hPa 0,0 l/m 6,4 km/h (2 Bft) O-NO 67 1 min 0,000 mm 1,4 UV-I 174 W/m 8,4 C 24,4 C 11,3 km/h (2 Bft) 100,00 %
09.08.2022 16:44 24,6 C 36 % 1022,6 hPa 0,0 l/m 9,7 km/h (2 Bft) O 90 1 min 0,000 mm 1,4 UV-I 183 W/m 8,5 C 24,6 C 16,1 km/h (3 Bft) 100,00 %
09.08.2022 16:43 24,7 C 36 % 1022,5 hPa 0,0 l/m 12,9 km/h (3 Bft) O-NO 67 1 min 0,000 mm 1,4 UV-I 195 W/m 8,6 C 24,7 C 19,3 km/h (3 Bft) 100,00 %
09.08.2022 16:42 24,9 C 35 % 1022,5 hPa 0,0 l/m 4,8 km/h (1 Bft) O-NO 67 1 min 0,000 mm 1,4 UV-I 190 W/m 8,4 C 24,9 C 9,7 km/h (2 Bft) 95,65 %
09.08.2022 16:41 25,1 C 35 % 1022,5 hPa 0,0 l/m 8,0 km/h (2 Bft) O-NO 67 1 min 0,000 mm 1,4 UV-I 230 W/m 8,6 C 25,1 C 11,3 km/h (2 Bft) 100,00 %
09.08.2022 16:40 25,2 C 35 % 1022,5 hPa 0,0 l/m 8,0 km/h (2 Bft) O-NO 67 1 min 0,000 mm 1,6 UV-I 230 W/m 8,6 C 25,2 C 12,9 km/h (3 Bft) 100,00 %
09.08.2022 16:39 25,4 C 35 % 1022,5 hPa 0,0 l/m 8,0 km/h (2 Bft) O-NO 67 1 min 0,000 mm 1,8 UV-I 230 W/m 8,8 C 25,4 C 14,5 km/h (3 Bft) 100,00 %
09.08.2022 16:38 25,5 C 36 % 1022,5 hPa 0,0 l/m 9,7 km/h (2 Bft) O-SO 112 1 min 0,000 mm 1,6 UV-I 213 W/m 9,3 C 25,5 C 16,1 km/h (3 Bft) 100,00 %
09.08.2022 16:37 25,5 C 37 % 1022,6 hPa 0,0 l/m 9,7 km/h (2 Bft) O-SO 112 1 min 0,000 mm 2,1 UV-I 714 W/m 9,7 C 25,5 C 12,9 km/h (3 Bft) 95,65 %
09.08.2022 16:36 25,4 C 36 % 1022,6 hPa 0,0 l/m 6,4 km/h (2 Bft) O-NO 67 1 min 0,000 mm 2,3 UV-I 722 W/m 9,2 C 25,4 C 12,9 km/h (3 Bft) 95,65 %
09.08.2022 16:35 25,6 C 34 % 1022,5 hPa 0,0 l/m 8,0 km/h (2 Bft) O 90 1 min 0,000 mm 2,4 UV-I 710 W/m 8,6 C 25,6 C 11,3 km/h (2 Bft) 95,65 %
09.08.2022 16:34 25,7 C 35 % 1022,6 hPa 0,0 l/m 8,0 km/h (2 Bft) O-NO 67 1 min 0,000 mm 2,4 UV-I 717 W/m 9,1 C 25,7 C 14,5 km/h (3 Bft) 100,00 %
09.08.2022 16:33 25,8 C 37 % 1022,5 hPa 0,0 l/m 11,3 km/h (2 Bft) O-NO 67 1 min 0,000 mm 2,5 UV-I 712 W/m 10,0 C 25,8 C 17,7 km/h (3 Bft) 100,00 %
09.08.2022 16:32 25,8 C 37 % 1022,5 hPa 0,0 l/m 11,3 km/h (2 Bft) O 90 1 min 0,000 mm 2,5 UV-I 707 W/m 10,0 C 25,8 C 17,7 km/h (3 Bft) 95,65 %
09.08.2022 16:31 25,7 C 40 % 1022,6 hPa 0,0 l/m 9,7 km/h (2 Bft) O 90 1 min 0,000 mm 2,5 UV-I 691 W/m 11,1 C 25,7 C 14,5 km/h (3 Bft) 95,65 %
09.08.2022 16:30 25,5 C 37 % 1022,6 hPa 0,0 l/m 6,4 km/h (2 Bft) O-SO 112 1 min 0,000 mm 2,5 UV-I 679 W/m 9,7 C 25,5 C 12,9 km/h (3 Bft) 95,65 %
09.08.2022 16:29 25,4 C 35 % 1022,5 hPa 0,0 l/m 3,2 km/h (1 Bft) O-NO 67 1 min 0,000 mm 2,5 UV-I 679 W/m 8,8 C 25,4 C 4,8 km/h (1 Bft) 100,00 %
09.08.2022 16:28 25,3 C 33 % 1022,5 hPa 0,0 l/m 4,8 km/h (1 Bft) O-NO 67 1 min 0,000 mm 2,5 UV-I 675 W/m 7,9 C 25,3 C 8,0 km/h (2 Bft) 91,30 %
09.08.2022 16:27 25,5 C 34 % 1022,6 hPa 0,0 l/m 4,8 km/h (1 Bft) O-NO 67 1 min 0,000 mm 2,6 UV-I 677 W/m 8,5 C 25,5 C 11,3 km/h (2 Bft) 100,00 %
09.08.2022 16:26 25,5 C 35 % 1022,6 hPa 0,0 l/m 4,8 km/h (1 Bft) O-NO 67 1 min 0,000 mm 2,6 UV-I 673 W/m 8,9 C 25,5 C 8,0 km/h (2 Bft) 95,65 %
09.08.2022 16:25 25,5 C 35 % 1022,6 hPa 0,0 l/m 3,2 km/h (1 Bft) O-NO 67 1 min 0,000 mm 2,6 UV-I 666 W/m 8,9 C 25,5 C 4,8 km/h (1 Bft) 100,00 %
09.08.2022 16:24 25,6 C 36 % 1022,6 hPa 0,0 l/m 4,8 km/h (1 Bft) N 360 1 min 0,000 mm 2,6 UV-I 664 W/m 9,4 C 25,6 C 6,4 km/h (2 Bft) 95,65 %
09.08.2022 16:23 25,6 C 36 % 1022,6 hPa 0,0 l/m 8,0 km/h (2 Bft) N-NO 22 1 min 0,000 mm 2,6 UV-I 664 W/m 9,4 C 25,6 C 12,9 km/h (3 Bft) 95,65 %
09.08.2022 16:22 25,6 C 34 % 1022,6 hPa 0,0 l/m 8,0 km/h (2 Bft) N 360 1 min 0,000 mm 2,6 UV-I 664 W/m 8,6 C 25,6 C 12,9 km/h (3 Bft) 100,00 %
09.08.2022 16:21 25,5 C 35 % 1022,6 hPa 0,0 l/m 6,4 km/h (2 Bft) O-NO 67 1 min 0,000 mm 2,7 UV-I 664 W/m 8,9 C 25,5 C 9,7 km/h (2 Bft) 82,61 %
09.08.2022 16:20 25,4 C 33 % 1022,6 hPa 0,0 l/m 11,3 km/h (2 Bft) O-NO 67 1 min 0,000 mm 2,7 UV-I 670 W/m 7,9 C 25,4 C 14,5 km/h (3 Bft) 100,00 %
09.08.2022 16:19 25,4 C 33 % 1022,6 hPa 0,0 l/m 16,1 km/h (3 Bft) NO 45 1 min 0,000 mm 2,7 UV-I 684 W/m 7,9 C 25,4 C 19,3 km/h (3 Bft) 95,65 %
09.08.2022 16:18 25,5 C 34 % 1022,6 hPa 0,0 l/m 8,0 km/h (2 Bft) O-NO 67 1 min 0,000 mm 2,7 UV-I 693 W/m 8,5 C 25,5 C 14,5 km/h (3 Bft) 100,00 %
09.08.2022 16:17 25,5 C 35 % 1022,6 hPa 0,0 l/m 8,0 km/h (2 Bft) O-NO 67 1 min 0,000 mm 2,8 UV-I 694 W/m 8,9 C 25,5 C 11,3 km/h (2 Bft) 95,65 %
09.08.2022 16:16 25,5 C 35 % 1022,7 hPa 0,0 l/m 8,0 km/h (2 Bft) O 90 1 min 0,000 mm 2,8 UV-I 705 W/m 8,9 C 25,5 C 12,9 km/h (3 Bft) 95,65 %
09.08.2022 16:15 25,6 C 37 % 1022,7 hPa 0,0 l/m 8,0 km/h (2 Bft) N-NO 22 1 min 0,000 mm 2,9 UV-I 710 W/m 9,8 C 25,6 C 14,5 km/h (3 Bft) 100,00 %
09.08.2022 16:14 25,4 C 37 % 1022,7 hPa 0,0 l/m 9,7 km/h (2 Bft) NO 45 1 min 0,000 mm 2,9 UV-I 726 W/m 9,6 C 25,4 C 14,5 km/h (3 Bft) 91,30 %
09.08.2022 16:13 25,3 C 35 % 1022,7 hPa 0,0 l/m 8,0 km/h (2 Bft) O-NO 67 1 min 0,000 mm 2,9 UV-I 729 W/m 8,7 C 25,3 C 14,5 km/h (3 Bft) 100,00 %
09.08.2022 16:12 25,2 C 39 % 1022,7 hPa 0,0 l/m 3,2 km/h (1 Bft) O-SO 112 1 min 0,000 mm 2,9 UV-I 733 W/m 10,2 C 25,2 C 8,0 km/h (2 Bft) 95,65 %
09.08.2022 16:11 25,3 C 34 % 1022,7 hPa 0,0 l/m 4,8 km/h (1 Bft) O-SO 112 1 min 0,000 mm 2,9 UV-I 737 W/m 8,3 C 25,3 C 9,7 km/h (2 Bft) 100,00 %
09.08.2022 16:10 25,2 C 37 % 1022,7 hPa 0,0 l/m 4,8 km/h (1 Bft) O-SO 112 1 min 0,000 mm 3,0 UV-I 744 W/m 9,5 C 25,2 C 6,4 km/h (2 Bft) 100,00 %
09.08.2022 16:09 25,1 C 37 % 1022,7 hPa 0,0 l/m 6,4 km/h (2 Bft) O-SO 112 1 min 0,000 mm 3,0 UV-I 756 W/m 9,4 C 25,1 C 11,3 km/h (2 Bft) 100,00 %
09.08.2022 16:08 25,1 C 35 % 1022,6 hPa 0,0 l/m 3,2 km/h (1 Bft) O-SO 112 1 min 0,000 mm 3,0 UV-I 703 W/m 8,6 C 25,1 C 6,4 km/h (2 Bft) 100,00 %
09.08.2022 16:07 25,0 C 35 % 1022,7 hPa 0,0 l/m 8,0 km/h (2 Bft) O-SO 112 1 min 0,000 mm 2,9 UV-I 703 W/m 8,5 C 25,0 C 11,3 km/h (2 Bft) 95,65 %
09.08.2022 16:06 25,0 C 36 % 1022,7 hPa 0,0 l/m 6,4 km/h (2 Bft) O-SO 112 1 min 0,000 mm 2,9 UV-I 703 W/m 8,9 C 25,0 C 11,3 km/h (2 Bft) 100,00 %
09.08.2022 16:05 24,9 C 38 % 1022,6 hPa 0,0 l/m 1,6 km/h (1 Bft) O 90 1 min 0,000 mm 3,0 UV-I 759 W/m 9,6 C 24,9 C 3,2 km/h (1 Bft) 100,00 %
09.08.2022 16:04 24,9 C 37 % 1022,6 hPa 0,0 l/m 3,2 km/h (1 Bft) S-SO 157 1 min 0,000 mm 3,1 UV-I 761 W/m 9,2 C 24,9 C 8,0 km/h (2 Bft) 100,00 %
09.08.2022 16:03 24,9 C 39 % 1022,6 hPa 0,0 l/m 8,0 km/h (2 Bft) O 90 1 min 0,000 mm 2,8 UV-I 742 W/m 10,0 C 24,9 C 11,3 km/h (2 Bft) 100,00 %
09.08.2022 16:02 25,0 C 38 % 1022,6 hPa 0,0 l/m 3,2 km/h (1 Bft) O-SO 112 1 min 0,000 mm 3,1 UV-I 721 W/m 9,7 C 25,0 C 6,4 km/h (2 Bft) 100,00 %
09.08.2022 16:01 25,1 C 36 % 1022,6 hPa 0,0 l/m 6,4 km/h (2 Bft) O-SO 112 1 min 0,000 mm 2,2 UV-I 740 W/m 9,0 C 25,1 C 11,3 km/h (2 Bft) 100,00 %
09.08.2022 16:00 25,1 C 41 % 1022,6 hPa 0,0 l/m 1,6 km/h (1 Bft) N-NO 22 1 min 0,457 mm 2,4 UV-I 740 W/m 10,9 C 25,1 C 6,4 km/h (2 Bft) 95,65 %
09.08.2022 15:59 25,0 C 38 % 1022,6 hPa 0,0 l/m 1,6 km/h (1 Bft) N-NO 22 1 min 0,000 mm 2,9 UV-I 740 W/m 9,7 C 25,0 C 4,8 km/h (1 Bft) 100,00 %
09.08.2022 15:58 24,9 C 39 % 1022,6 hPa 0,0 l/m 3,2 km/h (1 Bft) O-SO 112 1 min 0,000 mm 3,0 UV-I 740 W/m 10,0 C 24,9 C 4,8 km/h (1 Bft) 100,00 %
09.08.2022 15:57 24,8 C 35 % 1022,5 hPa 0,0 l/m 3,2 km/h (1 Bft) O-NO 67 1 min 0,000 mm 3,0 UV-I 740 W/m 8,3 C 24,8 C 4,8 km/h (1 Bft) 100,00 %
09.08.2022 15:56 24,8 C 36 % 1022,6 hPa 0,0 l/m 6,4 km/h (2 Bft) O 90 1 min 0,000 mm 2,5 UV-I 754 W/m 8,7 C 24,8 C 12,9 km/h (3 Bft) 95,65 %
09.08.2022 15:55 24,7 C 37 % 1022,5 hPa 0,0 l/m 9,7 km/h (2 Bft) O-NO 67 1 min 0,000 mm 3,1 UV-I 754 W/m 9,0 C 24,7 C 16,1 km/h (3 Bft) 100,00 %
09.08.2022 15:54 24,6 C 35 % 1022,5 hPa 0,0 l/m 4,8 km/h (1 Bft) O-SO 112 1 min 0,000 mm 3,1 UV-I 763 W/m 8,1 C 24,6 C 6,4 km/h (2 Bft) 100,00 %
09.08.2022 15:53 24,6 C 36 % 1022,5 hPa 0,0 l/m 3,2 km/h (1 Bft) O-SO 112 1 min 0,000 mm 3,2 UV-I 766 W/m 8,5 C 24,6 C 3,2 km/h (1 Bft) 95,65 %
09.08.2022 15:52 24,5 C 36 % 1022,5 hPa 0,0 l/m 4,8 km/h (1 Bft) O 90 1 min 0,000 mm 3,2 UV-I 768 W/m 8,4 C 24,5 C 6,4 km/h (2 Bft) 100,00 %
09.08.2022 15:51 24,4 C 37 % 1022,5 hPa 0,0 l/m 3,2 km/h (1 Bft) O-NO 67 1 min 0,000 mm 3,2 UV-I 765 W/m 8,8 C 24,4 C 6,4 km/h (2 Bft) 95,65 %
09.08.2022 15:50 24,2 C 39 % 1022,5 hPa 0,0 l/m 4,8 km/h (1 Bft) O-NO 67 1 min 0,000 mm 3,2 UV-I 197 W/m 9,4 C 24,2 C 6,4 km/h (2 Bft) 95,65 %
09.08.2022 15:49 24,2 C 38 % 1022,6 hPa 0,0 l/m 6,4 km/h (2 Bft) O 90 1 min 0,000 mm 3,1 UV-I 197 W/m 9,0 C 24,2 C 9,7 km/h (2 Bft) 100,00 %
09.08.2022 15:48 24,3 C 37 % 1022,6 hPa 0,0 l/m 9,7 km/h (2 Bft) O 90 1 min 0,000 mm 2,4 UV-I 197 W/m 8,7 C 24,3 C 14,5 km/h (3 Bft) 100,00 %
09.08.2022 15:47 24,3 C 36 % 1022,6 hPa 0,0 l/m 3,2 km/h (1 Bft) O 90 1 min 0,000 mm 2,1 UV-I 174 W/m 8,3 C 24,3 C 6,4 km/h (2 Bft) 100,00 %
09.08.2022 15:46 24,4 C 37 % 1022,6 hPa 0,0 l/m 6,4 km/h (2 Bft) O-NO 67 1 min 0,000 mm 2,0 UV-I 165 W/m 8,8 C 24,4 C 12,9 km/h (3 Bft) 95,65 %
09.08.2022 15:45 24,5 C 38 % 1022,6 hPa 0,0 l/m 3,2 km/h (1 Bft) O-NO 67 1 min 0,000 mm 2,0 UV-I 162 W/m 9,2 C 24,5 C 4,8 km/h (1 Bft) 100,00 %
09.08.2022 15:44 24,4 C 41 % 1022,6 hPa 0,0 l/m 3,2 km/h (1 Bft) O-NO 67 1 min 0,000 mm 3,3 UV-I 770 W/m 10,3 C 24,4 C 6,4 km/h (2 Bft) 100,00 %
09.08.2022 15:43 24,2 C 37 % 1022,5 hPa 0,0 l/m 1,6 km/h (1 Bft) O-NO 67 1 min 0,000 mm 3,4 UV-I 192 W/m 8,6 C 24,2 C 3,2 km/h (1 Bft) 100,00 %
09.08.2022 15:42 24,3 C 36 % 1022,6 hPa 0,0 l/m 3,2 km/h (1 Bft) O-NO 67 1 min 0,000 mm 2,4 UV-I 192 W/m 8,3 C 24,3 C 3,2 km/h (1 Bft) 100,00 %
09.08.2022 15:41 24,2 C 37 % 1022,6 hPa 0,0 l/m 4,8 km/h (1 Bft) O-NO 67 1 min 0,000 mm 2,1 UV-I 824 W/m 8,6 C 24,2 C 8,0 km/h (2 Bft) 100,00 %
09.08.2022 15:40 24,1 C 38 % 1022,6 hPa 0,0 l/m 11,3 km/h (2 Bft) NO 45 1 min 0,000 mm 3,4 UV-I 824 W/m 8,9 C 24,1 C 14,5 km/h (3 Bft) 95,65 %
09.08.2022 15:39 23,9 C 39 % 1022,5 hPa 0,0 l/m 12,9 km/h (3 Bft) O-NO 67 1 min 0,000 mm 3,5 UV-I 824 W/m 9,1 C 23,9 C 16,1 km/h (3 Bft) 95,65 %
09.08.2022 15:38 23,8 C 38 % 1022,5 hPa 0,0 l/m 12,9 km/h (3 Bft) O-NO 67 1 min 0,000 mm 3,3 UV-I 223 W/m 8,6 C 23,8 C 17,7 km/h (3 Bft) 100,00 %
09.08.2022 15:37 23,8 C 37 % 1022,5 hPa 0,0 l/m 8,0 km/h (2 Bft) O-NO 67 1 min 0,000 mm 2,3 UV-I 223 W/m 8,2 C 23,8 C 11,3 km/h (2 Bft) 100,00 %
09.08.2022 15:36 24,0 C 37 % 1022,6 hPa 0,0 l/m 9,7 km/h (2 Bft) N-NW 337 1 min 0,000 mm 2,3 UV-I 227 W/m 8,4 C 24,0 C 16,1 km/h (3 Bft) 95,65 %
09.08.2022 15:35 24,1 C 36 % 1022,6 hPa 0,0 l/m 12,9 km/h (3 Bft) NO 45 1 min 0,000 mm 2,3 UV-I 230 W/m 8,1 C 24,1 C 17,7 km/h (3 Bft) 100,00 %
09.08.2022 15:34 24,2 C 37 % 1022,6 hPa 0,0 l/m 12,9 km/h (3 Bft) NO 45 1 min 0,000 mm 2,3 UV-I 229 W/m 8,6 C 24,2 C 16,1 km/h (3 Bft) 100,00 %
09.08.2022 15:33 24,3 C 38 % 1022,6 hPa 0,0 l/m 9,7 km/h (2 Bft) NO 45 1 min 0,000 mm 2,3 UV-I 225 W/m 9,1 C 24,3 C 19,3 km/h (3 Bft) 100,00 %
09.08.2022 15:32 24,5 C 38 % 1022,5 hPa 0,0 l/m 9,7 km/h (2 Bft) O-NO 67 1 min 0,000 mm 2,3 UV-I 232 W/m 9,2 C 24,5 C 14,5 km/h (3 Bft) 95,65 %
09.08.2022 15:31 24,7 C 37 % 1022,5 hPa 0,0 l/m 9,7 km/h (2 Bft) O-NO 67 1 min 0,000 mm 2,3 UV-I 230 W/m 9,0 C 24,7 C 16,1 km/h (3 Bft) 100,00 %
09.08.2022 15:30 24,8 C 36 % 1022,5 hPa 0,0 l/m 3,2 km/h (1 Bft) O 90 1 min 0,000 mm 2,3 UV-I 227 W/m 8,7 C 24,8 C 4,8 km/h (1 Bft) 100,00 %
09.08.2022 15:29 25,0 C 37 % 1022,5 hPa 0,0 l/m 8,0 km/h (2 Bft) O-NO 67 1 min 0,000 mm 2,8 UV-I 241 W/m 9,3 C 25,0 C 12,9 km/h (3 Bft) 100,00 %
09.08.2022 15:28 25,1 C 38 % 1022,5 hPa 0,0 l/m 8,0 km/h (2 Bft) O-NO 67 1 min 0,000 mm 2,7 UV-I 338 W/m 9,8 C 25,1 C 14,5 km/h (3 Bft) 100,00 %
09.08.2022 15:27 25,2 C 36 % 1022,5 hPa 0,0 l/m 4,8 km/h (1 Bft) N-NO 22 1 min 0,000 mm 2,9 UV-I 529 W/m 9,1 C 25,2 C 6,4 km/h (2 Bft) 100,00 %
09.08.2022 15:26 25,2 C 36 % 1022,5 hPa 0,0 l/m 9,7 km/h (2 Bft) O-SO 112 1 min 0,000 mm 3,3 UV-I 529 W/m 9,1 C 25,2 C 16,1 km/h (3 Bft) 100,00 %
09.08.2022 15:25 25,2 C 37 % 1022,5 hPa 0,0 l/m 9,7 km/h (2 Bft) O-SO 112 1 min 0,000 mm 3,2 UV-I 854 W/m 9,5 C 25,2 C 12,9 km/h (3 Bft) 95,65 %
09.08.2022 15:24 25,1 C 38 % 1022,5 hPa 0,0 l/m 6,4 km/h (2 Bft) O 90 1 min 0,000 mm 4,0 UV-I 854 W/m 9,8 C 25,1 C 9,7 km/h (2 Bft) 100,00 %
09.08.2022 15:23 25,0 C 36 % 1022,5 hPa 0,0 l/m 4,8 km/h (1 Bft) O-SO 112 1 min 0,000 mm 4,1 UV-I 846 W/m 8,9 C 25,0 C 9,7 km/h (2 Bft) 100,00 %
09.08.2022 15:22 25,0 C 37 % 1022,5 hPa 0,0 l/m 6,4 km/h (2 Bft) O 90 1 min 0,000 mm 4,1 UV-I 831 W/m 9,3 C 25,0 C 9,7 km/h (2 Bft) 100,00 %
09.08.2022 15:21 25,0 C 37 % 1022,5 hPa 0,0 l/m 6,4 km/h (2 Bft) O 90 1 min 0,000 mm 4,1 UV-I 803 W/m 9,3 C 25,0 C 11,3 km/h (2 Bft) 95,65 %
09.08.2022 15:20 25,1 C 34 % 1022,5 hPa 0,0 l/m 3,2 km/h (1 Bft) SO 135 1 min 0,000 mm 4,1 UV-I 789 W/m 8,1 C 25,1 C 6,4 km/h (2 Bft) 95,65 %
09.08.2022 15:19 25,2 C 37 % 1022,5 hPa 0,0 l/m 3,2 km/h (1 Bft) O-SO 112 1 min 0,000 mm 4,1 UV-I 777 W/m 9,5 C 25,2 C 6,4 km/h (2 Bft) 100,00 %
09.08.2022 15:18 25,1 C 40 % 1022,5 hPa 0,0 l/m 3,2 km/h (1 Bft) O 90 1 min 0,000 mm 4,1 UV-I 768 W/m 10,5 C 25,1 C 4,8 km/h (1 Bft) 91,30 %
09.08.2022 15:17 24,9 C 39 % 1022,5 hPa 0,0 l/m 4,8 km/h (1 Bft) O-SO 112 1 min 0,000 mm 4,1 UV-I 765 W/m 10,0 C 24,9 C 6,4 km/h (2 Bft) 100,00 %
09.08.2022 15:16 24,7 C 38 % 1022,5 hPa 0,0 l/m 6,4 km/h (2 Bft) O 90 1 min 0,000 mm 4,1 UV-I 766 W/m 9,4 C 24,7 C 9,7 km/h (2 Bft) 95,65 %
09.08.2022 15:15 24,5 C 39 % 1022,5 hPa 0,0 l/m 4,8 km/h (1 Bft) O-SO 112 1 min 0,000 mm 4,1 UV-I 770 W/m 9,6 C 24,5 C 9,7 km/h (2 Bft) 100,00 %
09.08.2022 15:14 24,4 C 37 % 1022,5 hPa 0,0 l/m 6,4 km/h (2 Bft) O-NO 67 1 min 0,000 mm 4,2 UV-I 772 W/m 8,8 C 24,4 C 11,3 km/h (2 Bft) 95,65 %
09.08.2022 15:13 24,3 C 38 % 1022,5 hPa 0,0 l/m 4,8 km/h (1 Bft) W-SW 247 1 min 0,000 mm 4,2 UV-I 773 W/m 9,1 C 24,3 C 9,7 km/h (2 Bft) 95,65 %
09.08.2022 15:12 24,3 C 39 % 1022,5 hPa 0,0 l/m 1,6 km/h (1 Bft) W-SW 247 1 min 0,000 mm 4,2 UV-I 789 W/m 9,4 C 24,3 C 6,4 km/h (2 Bft) 100,00 %
09.08.2022 15:11 24,3 C 36 % 1022,5 hPa 0,0 l/m 4,8 km/h (1 Bft) N-NO 22 1 min 0,000 mm 4,1 UV-I 489 W/m 8,3 C 24,3 C 6,4 km/h (2 Bft) 86,96 %
09.08.2022 15:10 24,3 C 36 % 1022,5 hPa 0,0 l/m 6,4 km/h (2 Bft) W-NW 292 1 min 0,000 mm 3,9 UV-I 489 W/m 8,3 C 24,3 C 9,7 km/h (2 Bft) 100,00 %
09.08.2022 15:09 24,5 C 35 % 1022,5 hPa 0,0 l/m 6,4 km/h (2 Bft) W-NW 292 1 min 0,000 mm 2,3 UV-I 724 W/m 8,0 C 24,5 C 6,4 km/h (2 Bft) 95,65 %
09.08.2022 15:08 24,7 C 35 % 1022,6 hPa 0,0 l/m 4,8 km/h (1 Bft) W-SW 247 1 min 0,000 mm 4,0 UV-I 724 W/m 8,2 C 24,7 C 6,4 km/h (2 Bft) 100,00 %
09.08.2022 15:07 24,8 C 36 % 1022,6 hPa 0,0 l/m 4,8 km/h (1 Bft) N 360 1 min 0,000 mm 3,3 UV-I 724 W/m 8,7 C 24,8 C 8,0 km/h (2 Bft) 95,65 %
09.08.2022 15:06 24,8 C 35 % 1022,6 hPa 0,0 l/m 3,2 km/h (1 Bft) NO 45 1 min 0,000 mm 4,3 UV-I 780 W/m 8,3 C 24,8 C 8,0 km/h (2 Bft) 91,30 %
09.08.2022 15:05 24,8 C 36 % 1022,5 hPa 0,0 l/m 8,0 km/h (2 Bft) O-NO 67 1 min 0,000 mm 4,3 UV-I 780 W/m 8,7 C 24,8 C 9,7 km/h (2 Bft) 100,00 %
09.08.2022 15:04 24,8 C 34 % 1022,6 hPa 0,0 l/m 9,7 km/h (2 Bft) NO 45 1 min 0,000 mm 4,3 UV-I 777 W/m 7,9 C 24,8 C 11,3 km/h (2 Bft) 95,65 %
09.08.2022 15:03 24,8 C 35 % 1022,6 hPa 0,0 l/m 11,3 km/h (2 Bft) O-NO 67 1 min 0,000 mm 4,3 UV-I 763 W/m 8,3 C 24,8 C 14,5 km/h (3 Bft) 95,65 %
09.08.2022 15:02 24,8 C 38 % 1022,5 hPa 0,0 l/m 6,4 km/h (2 Bft) O-SO 112 1 min 0,000 mm 4,4 UV-I 766 W/m 9,5 C 24,8 C 14,5 km/h (3 Bft) 95,65 %
09.08.2022 15:01 24,8 C 34 % 1022,6 hPa 0,0 l/m 6,4 km/h (2 Bft) O 90 1 min 0,000 mm 4,4 UV-I 772 W/m 7,9 C 24,8 C 9,7 km/h (2 Bft) 100,00 %
09.08.2022 15:00 24,9 C 38 % 1022,6 hPa 0,0 l/m 4,8 km/h (1 Bft) NO 45 1 min 0,584 mm 4,4 UV-I 770 W/m 9,6 C 24,9 C 6,4 km/h (2 Bft) 95,65 %
09.08.2022 14:59 24,7 C 40 % 1022,6 hPa 0,0 l/m 4,8 km/h (1 Bft) O-NO 67 1 min 0,000 mm 4,4 UV-I 773 W/m 10,2 C 24,7 C 9,7 km/h (2 Bft) 100,00 %
09.08.2022 14:58 24,7 C 35 % 1022,5 hPa 0,0 l/m 6,4 km/h (2 Bft) O-NO 67 1 min 0,000 mm 4,5 UV-I 782 W/m 8,2 C 24,7 C 11,3 km/h (2 Bft) 95,65 %
09.08.2022 14:57 24,6 C 39 % 1022,6 hPa 0,0 l/m 9,7 km/h (2 Bft) O-NO 67 1 min 0,000 mm 4,5 UV-I 789 W/m 9,7 C 24,6 C 17,7 km/h (3 Bft) 100,00 %
09.08.2022 14:56 24,5 C 40 % 1022,6 hPa 0,0 l/m 3,2 km/h (1 Bft) O-NO 67 1 min 0,000 mm 4,5 UV-I 798 W/m 10,0 C 24,5 C 4,8 km/h (1 Bft) 95,65 %
09.08.2022 14:55 24,4 C 36 % 1022,7 hPa 0,0 l/m 4,8 km/h (1 Bft) O-NO 67 1 min 0,000 mm 4,6 UV-I 803 W/m 8,4 C 24,4 C 8,0 km/h (2 Bft) 100,00 %
09.08.2022 14:54 24,4 C 37 % 1022,6 hPa 0,0 l/m 6,4 km/h (2 Bft) O-NO 67 1 min 0,000 mm 4,5 UV-I 803 W/m 8,8 C 24,4 C 11,3 km/h (2 Bft) 100,00 %
09.08.2022 14:53 24,4 C 37 % 1022,7 hPa 0,0 l/m 6,4 km/h (2 Bft) O-NO 67 1 min 0,000 mm 4,6 UV-I 803 W/m 8,8 C 24,4 C 9,7 km/h (2 Bft) 100,00 %
09.08.2022 14:52 24,2 C 39 % 1022,7 hPa 0,0 l/m 9,7 km/h (2 Bft) O-NO 67 1 min 0,000 mm 4,5 UV-I 798 W/m 9,4 C 24,2 C 14,5 km/h (3 Bft) 100,00 %
09.08.2022 14:51 24,0 C 37 % 1022,8 hPa 0,0 l/m 8,0 km/h (2 Bft) NO 45 1 min 0,000 mm 4,6 UV-I 795 W/m 8,4 C 24,0 C 12,9 km/h (3 Bft) 100,00 %
09.08.2022 14:50 23,9 C 38 % 1022,8 hPa 0,0 l/m 1,6 km/h (1 Bft) O 90 1 min 0,000 mm 4,6 UV-I 791 W/m 8,7 C 23,9 C 3,2 km/h (1 Bft) 100,00 %
09.08.2022 14:49 23,9 C 37 % 1022,8 hPa 0,0 l/m 0,0 km/h (0 Bft) S-SO 157 1 min 0,000 mm 4,7 UV-I 835 W/m 8,3 C 23,9 C 1,6 km/h (1 Bft) 95,65 %
09.08.2022 14:48 24,1 C 38 % 1022,8 hPa 0,0 l/m 1,6 km/h (1 Bft) S-SO 157 1 min 0,000 mm 3,5 UV-I 835 W/m 8,9 C 24,1 C 6,4 km/h (2 Bft) 100,00 %
09.08.2022 14:47 24,1 C 39 % 1022,8 hPa 0,0 l/m 8,0 km/h (2 Bft) S-SO 157 1 min 0,000 mm 4,8 UV-I 835 W/m 9,3 C 24,1 C 11,3 km/h (2 Bft) 100,00 %
09.08.2022 14:46 24,1 C 40 % 1022,9 hPa 0,0 l/m 8,0 km/h (2 Bft) S 180 1 min 0,000 mm 4,6 UV-I 603 W/m 9,6 C 24,1 C 12,9 km/h (3 Bft) 100,00 %
09.08.2022 14:45 24,2 C 38 % 1022,9 hPa 0,0 l/m 6,4 km/h (2 Bft) S 180 1 min 0,000 mm 3,7 UV-I 603 W/m 9,0 C 24,2 C 11,3 km/h (2 Bft) 100,00 %
09.08.2022 14:44 24,3 C 38 % 1022,9 hPa 0,0 l/m 4,8 km/h (1 Bft) S-SO 157 1 min 0,000 mm 3,1 UV-I 603 W/m 9,1 C 24,3 C 9,7 km/h (2 Bft) 100,00 %
09.08.2022 14:43 24,4 C 36 % 1022,9 hPa 0,0 l/m 8,0 km/h (2 Bft) S-SO 157 1 min 0,000 mm 3,8 UV-I 603 W/m 8,4 C 24,4 C 11,3 km/h (2 Bft) 100,00 %
09.08.2022 14:42 24,3 C 38 % 1023,0 hPa 0,0 l/m 9,7 km/h (2 Bft) S-SW 202 1 min 0,000 mm 4,8 UV-I 824 W/m 9,1 C 24,3 C 12,9 km/h (3 Bft) 95,65 %
09.08.2022 14:41 24,2 C 39 % 1023,0 hPa 0,0 l/m 11,3 km/h (2 Bft) S 180 1 min 0,000 mm 4,7 UV-I 824 W/m 9,4 C 24,2 C 17,7 km/h (3 Bft) 95,65 %
09.08.2022 14:40 24,1 C 41 % 1023,0 hPa 0,0 l/m 1,6 km/h (1 Bft) S-SW 202 1 min 0,000 mm 4,8 UV-I 809 W/m 10,0 C 24,1 C 3,2 km/h (1 Bft) 100,00 %
09.08.2022 14:39 24,0 C 35 % 1023,0 hPa 0,0 l/m 1,6 km/h (1 Bft) S 180 1 min 0,000 mm 4,8 UV-I 800 W/m 7,6 C 24,0 C 3,2 km/h (1 Bft) 100,00 %
09.08.2022 14:38 24,0 C 37 % 1022,9 hPa 0,0 l/m 1,6 km/h (1 Bft) S 180 1 min 0,000 mm 4,8 UV-I 779 W/m 8,4 C 24,0 C 3,2 km/h (1 Bft) 100,00 %
09.08.2022 14:37 24,1 C 34 % 1023,0 hPa 0,0 l/m 1,6 km/h (1 Bft) S-SW 202 1 min 0,000 mm 4,8 UV-I 800 W/m 7,2 C 24,1 C 3,2 km/h (1 Bft) 100,00 %
09.08.2022 14:36 24,3 C 36 % 1023,0 hPa 0,0 l/m 3,2 km/h (1 Bft) S-SW 202 1 min 0,000 mm 4,8 UV-I 788 W/m 8,3 C 24,3 C 4,8 km/h (1 Bft) 100,00 %
09.08.2022 14:35 24,4 C 35 % 1023,0 hPa 0,0 l/m 3,2 km/h (1 Bft) O-SO 112 1 min 0,000 mm 4,8 UV-I 786 W/m 7,9 C 24,4 C 4,8 km/h (1 Bft) 95,65 %
09.08.2022 14:34 24,3 C 37 % 1022,9 hPa 0,0 l/m 4,8 km/h (1 Bft) O-SO 112 1 min 0,000 mm 2,8 UV-I 775 W/m 8,7 C 24,3 C 6,4 km/h (2 Bft) 100,00 %
09.08.2022 14:33 24,3 C 40 % 1022,9 hPa 0,0 l/m 4,8 km/h (1 Bft) O 90 1 min 0,000 mm 4,9 UV-I 775 W/m 9,8 C 24,3 C 9,7 km/h (2 Bft) 100,00 %
09.08.2022 14:32 24,3 C 40 % 1023,0 hPa 0,0 l/m 9,7 km/h (2 Bft) S 180 1 min 0,000 mm 4,9 UV-I 772 W/m 9,8 C 24,3 C 16,1 km/h (3 Bft) 100,00 %
09.08.2022 14:31 24,3 C 36 % 1023,0 hPa 0,0 l/m 4,8 km/h (1 Bft) O 90 1 min 0,000 mm 4,8 UV-I 770 W/m 8,3 C 24,3 C 11,3 km/h (2 Bft) 100,00 %
09.08.2022 14:30 24,3 C 38 % 1023,0 hPa 0,0 l/m 3,2 km/h (1 Bft) SO 135 1 min 0,000 mm 4,8 UV-I 765 W/m 9,1 C 24,3 C 4,8 km/h (1 Bft) 100,00 %
09.08.2022 14:29 24,2 C 40 % 1022,9 hPa 0,0 l/m 4,8 km/h (1 Bft) S 180 1 min 0,000 mm 4,9 UV-I 770 W/m 9,7 C 24,2 C 6,4 km/h (2 Bft) 100,00 %
09.08.2022 14:28 24,1 C 39 % 1023,0 hPa 0,0 l/m 11,3 km/h (2 Bft) S 180 1 min 0,000 mm 4,9 UV-I 773 W/m 9,3 C 24,1 C 14,5 km/h (3 Bft) 95,65 %
09.08.2022 14:27 24,1 C 37 % 1023,0 hPa 0,0 l/m 8,0 km/h (2 Bft) S-SO 157 1 min 0,000 mm 4,9 UV-I 773 W/m 8,5 C 24,1 C 11,3 km/h (2 Bft) 100,00 %
09.08.2022 14:26 24,2 C 33 % 1023,0 hPa 0,0 l/m 8,0 km/h (2 Bft) S 180 1 min 0,000 mm 4,9 UV-I 773 W/m 6,9 C 24,2 C 11,3 km/h (2 Bft) 100,00 %
09.08.2022 14:25 24,3 C 33 % 1023,0 hPa 0,0 l/m 6,4 km/h (2 Bft) W 270 1 min 0,000 mm 4,9 UV-I 773 W/m 7,0 C 24,3 C 9,7 km/h (2 Bft) 100,00 %
09.08.2022 14:24 24,4 C 33 % 1023,0 hPa 0,0 l/m 3,2 km/h (1 Bft) N 360 1 min 0,000 mm 5,0 UV-I 770 W/m 7,1 C 24,4 C 4,8 km/h (1 Bft) 100,00 %
09.08.2022 14:23 24,6 C 35 % 1022,9 hPa 0,0 l/m 0,0 km/h (0 Bft) N 360 1 min 0,000 mm 5,0 UV-I 775 W/m 8,1 C 24,6 C 3,2 km/h (1 Bft) 100,00 %
09.08.2022 14:22 24,5 C 37 % 1023,0 hPa 0,0 l/m 1,6 km/h (1 Bft) N 360 1 min 0,000 mm 5,0 UV-I 772 W/m 8,8 C 24,5 C 3,2 km/h (1 Bft) 95,65 %
09.08.2022 14:21 24,4 C 34 % 1022,9 hPa 0,0 l/m 1,6 km/h (1 Bft) W 270 1 min 0,000 mm 4,9 UV-I 772 W/m 7,5 C 24,4 C 3,2 km/h (1 Bft) 95,65 %
09.08.2022 14:20 24,4 C 36 % 1023,0 hPa 0,0 l/m 3,2 km/h (1 Bft) N 360 1 min 0,000 mm 5,0 UV-I 772 W/m 8,4 C 24,4 C 4,8 km/h (1 Bft) 100,00 %
09.08.2022 14:19 24,4 C 34 % 1023,0 hPa 0,0 l/m 4,8 km/h (1 Bft) O-NO 67 1 min 0,000 mm 5,0 UV-I 773 W/m 7,5 C 24,4 C 6,4 km/h (2 Bft) 100,00 %
09.08.2022 14:18 24,4 C 34 % 1023,0 hPa 0,0 l/m 4,8 km/h (1 Bft) N-NO 22 1 min 0,000 mm 5,0 UV-I 773 W/m 7,5 C 24,4 C 9,7 km/h (2 Bft) 100,00 %
09.08.2022 14:17 24,5 C 34 % 1023,0 hPa 0,0 l/m 8,0 km/h (2 Bft) NO 45 1 min 0,000 mm 5,1 UV-I 777 W/m 7,6 C 24,5 C 11,3 km/h (2 Bft) 100,00 %
09.08.2022 14:16 24,5 C 32 % 1023,0 hPa 0,0 l/m 11,3 km/h (2 Bft) O-NO 67 1 min 0,000 mm 5,0 UV-I 777 W/m 6,7 C 24,5 C 16,1 km/h (3 Bft) 100,00 %
09.08.2022 14:15 24,5 C 33 % 1022,9 hPa 0,0 l/m 14,5 km/h (3 Bft) NO 45 1 min 0,000 mm 5,0 UV-I 779 W/m 7,2 C 24,5 C 20,9 km/h (4 Bft) 100,00 %
09.08.2022 14:14 24,5 C 34 % 1022,9 hPa 0,0 l/m 11,3 km/h (2 Bft) NO 45 1 min 0,000 mm 5,1 UV-I 779 W/m 7,6 C 24,5 C 17,7 km/h (3 Bft) 95,65 %
09.08.2022 14:13 24,5 C 33 % 1022,9 hPa 0,0 l/m 14,5 km/h (3 Bft) N-NW 337 1 min 0,000 mm 5,1 UV-I 779 W/m 7,2 C 24,5 C 19,3 km/h (3 Bft) 100,00 %
09.08.2022 14:12 24,6 C 35 % 1022,9 hPa 0,0 l/m 11,3 km/h (2 Bft) N 360 1 min 0,000 mm 5,2 UV-I 780 W/m 8,1 C 24,6 C 17,7 km/h (3 Bft) 100,00 %
09.08.2022 14:11 24,6 C 33 % 1022,9 hPa 0,0 l/m 9,7 km/h (2 Bft) N-NO 22 1 min 0,000 mm 5,2 UV-I 782 W/m 7,2 C 24,6 C 16,1 km/h (3 Bft) 100,00 %
09.08.2022 14:10 24,5 C 37 % 1022,9 hPa 0,0 l/m 3,2 km/h (1 Bft) N-NO 22 1 min 0,000 mm 5,2 UV-I 784 W/m 8,8 C 24,5 C 6,4 km/h (2 Bft) 95,65 %
09.08.2022 14:09 24,4 C 37 % 1023,0 hPa 0,0 l/m 6,4 km/h (2 Bft) N-NO 22 1 min 0,000 mm 5,2 UV-I 784 W/m 8,8 C 24,4 C 12,9 km/h (3 Bft) 100,00 %
09.08.2022 14:08 24,4 C 34 % 1022,9 hPa 0,0 l/m 1,6 km/h (1 Bft) N 360 1 min 0,000 mm 5,2 UV-I 784 W/m 7,5 C 24,4 C 4,8 km/h (1 Bft) 100,00 %
09.08.2022 14:07 24,6 C 32 % 1022,9 hPa 0,0 l/m 4,8 km/h (1 Bft) N 360 1 min 0,000 mm 5,2 UV-I 784 W/m 6,8 C 24,6 C 11,3 km/h (2 Bft) 95,65 %
09.08.2022 14:06 24,6 C 37 % 1022,9 hPa 0,0 l/m 4,8 km/h (1 Bft) O-SO 112 1 min 0,000 mm 5,3 UV-I 789 W/m 8,9 C 24,6 C 8,0 km/h (2 Bft) 100,00 %
09.08.2022 14:05 24,6 C 36 % 1023,0 hPa 0,0 l/m 3,2 km/h (1 Bft) O-SO 112 1 min 0,000 mm 5,3 UV-I 791 W/m 8,5 C 24,6 C 6,4 km/h (2 Bft) 100,00 %
09.08.2022 14:04 24,5 C 32 % 1023,0 hPa 0,0 l/m 3,2 km/h (1 Bft) O-SO 112 1 min 0,000 mm 5,3 UV-I 789 W/m 6,7 C 24,5 C 4,8 km/h (1 Bft) 95,65 %
09.08.2022 14:03 24,5 C 35 % 1022,9 hPa 0,0 l/m 6,4 km/h (2 Bft) O 90 1 min 0,000 mm 5,3 UV-I 789 W/m 8,0 C 24,5 C 9,7 km/h (2 Bft) 95,65 %
09.08.2022 14:02 24,4 C 35 % 1022,9 hPa 0,0 l/m 8,0 km/h (2 Bft) O-NO 67 1 min 0,000 mm 5,3 UV-I 793 W/m 7,9 C 24,4 C 14,5 km/h (3 Bft) 100,00 %
09.08.2022 14:01 24,3 C 34 % 1022,8 hPa 0,0 l/m 6,4 km/h (2 Bft) O-NO 67 1 min 0,000 mm 5,3 UV-I 791 W/m 7,4 C 24,3 C 12,9 km/h (3 Bft) 91,30 %
09.08.2022 14:00 24,3 C 34 % 1022,9 hPa 0,0 l/m 4,8 km/h (1 Bft) NW 315 1 min 0,635 mm 5,3 UV-I 793 W/m 7,4 C 24,3 C 8,0 km/h (2 Bft) 95,65 %
09.08.2022 13:59 24,3 C 36 % 1022,9 hPa 0,0 l/m 8,0 km/h (2 Bft) NO 45 1 min 0,000 mm 5,3 UV-I 791 W/m 8,3 C 24,3 C 14,5 km/h (3 Bft) 95,65 %
09.08.2022 13:58 24,3 C 33 % 1023,0 hPa 0,0 l/m 3,2 km/h (1 Bft) N 360 1 min 0,000 mm 5,3 UV-I 791 W/m 7,0 C 24,3 C 4,8 km/h (1 Bft) 100,00 %
09.08.2022 13:57 24,3 C 36 % 1023,0 hPa 0,0 l/m 6,4 km/h (2 Bft) O-NO 67 1 min 0,000 mm 5,3 UV-I 791 W/m 8,3 C 24,3 C 12,9 km/h (3 Bft) 95,65 %
09.08.2022 13:56 24,2 C 35 % 1022,9 hPa 0,0 l/m 6,4 km/h (2 Bft) NO 45 1 min 0,000 mm 5,3 UV-I 791 W/m 7,8 C 24,2 C 12,9 km/h (3 Bft) 91,30 %
09.08.2022 13:55 24,1 C 38 % 1022,9 hPa 0,0 l/m 4,8 km/h (1 Bft) O-NO 67 1 min 0,000 mm 5,3 UV-I 789 W/m 8,9 C 24,1 C 6,4 km/h (2 Bft) 95,65 %
09.08.2022 13:54 23,9 C 33 % 1022,9 hPa 0,0 l/m 8,0 km/h (2 Bft) NO 45 1 min 0,000 mm 5,3 UV-I 795 W/m 6,6 C 23,9 C 11,3 km/h (2 Bft) 95,65 %
09.08.2022 13:53 23,9 C 32 % 1023,0 hPa 0,0 l/m 11,3 km/h (2 Bft) O-NO 67 1 min 0,000 mm 5,3 UV-I 793 W/m 6,2 C 23,9 C 17,7 km/h (3 Bft) 95,65 %
09.08.2022 13:52 23,9 C 35 % 1023,0 hPa 0,0 l/m 16,1 km/h (3 Bft) O-NO 67 1 min 0,000 mm 5,3 UV-I 791 W/m 7,5 C 23,9 C 20,9 km/h (4 Bft) 95,65 %
09.08.2022 13:51 23,9 C 32 % 1023,0 hPa 0,0 l/m 9,7 km/h (2 Bft) NO 45 1 min 0,000 mm 5,4 UV-I 791 W/m 6,2 C 23,9 C 19,3 km/h (3 Bft) 100,00 %
09.08.2022 13:50 23,9 C 35 % 1023,0 hPa 0,0 l/m 12,9 km/h (3 Bft) O-NO 67 1 min 0,000 mm 5,3 UV-I 793 W/m 7,5 C 23,9 C 20,9 km/h (4 Bft) 95,65 %
09.08.2022 13:49 23,8 C 33 % 1023,1 hPa 0,0 l/m 16,1 km/h (3 Bft) O-NO 67 1 min 0,000 mm 5,4 UV-I 791 W/m 6,6 C 23,8 C 20,9 km/h (4 Bft) 100,00 %
09.08.2022 13:48 23,8 C 34 % 1023,0 hPa 0,0 l/m 4,8 km/h (1 Bft) N-NO 22 1 min 0,000 mm 5,3 UV-I 795 W/m 7,0 C 23,8 C 6,4 km/h (2 Bft) 95,65 %
09.08.2022 13:47 23,9 C 34 % 1023,0 hPa 0,0 l/m 8,0 km/h (2 Bft) N 360 1 min 0,000 mm 5,4 UV-I 791 W/m 7,1 C 23,9 C 16,1 km/h (3 Bft) 95,65 %
09.08.2022 13:46 23,9 C 34 % 1023,1 hPa 0,0 l/m 12,9 km/h (3 Bft) N 360 1 min 0,000 mm 5,4 UV-I 795 W/m 7,1 C 23,9 C 19,3 km/h (3 Bft) 95,65 %
09.08.2022 13:45 23,9 C 33 % 1023,0 hPa 0,0 l/m 8,0 km/h (2 Bft) N-NO 22 1 min 0,000 mm 5,4 UV-I 796 W/m 6,6 C 23,9 C 14,5 km/h (3 Bft) 95,65 %
09.08.2022 13:44 24,0 C 34 % 1022,9 hPa 0,0 l/m 8,0 km/h (2 Bft) N-NO 22 1 min 0,000 mm 5,4 UV-I 796 W/m 7,2 C 24,0 C 14,5 km/h (3 Bft) 100,00 %
09.08.2022 13:43 23,9 C 36 % 1023,0 hPa 0,0 l/m 9,7 km/h (2 Bft) O-NO 67 1 min 0,000 mm 5,3 UV-I 788 W/m 7,9 C 23,9 C 22,5 km/h (4 Bft) 100,00 %
09.08.2022 13:42 23,8 C 34 % 1023,0 hPa 0,0 l/m 14,5 km/h (3 Bft) NO 45 1 min 0,000 mm 5,3 UV-I 789 W/m 7,0 C 23,8 C 17,7 km/h (3 Bft) 100,00 %
09.08.2022 13:41 23,7 C 36 % 1023,0 hPa 0,0 l/m 16,1 km/h (3 Bft) O-NO 67 1 min 0,000 mm 5,4 UV-I 795 W/m 7,7 C 23,7 C 22,5 km/h (4 Bft) 100,00 %
09.08.2022 13:40 23,6 C 38 % 1023,0 hPa 0,0 l/m 9,7 km/h (2 Bft) NO 45 1 min 0,000 mm 5,4 UV-I 795 W/m 8,4 C 23,6 C 19,3 km/h (3 Bft) 100,00 %
09.08.2022 13:39 23,5 C 38 % 1023,0 hPa 0,0 l/m 4,8 km/h (1 Bft) N-NW 337 1 min 0,000 mm 5,4 UV-I 795 W/m 8,4 C 23,5 C 8,0 km/h (2 Bft) 95,65 %
09.08.2022 13:38 23,5 C 34 % 1023,0 hPa 0,0 l/m 3,2 km/h (1 Bft) N 360 1 min 0,000 mm 5,4 UV-I 795 W/m 6,7 C 23,5 C 6,4 km/h (2 Bft) 100,00 %
09.08.2022 13:37 23,6 C 37 % 1023,0 hPa 0,0 l/m 12,9 km/h (3 Bft) N 360 1 min 0,000 mm 5,3 UV-I 784 W/m 8,0 C 23,6 C 19,3 km/h (3 Bft) 100,00 %
09.08.2022 13:36 23,6 C 39 % 1023,0 hPa 0,0 l/m 12,9 km/h (3 Bft) N-NW 337 1 min 0,000 mm 5,3 UV-I 791 W/m 8,8 C 23,6 C 17,7 km/h (3 Bft) 100,00 %
09.08.2022 13:35 23,6 C 36 % 1023,1 hPa 0,0 l/m 11,3 km/h (2 Bft) N-NW 337 1 min 0,000 mm 5,4 UV-I 795 W/m 7,6 C 23,6 C 17,7 km/h (3 Bft) 100,00 %
09.08.2022 13:34 23,6 C 38 % 1023,0 hPa 0,0 l/m 4,8 km/h (1 Bft) N-NW 337 1 min 0,000 mm 5,4 UV-I 791 W/m 8,4 C 23,6 C 9,7 km/h (2 Bft) 100,00 %
09.08.2022 13:33 23,7 C 37 % 1023,1 hPa 0,0 l/m 8,0 km/h (2 Bft) N 360 1 min 0,000 mm 5,4 UV-I 793 W/m 8,1 C 23,7 C 14,5 km/h (3 Bft) 100,00 %
09.08.2022 13:32 23,8 C 40 % 1023,1 hPa 0,0 l/m 9,7 km/h (2 Bft) N-NO 22 1 min 0,000 mm 5,4 UV-I 795 W/m 9,4 C 23,8 C 17,7 km/h (3 Bft) 95,65 %
09.08.2022 13:31 23,6 C 37 % 1023,0 hPa 0,0 l/m 8,0 km/h (2 Bft) O-NO 67 1 min 0,000 mm 5,4 UV-I 795 W/m 8,0 C 23,6 C 14,5 km/h (3 Bft) 95,65 %
09.08.2022 13:30 23,6 C 37 % 1023,1 hPa 0,0 l/m 6,4 km/h (2 Bft) N-NO 22 1 min 0,000 mm 5,4 UV-I 793 W/m 8,0 C 23,6 C 8,0 km/h (2 Bft) 100,00 %
09.08.2022 13:29 23,6 C 37 % 1023,1 hPa 0,0 l/m 4,8 km/h (1 Bft) O-NO 67 1 min 0,000 mm 5,4 UV-I 796 W/m 8,0 C 23,6 C 8,0 km/h (2 Bft) 100,00 %
09.08.2022 13:28 23,6 C 39 % 1023,1 hPa 0,0 l/m 3,2 km/h (1 Bft) O-NO 67 1 min 0,000 mm 5,4 UV-I 798 W/m 8,8 C 23,6 C 6,4 km/h (2 Bft) 100,00 %
09.08.2022 13:27 23,5 C 36 % 1023,1 hPa 0,0 l/m 3,2 km/h (1 Bft) NO 45 1 min 0,000 mm 5,4 UV-I 795 W/m 7,6 C 23,5 C 4,8 km/h (1 Bft) 100,00 %
09.08.2022 13:26 23,6 C 37 % 1023,1 hPa 0,0 l/m 8,0 km/h (2 Bft) NO 45 1 min 0,000 mm 5,4 UV-I 795 W/m 8,0 C 23,6 C 9,7 km/h (2 Bft) 100,00 %
09.08.2022 13:25 23,4 C 36 % 1023,1 hPa 0,0 l/m 9,7 km/h (2 Bft) O-NO 67 1 min 0,000 mm 5,4 UV-I 793 W/m 7,5 C 23,4 C 12,9 km/h (3 Bft) 95,65 %
09.08.2022 13:24 23,5 C 36 % 1023,1 hPa 0,0 l/m 4,8 km/h (1 Bft) N 360 1 min 0,000 mm 5,4 UV-I 793 W/m 7,6 C 23,5 C 6,4 km/h (2 Bft) 100,00 %
09.08.2022 13:23 23,6 C 36 % 1023,0 hPa 0,0 l/m 4,8 km/h (1 Bft) NW 315 1 min 0,000 mm 5,3 UV-I 789 W/m 7,6 C 23,6 C 8,0 km/h (2 Bft) 100,00 %
09.08.2022 13:22 23,7 C 39 % 1023,1 hPa 0,0 l/m 6,4 km/h (2 Bft) N 360 1 min 0,000 mm 5,5 UV-I 796 W/m 8,9 C 23,7 C 9,7 km/h (2 Bft) 100,00 %
09.08.2022 13:21 23,7 C 39 % 1023,1 hPa 0,0 l/m 11,3 km/h (2 Bft) N 360 1 min 0,000 mm 5,5 UV-I 803 W/m 8,9 C 23,7 C 16,1 km/h (3 Bft) 100,00 %
09.08.2022 13:20 23,7 C 38 % 1023,1 hPa 0,0 l/m 9,7 km/h (2 Bft) N 360 1 min 0,000 mm 5,6 UV-I 807 W/m 8,5 C 23,7 C 14,5 km/h (3 Bft) 100,00 %
09.08.2022 13:19 23,7 C 40 % 1023,2 hPa 0,0 l/m 9,7 km/h (2 Bft) N 360 1 min 0,000 mm 5,6 UV-I 805 W/m 9,3 C 23,7 C 16,1 km/h (3 Bft) 100,00 %
09.08.2022 13:18 23,6 C 36 % 1023,1 hPa 0,0 l/m 11,3 km/h (2 Bft) O-NO 67 1 min 0,000 mm 5,5 UV-I 807 W/m 7,6 C 23,6 C 17,7 km/h (3 Bft) 95,65 %
09.08.2022 13:17 23,5 C 36 % 1023,1 hPa 0,0 l/m 6,4 km/h (2 Bft) NO 45 1 min 0,000 mm 5,6 UV-I 807 W/m 7,6 C 23,5 C 12,9 km/h (3 Bft) 100,00 %
09.08.2022 13:16 23,6 C 41 % 1023,1 hPa 0,0 l/m 4,8 km/h (1 Bft) O-NO 67 1 min 0,000 mm 5,6 UV-I 805 W/m 9,6 C 23,6 C 11,3 km/h (2 Bft) 95,65 %
09.08.2022 13:15 23,5 C 39 % 1023,1 hPa 0,0 l/m 6,4 km/h (2 Bft) NO 45 1 min 0,000 mm 5,6 UV-I 802 W/m 8,7 C 23,5 C 11,3 km/h (2 Bft) 100,00 %
09.08.2022 13:14 23,4 C 35 % 1023,1 hPa 0,0 l/m 4,8 km/h (1 Bft) N-NO 22 1 min 0,000 mm 5,6 UV-I 805 W/m 7,1 C 23,4 C 8,0 km/h (2 Bft) 100,00 %
09.08.2022 13:13 23,6 C 34 % 1023,1 hPa 0,0 l/m 1,6 km/h (1 Bft) N-NO 22 1 min 0,000 mm 5,6 UV-I 809 W/m 6,8 C 23,6 C 4,8 km/h (1 Bft) 100,00 %
09.08.2022 13:12 23,7 C 36 % 1023,1 hPa 0,0 l/m 4,8 km/h (1 Bft) O-NO 67 1 min 0,000 mm 5,6 UV-I 803 W/m 7,7 C 23,7 C 8,0 km/h (2 Bft) 100,00 %
09.08.2022 13:11 23,7 C 36 % 1023,2 hPa 0,0 l/m 4,8 km/h (1 Bft) O-NO 67 1 min 0,000 mm 5,6 UV-I 803 W/m 7,7 C 23,7 C 6,4 km/h (2 Bft) 91,30 %
09.08.2022 13:10 23,6 C 40 % 1023,1 hPa 0,0 l/m 6,4 km/h (2 Bft) O-NO 67 1 min 0,000 mm 5,6 UV-I 809 W/m 9,2 C 23,6 C 9,7 km/h (2 Bft) 100,00 %
09.08.2022 13:09 23,4 C 37 % 1023,0 hPa 0,0 l/m 6,4 km/h (2 Bft) O-NO 67 1 min 0,000 mm 5,6 UV-I 803 W/m 7,9 C 23,4 C 9,7 km/h (2 Bft) 100,00 %
09.08.2022 13:08 23,5 C 37 % 1023,0 hPa 0,0 l/m 3,2 km/h (1 Bft) O 90 1 min 0,000 mm 5,5 UV-I 800 W/m 8,0 C 23,5 C 4,8 km/h (1 Bft) 100,00 %
09.08.2022 13:07 23,5 C 39 % 1023,1 hPa 0,0 l/m 8,0 km/h (2 Bft) O-NO 67 1 min 0,000 mm 5,5 UV-I 800 W/m 8,7 C 23,5 C 14,5 km/h (3 Bft) 100,00 %
09.08.2022 13:06 23,4 C 37 % 1023,0 hPa 0,0 l/m 9,7 km/h (2 Bft) N-NO 22 1 min 0,000 mm 5,5 UV-I 802 W/m 7,9 C 23,4 C 12,9 km/h (3 Bft) 100,00 %
09.08.2022 13:05 23,5 C 37 % 1023,2 hPa 0,0 l/m 6,4 km/h (2 Bft) NO 45 1 min 0,000 mm 5,6 UV-I 805 W/m 8,0 C 23,5 C 11,3 km/h (2 Bft) 100,00 %
09.08.2022 13:04 23,5 C 39 % 1023,1 hPa 0,0 l/m 3,2 km/h (1 Bft) NO 45 1 min 0,000 mm 5,5 UV-I 802 W/m 8,7 C 23,5 C 8,0 km/h (2 Bft) 95,65 %
09.08.2022 13:03 23,4 C 38 % 1023,1 hPa 0,0 l/m 8,0 km/h (2 Bft) N-NW 337 1 min 0,000 mm 5,5 UV-I 802 W/m 8,3 C 23,4 C 14,5 km/h (3 Bft) 100,00 %
09.08.2022 13:02 23,4 C 37 % 1023,2 hPa 0,0 l/m 3,2 km/h (1 Bft) O 90 1 min 0,000 mm 5,5 UV-I 800 W/m 7,9 C 23,4 C 6,4 km/h (2 Bft) 100,00 %
09.08.2022 13:01 23,5 C 38 % 1023,2 hPa 0,0 l/m 9,7 km/h (2 Bft) O 90 1 min 0,000 mm 5,5 UV-I 803 W/m 8,4 C 23,5 C 16,1 km/h (3 Bft) 95,65 %
09.08.2022 13:00 23,5 C 39 % 1023,2 hPa 0,0 l/m 14,5 km/h (3 Bft) O-NO 67 1 min 0,584 mm 5,5 UV-I 803 W/m 8,7 C 23,5 C 20,9 km/h (4 Bft) 100,00 %
09.08.2022 12:59 23,3 C 39 % 1023,1 hPa 0,0 l/m 17,7 km/h (3 Bft) O-SO 112 1 min 0,000 mm 5,6 UV-I 802 W/m 8,6 C 23,3 C 20,9 km/h (4 Bft) 100,00 %
09.08.2022 12:58 23,2 C 38 % 1023,2 hPa 0,0 l/m 8,0 km/h (2 Bft) S-SO 157 1 min 0,000 mm 5,5 UV-I 802 W/m 8,1 C 23,2 C 19,3 km/h (3 Bft) 100,00 %
09.08.2022 12:57 23,1 C 35 % 1023,2 hPa 0,0 l/m 6,4 km/h (2 Bft) O 90 1 min 0,000 mm 5,5 UV-I 803 W/m 6,8 C 23,1 C 12,9 km/h (3 Bft) 95,65 %
09.08.2022 12:56 23,1 C 38 % 1023,2 hPa 0,0 l/m 6,4 km/h (2 Bft) O 90 1 min 0,000 mm 5,5 UV-I 802 W/m 8,0 C 23,1 C 12,9 km/h (3 Bft) 100,00 %
09.08.2022 12:55 23,0 C 37 % 1023,3 hPa 0,0 l/m 4,8 km/h (1 Bft) O 90 1 min 0,000 mm 5,5 UV-I 805 W/m 7,5 C 23,0 C 8,0 km/h (2 Bft) 100,00 %
09.08.2022 12:54 22,9 C 39 % 1023,3 hPa 0,0 l/m 6,4 km/h (2 Bft) O 90 1 min 0,000 mm 5,5 UV-I 805 W/m 8,2 C 22,9 C 12,9 km/h (3 Bft) 95,65 %
09.08.2022 12:53 22,8 C 39 % 1023,2 hPa 0,0 l/m 4,8 km/h (1 Bft) O-NO 67 1 min 0,000 mm 5,5 UV-I 803 W/m 8,1 C 22,8 C 8,0 km/h (2 Bft) 95,65 %
09.08.2022 12:52 22,9 C 36 % 1023,2 hPa 0,0 l/m 1,6 km/h (1 Bft) O 90 1 min 0,000 mm 5,5 UV-I 802 W/m 7,0 C 22,9 C 8,0 km/h (2 Bft) 100,00 %
09.08.2022 12:51 23,1 C 35 % 1023,3 hPa 0,0 l/m 1,6 km/h (1 Bft) O 90 1 min 0,000 mm 5,5 UV-I 802 W/m 6,8 C 23,1 C 3,2 km/h (1 Bft) 91,30 %
09.08.2022 12:50 23,2 C 37 % 1023,3 hPa 0,0 l/m 8,0 km/h (2 Bft) O 90 1 min 0,000 mm 5,5 UV-I 800 W/m 7,7 C 23,2 C 12,9 km/h (3 Bft) 95,65 %
09.08.2022 12:49 23,3 C 37 % 1023,3 hPa 0,0 l/m 11,3 km/h (2 Bft) NO 45 1 min 0,000 mm 5,5 UV-I 803 W/m 7,8 C 23,3 C 14,5 km/h (3 Bft) 95,65 %
09.08.2022 12:48 23,3 C 37 % 1023,3 hPa 0,0 l/m 11,3 km/h (2 Bft) O-NO 67 1 min 0,000 mm 5,4 UV-I 798 W/m 7,8 C 23,3 C 16,1 km/h (3 Bft) 100,00 %
09.08.2022 12:47 23,3 C 39 % 1023,4 hPa 0,0 l/m 16,1 km/h (3 Bft) O-NO 67 1 min 0,000 mm 5,4 UV-I 802 W/m 8,6 C 23,3 C 20,9 km/h (4 Bft) 95,65 %
09.08.2022 12:46 23,3 C 37 % 1023,4 hPa 0,0 l/m 11,3 km/h (2 Bft) O-NO 67 1 min 0,000 mm 5,5 UV-I 807 W/m 7,8 C 23,3 C 17,7 km/h (3 Bft) 91,30 %
09.08.2022 12:45 23,4 C 39 % 1023,3 hPa 0,0 l/m 11,3 km/h (2 Bft) O-NO 67 1 min 0,000 mm 5,5 UV-I 802 W/m 8,6 C 23,4 C 17,7 km/h (3 Bft) 100,00 %
09.08.2022 12:44 23,3 C 36 % 1023,3 hPa 0,0 l/m 14,5 km/h (3 Bft) O-NO 67 1 min 0,000 mm 5,5 UV-I 805 W/m 7,4 C 23,3 C 19,3 km/h (3 Bft) 95,65 %
09.08.2022 12:43 23,3 C 37 % 1023,4 hPa 0,0 l/m 12,9 km/h (3 Bft) O-NO 67 1 min 0,000 mm 5,5 UV-I 803 W/m 7,8 C 23,3 C 17,7 km/h (3 Bft) 100,00 %
09.08.2022 12:42 23,2 C 38 % 1023,3 hPa 0,0 l/m 11,3 km/h (2 Bft) O-NO 67 1 min 0,000 mm 5,5 UV-I 803 W/m 8,1 C 23,2 C 17,7 km/h (3 Bft) 91,30 %
09.08.2022 12:41 23,1 C 36 % 1023,4 hPa 0,0 l/m 6,4 km/h (2 Bft) O-SO 112 1 min 0,000 mm 5,5 UV-I 803 W/m 7,2 C 23,1 C 9,7 km/h (2 Bft) 95,65 %
09.08.2022 12:40 23,0 C 36 % 1023,3 hPa 0,0 l/m 4,8 km/h (1 Bft) O 90 1 min 0,000 mm 5,5 UV-I 802 W/m 7,1 C 23,0 C 6,4 km/h (2 Bft) 95,65 %
09.08.2022 12:39 23,1 C 35 % 1023,4 hPa 0,0 l/m 4,8 km/h (1 Bft) O-NO 67 1 min 0,000 mm 5,4 UV-I 798 W/m 6,8 C 23,1 C 8,0 km/h (2 Bft) 100,00 %
09.08.2022 12:38 23,2 C 38 % 1023,4 hPa 0,0 l/m 6,4 km/h (2 Bft) O-NO 67 1 min 0,000 mm 5,3 UV-I 800 W/m 8,1 C 23,2 C 8,0 km/h (2 Bft) 95,65 %
09.08.2022 12:37 23,2 C 39 % 1023,4 hPa 0,0 l/m 9,7 km/h (2 Bft) O-NO 67 1 min 0,000 mm 5,3 UV-I 798 W/m 8,5 C 23,2 C 17,7 km/h (3 Bft) 95,65 %
09.08.2022 12:36 23,1 C 38 % 1023,4 hPa 0,0 l/m 8,0 km/h (2 Bft) O-SO 112 1 min 0,000 mm 5,3 UV-I 809 W/m 8,0 C 23,1 C 11,3 km/h (2 Bft) 100,00 %
09.08.2022 12:35 23,1 C 37 % 1023,4 hPa 0,0 l/m 6,4 km/h (2 Bft) NO 45 1 min 0,000 mm 5,3 UV-I 809 W/m 7,6 C 23,1 C 9,7 km/h (2 Bft) 91,30 %
09.08.2022 12:34 23,2 C 40 % 1023,4 hPa 0,0 l/m 6,4 km/h (2 Bft) N-NO 22 1 min 0,000 mm 5,3 UV-I 823 W/m 8,8 C 23,2 C 9,7 km/h (2 Bft) 100,00 %
09.08.2022 12:33 23,2 C 40 % 1023,4 hPa 0,0 l/m 8,0 km/h (2 Bft) O-SO 112 1 min 0,000 mm 5,4 UV-I 830 W/m 8,8 C 23,2 C 11,3 km/h (2 Bft) 95,65 %
09.08.2022 12:32 23,1 C 41 % 1023,4 hPa 0,0 l/m 9,7 km/h (2 Bft) O-SO 112 1 min 0,000 mm 5,4 UV-I 851 W/m 9,1 C 23,1 C 16,1 km/h (3 Bft) 100,00 %
09.08.2022 12:31 23,0 C 40 % 1023,5 hPa 0,0 l/m 6,4 km/h (2 Bft) O-SO 112 1 min 0,000 mm 5,4 UV-I 849 W/m 8,7 C 23,0 C 11,3 km/h (2 Bft) 95,65 %
09.08.2022 12:30 23,1 C 39 % 1023,5 hPa 0,0 l/m 3,2 km/h (1 Bft) O 90 1 min 0,000 mm 5,0 UV-I 773 W/m 8,4 C 23,1 C 4,8 km/h (1 Bft) 100,00 %
09.08.2022 12:29 23,2 C 40 % 1023,4 hPa 0,0 l/m 4,8 km/h (1 Bft) O-NO 67 1 min 0,000 mm 5,4 UV-I 858 W/m 8,8 C 23,2 C 6,4 km/h (2 Bft) 100,00 %
09.08.2022 12:28 23,2 C 42 % 1023,5 hPa 0,0 l/m 6,4 km/h (2 Bft) O-NO 67 1 min 0,000 mm 3,3 UV-I 858 W/m 9,6 C 23,2 C 12,9 km/h (3 Bft) 95,65 %
09.08.2022 12:27 23,1 C 40 % 1023,6 hPa 0,0 l/m 9,7 km/h (2 Bft) O-NO 67 1 min 0,000 mm 5,5 UV-I 858 W/m 8,8 C 23,1 C 16,1 km/h (3 Bft) 100,00 %
09.08.2022 12:26 23,0 C 41 % 1023,5 hPa 0,0 l/m 6,4 km/h (2 Bft) O-NO 67 1 min 0,000 mm 5,2 UV-I 830 W/m 9,0 C 23,0 C 16,1 km/h (3 Bft) 100,00 %
09.08.2022 12:25 22,9 C 41 % 1023,5 hPa 0,0 l/m 3,2 km/h (1 Bft) NO 45 1 min 0,000 mm 5,3 UV-I 795 W/m 8,9 C 22,9 C 6,4 km/h (2 Bft) 100,00 %
09.08.2022 12:24 22,9 C 39 % 1023,5 hPa 0,0 l/m 6,4 km/h (2 Bft) N 360 1 min 0,000 mm 5,1 UV-I 840 W/m 8,2 C 22,9 C 9,7 km/h (2 Bft) 100,00 %
09.08.2022 12:23 22,8 C 43 % 1023,5 hPa 0,0 l/m 3,2 km/h (1 Bft) N 360 1 min 0,000 mm 5,3 UV-I 842 W/m 9,6 C 22,8 C 4,8 km/h (1 Bft) 100,00 %
09.08.2022 12:22 22,6 C 44 % 1023,5 hPa 0,0 l/m 3,2 km/h (1 Bft) N 360 1 min 0,000 mm 5,4 UV-I 840 W/m 9,7 C 22,6 C 4,8 km/h (1 Bft) 100,00 %
09.08.2022 12:21 22,4 C 41 % 1023,6 hPa 0,0 l/m 1,6 km/h (1 Bft) SO 135 1 min 0,000 mm 5,3 UV-I 817 W/m 8,5 C 22,4 C 3,2 km/h (1 Bft) 95,65 %
09.08.2022 12:20 22,3 C 42 % 1023,6 hPa 0,0 l/m 4,8 km/h (1 Bft) O-SO 112 1 min 0,000 mm 5,3 UV-I 824 W/m 8,8 C 22,3 C 6,4 km/h (2 Bft) 100,00 %
09.08.2022 12:19 22,3 C 42 % 1023,5 hPa 0,0 l/m 3,2 km/h (1 Bft) O 90 1 min 0,000 mm 5,2 UV-I 835 W/m 8,8 C 22,3 C 6,4 km/h (2 Bft) 100,00 %
09.08.2022 12:18 22,3 C 43 % 1023,6 hPa 0,0 l/m 4,8 km/h (1 Bft) NO 45 1 min 0,000 mm 2,0 UV-I 849 W/m 9,1 C 22,3 C 6,4 km/h (2 Bft) 100,00 %
09.08.2022 12:17 22,2 C 42 % 1023,6 hPa 0,0 l/m 6,4 km/h (2 Bft) NO 45 1 min 0,000 mm 5,3 UV-I 264 W/m 8,7 C 22,2 C 8,0 km/h (2 Bft) 100,00 %
09.08.2022 12:16 22,2 C 42 % 1023,6 hPa 0,0 l/m 6,4 km/h (2 Bft) O-NO 67 1 min 0,000 mm 5,1 UV-I 264 W/m 8,7 C 22,2 C 9,7 km/h (2 Bft) 100,00 %
09.08.2022 12:15 22,4 C 42 % 1023,6 hPa 0,0 l/m 4,8 km/h (1 Bft) O-NO 67 1 min 0,000 mm 3,7 UV-I 237 W/m 8,9 C 22,4 C 8,0 km/h (2 Bft) 100,00 %
09.08.2022 12:14 22,6 C 42 % 1023,6 hPa 0,0 l/m 8,0 km/h (2 Bft) O-NO 67 1 min 0,000 mm 3,4 UV-I 237 W/m 9,0 C 22,6 C 14,5 km/h (3 Bft) 95,65 %
09.08.2022 12:13 22,8 C 41 % 1023,6 hPa 0,0 l/m 8,0 km/h (2 Bft) O-NO 67 1 min 0,000 mm 3,0 UV-I 188 W/m 8,9 C 22,8 C 12,9 km/h (3 Bft) 100,00 %
09.08.2022 12:12 23,0 C 41 % 1023,5 hPa 0,0 l/m 14,5 km/h (3 Bft) O-NO 67 1 min 0,000 mm 2,9 UV-I 174 W/m 9,0 C 23,0 C 17,7 km/h (3 Bft) 100,00 %
09.08.2022 12:11 23,1 C 42 % 1023,6 hPa 0,0 l/m 14,5 km/h (3 Bft) O-NO 67 1 min 0,000 mm 3,0 UV-I 183 W/m 9,5 C 23,1 C 20,9 km/h (4 Bft) 100,00 %
09.08.2022 12:10 23,1 C 42 % 1023,6 hPa 0,0 l/m 11,3 km/h (2 Bft) O-NO 67 1 min 0,000 mm 5,2 UV-I 900 W/m 9,5 C 23,1 C 20,9 km/h (4 Bft) 100,00 %
09.08.2022 12:09 23,0 C 42 % 1023,6 hPa 0,0 l/m 9,7 km/h (2 Bft) NO 45 1 min 0,000 mm 5,0 UV-I 900 W/m 9,4 C 23,0 C 19,3 km/h (3 Bft) 100,00 %
09.08.2022 12:08 22,9 C 43 % 1023,6 hPa 0,0 l/m 4,8 km/h (1 Bft) O 90 1 min 0,000 mm 4,6 UV-I 874 W/m 9,6 C 22,9 C 8,0 km/h (2 Bft) 100,00 %
09.08.2022 12:07 23,0 C 42 % 1023,6 hPa 0,0 l/m 4,8 km/h (1 Bft) NW 315 1 min 0,000 mm 4,0 UV-I 874 W/m 9,4 C 23,0 C 4,8 km/h (1 Bft) 95,65 %
09.08.2022 12:06 22,9 C 45 % 1023,6 hPa 0,0 l/m 3,2 km/h (1 Bft) NO 45 1 min 0,000 mm 5,1 UV-I 870 W/m 10,3 C 22,9 C 6,4 km/h (2 Bft) 100,00 %
09.08.2022 12:05 22,9 C 41 % 1023,6 hPa 0,0 l/m 3,2 km/h (1 Bft) S-SO 157 1 min 0,000 mm 5,2 UV-I 870 W/m 8,9 C 22,9 C 6,4 km/h (2 Bft) 100,00 %
09.08.2022 12:04 23,1 C 42 % 1023,5 hPa 0,0 l/m 3,2 km/h (1 Bft) SO 135 1 min 0,000 mm 5,3 UV-I 881 W/m 9,5 C 23,1 C 4,8 km/h (1 Bft) 100,00 %
09.08.2022 12:03 23,0 C 45 % 1023,5 hPa 0,0 l/m 3,2 km/h (1 Bft) O-NO 67 1 min 0,000 mm 5,3 UV-I 898 W/m 10,4 C 23,0 C 4,8 km/h (1 Bft) 95,65 %
09.08.2022 12:02 22,8 C 42 % 1023,5 hPa 0,0 l/m 8,0 km/h (2 Bft) O 90 1 min 0,000 mm 5,3 UV-I 898 W/m 9,2 C 22,8 C 11,3 km/h (2 Bft) 100,00 %
09.08.2022 12:01 22,7 C 43 % 1023,5 hPa 0,0 l/m 3,2 km/h (1 Bft) O-SO 112 1 min 0,000 mm 5,3 UV-I 898 W/m 9,5 C 22,7 C 9,7 km/h (2 Bft) 95,65 %
09.08.2022 12:00 22,8 C 40 % 1023,5 hPa 0,0 l/m 6,4 km/h (2 Bft) O-NO 67 1 min 0,559 mm 5,3 UV-I 904 W/m 8,5 C 22,8 C 6,4 km/h (2 Bft) 95,65 %
09.08.2022 11:59 22,8 C 44 % 1023,5 hPa 0,0 l/m 4,8 km/h (1 Bft) NO 45 1 min 0,000 mm 5,3 UV-I 902 W/m 9,9 C 22,8 C 8,0 km/h (2 Bft) 100,00 %
09.08.2022 11:58 22,8 C 40 % 1023,6 hPa 0,0 l/m 3,2 km/h (1 Bft) NO 45 1 min 0,000 mm 5,3 UV-I 914 W/m 8,5 C 22,8 C 8,0 km/h (2 Bft) 100,00 %
09.08.2022 11:57 22,8 C 42 % 1023,6 hPa 0,0 l/m 11,3 km/h (2 Bft) O-NO 67 1 min 0,000 mm 5,2 UV-I 907 W/m 9,2 C 22,8 C 16,1 km/h (3 Bft) 100,00 %
09.08.2022 11:56 22,8 C 41 % 1023,6 hPa 0,0 l/m 9,7 km/h (2 Bft) O-NO 67 1 min 0,000 mm 5,2 UV-I 911 W/m 8,9 C 22,8 C 14,5 km/h (3 Bft) 100,00 %
09.08.2022 11:55 22,8 C 43 % 1023,5 hPa 0,0 l/m 11,3 km/h (2 Bft) O-NO 67 1 min 0,000 mm 5,2 UV-I 895 W/m 9,6 C 22,8 C 16,1 km/h (3 Bft) 100,00 %
09.08.2022 11:54 22,8 C 43 % 1023,6 hPa 0,0 l/m 11,3 km/h (2 Bft) NO 45 1 min 0,000 mm 4,2 UV-I 895 W/m 9,6 C 22,8 C 14,5 km/h (3 Bft) 100,00 %
09.08.2022 11:53 22,7 C 44 % 1023,5 hPa 0,0 l/m 8,0 km/h (2 Bft) O-SO 112 1 min 0,000 mm 3,7 UV-I 895 W/m 9,8 C 22,7 C 14,5 km/h (3 Bft) 95,65 %
09.08.2022 11:52 22,7 C 44 % 1023,5 hPa 0,0 l/m 6,4 km/h (2 Bft) O-NO 67 1 min 0,000 mm 5,1 UV-I 895 W/m 9,8 C 22,7 C 8,0 km/h (2 Bft) 100,00 %
09.08.2022 11:51 22,6 C 43 % 1023,6 hPa 0,0 l/m 4,8 km/h (1 Bft) O-NO 67 1 min 0,000 mm 5,2 UV-I 882 W/m 9,4 C 22,6 C 6,4 km/h (2 Bft) 100,00 %
09.08.2022 11:50 22,6 C 43 % 1023,5 hPa 0,0 l/m 3,2 km/h (1 Bft) O-SO 112 1 min 0,000 mm 5,0 UV-I 870 W/m 9,4 C 22,6 C 4,8 km/h (1 Bft) 100,00 %
09.08.2022 11:49 22,6 C 43 % 1023,6 hPa 0,0 l/m 4,8 km/h (1 Bft) O-SO 112 1 min 0,000 mm 5,0 UV-I 856 W/m 9,4 C 22,6 C 11,3 km/h (2 Bft) 100,00 %
09.08.2022 11:48 22,6 C 42 % 1023,6 hPa 0,0 l/m 1,6 km/h (1 Bft) O-SO 112 1 min 0,000 mm 4,9 UV-I 823 W/m 9,0 C 22,6 C 3,2 km/h (1 Bft) 100,00 %
09.08.2022 11:47 22,8 C 43 % 1023,6 hPa 0,0 l/m 6,4 km/h (2 Bft) O-NO 67 1 min 0,000 mm 4,9 UV-I 842 W/m 9,6 C 22,8 C 11,3 km/h (2 Bft) 100,00 %
09.08.2022 11:46 22,7 C 43 % 1023,6 hPa 0,0 l/m 4,8 km/h (1 Bft) O 90 1 min 0,000 mm 5,0 UV-I 844 W/m 9,5 C 22,7 C 12,9 km/h (3 Bft) 95,65 %
09.08.2022 11:45 22,6 C 44 % 1023,6 hPa 0,0 l/m 8,0 km/h (2 Bft) O-NO 67 1 min 0,000 mm 4,9 UV-I 844 W/m 9,7 C 22,6 C 11,3 km/h (2 Bft) 100,00 %
09.08.2022 11:44 22,5 C 44 % 1023,6 hPa 0,0 l/m 8,0 km/h (2 Bft) NO 45 1 min 0,000 mm 4,9 UV-I 831 W/m 9,6 C 22,5 C 11,3 km/h (2 Bft) 100,00 %
09.08.2022 11:43 22,6 C 43 % 1023,6 hPa 0,0 l/m 4,8 km/h (1 Bft) N 360 1 min 0,000 mm 4,9 UV-I 823 W/m 9,4 C 22,6 C 8,0 km/h (2 Bft) 100,00 %
09.08.2022 11:42 22,7 C 41 % 1023,6 hPa 0,0 l/m 1,6 km/h (1 Bft) N 360 1 min 0,000 mm 4,8 UV-I 816 W/m 8,8 C 22,7 C 4,8 km/h (1 Bft) 95,65 %
09.08.2022 11:41 22,8 C 42 % 1023,6 hPa 0,0 l/m 9,7 km/h (2 Bft) NO 45 1 min 0,000 mm 4,8 UV-I 819 W/m 9,2 C 22,8 C 14,5 km/h (3 Bft) 95,65 %
09.08.2022 11:40 22,9 C 43 % 1023,6 hPa 0,0 l/m 6,4 km/h (2 Bft) O-NO 67 1 min 0,000 mm 4,8 UV-I 809 W/m 9,6 C 22,9 C 9,7 km/h (2 Bft) 100,00 %
09.08.2022 11:39 22,9 C 43 % 1023,7 hPa 0,0 l/m 9,7 km/h (2 Bft) O-NO 67 1 min 0,000 mm 3,8 UV-I 758 W/m 9,6 C 22,9 C 12,9 km/h (3 Bft) 95,65 %
09.08.2022 11:38 23,0 C 43 % 1023,6 hPa 0,0 l/m 6,4 km/h (2 Bft) NO 45 1 min 0,000 mm 4,6 UV-I 805 W/m 9,7 C 23,0 C 11,3 km/h (2 Bft) 95,65 %
09.08.2022 11:37 22,9 C 43 % 1023,7 hPa 0,0 l/m 6,4 km/h (2 Bft) O-NO 67 1 min 0,000 mm 4,7 UV-I 807 W/m 9,6 C 22,9 C 9,7 km/h (2 Bft) 95,65 %
09.08.2022 11:36 22,9 C 45 % 1023,7 hPa 0,0 l/m 8,0 km/h (2 Bft) O-NO 67 1 min 0,000 mm 4,7 UV-I 802 W/m 10,3 C 22,9 C 14,5 km/h (3 Bft) 95,65 %
09.08.2022 11:35 22,9 C 42 % 1023,7 hPa 0,0 l/m 9,7 km/h (2 Bft) O-NO 67 1 min 0,000 mm 4,7 UV-I 758 W/m 9,3 C 22,9 C 16,1 km/h (3 Bft) 100,00 %
09.08.2022 11:34 23,0 C 43 % 1023,7 hPa 0,0 l/m 6,4 km/h (2 Bft) O-SO 112 1 min 0,000 mm 4,7 UV-I 782 W/m 9,7 C 23,0 C 11,3 km/h (2 Bft) 95,65 %
09.08.2022 11:33 22,9 C 43 % 1023,7 hPa 0,0 l/m 9,7 km/h (2 Bft) O-SO 112 1 min 0,000 mm 4,7 UV-I 786 W/m 9,6 C 22,9 C 14,5 km/h (3 Bft) 100,00 %
09.08.2022 11:32 22,9 C 44 % 1023,7 hPa 0,0 l/m 11,3 km/h (2 Bft) O-SO 112 1 min 0,000 mm 4,7 UV-I 795 W/m 10,0 C 22,9 C 16,1 km/h (3 Bft) 91,30 %
09.08.2022 11:31 22,9 C 42 % 1023,7 hPa 0,0 l/m 6,4 km/h (2 Bft) O-SO 112 1 min 0,000 mm 4,7 UV-I 796 W/m 9,3 C 22,9 C 12,9 km/h (3 Bft) 95,65 %
09.08.2022 11:30 23,1 C 41 % 1023,7 hPa 0,0 l/m 8,0 km/h (2 Bft) O-NO 67 1 min 0,000 mm 4,7 UV-I 803 W/m 9,1 C 23,1 C 12,9 km/h (3 Bft) 95,65 %
09.08.2022 11:29 23,3 C 43 % 1023,6 hPa 0,0 l/m 9,7 km/h (2 Bft) O-SO 112 1 min 0,000 mm 4,6 UV-I 810 W/m 10,0 C 23,3 C 12,9 km/h (3 Bft) 100,00 %
09.08.2022 11:28 23,4 C 45 % 1023,7 hPa 0,0 l/m 4,8 km/h (1 Bft) S-SO 157 1 min 0,000 mm 4,4 UV-I 833 W/m 10,8 C 23,4 C 12,9 km/h (3 Bft) 95,65 %
09.08.2022 11:27 23,4 C 43 % 1023,7 hPa 0,0 l/m 4,8 km/h (1 Bft) O-SO 112 1 min 0,000 mm 4,6 UV-I 833 W/m 10,1 C 23,4 C 11,3 km/h (2 Bft) 95,65 %
09.08.2022 11:26 23,4 C 41 % 1023,7 hPa 0,0 l/m 3,2 km/h (1 Bft) O-SO 112 1 min 0,000 mm 4,6 UV-I 784 W/m 9,4 C 23,4 C 4,8 km/h (1 Bft) 100,00 %
09.08.2022 11:25 23,4 C 43 % 1023,7 hPa 0,0 l/m 6,4 km/h (2 Bft) O-SO 112 1 min 0,000 mm 4,5 UV-I 784 W/m 10,1 C 23,4 C 11,3 km/h (2 Bft) 91,30 %
09.08.2022 11:24 23,3 C 43 % 1023,7 hPa 0,0 l/m 6,4 km/h (2 Bft) NO 45 1 min 0,000 mm 4,5 UV-I 784 W/m 10,0 C 23,3 C 12,9 km/h (3 Bft) 100,00 %
09.08.2022 11:23 23,3 C 44 % 1023,7 hPa 0,0 l/m 3,2 km/h (1 Bft) O-NO 67 1 min 0,000 mm 4,5 UV-I 789 W/m 10,4 C 23,3 C 6,4 km/h (2 Bft) 95,65 %
09.08.2022 11:22 23,3 C 43 % 1023,7 hPa 0,0 l/m 4,8 km/h (1 Bft) O 90 1 min 0,000 mm 4,5 UV-I 784 W/m 10,0 C 23,3 C 8,0 km/h (2 Bft) 100,00 %
09.08.2022 11:21 23,2 C 43 % 1023,5 hPa 0,0 l/m 6,4 km/h (2 Bft) N-NO 22 1 min 0,000 mm 4,5 UV-I 789 W/m 9,9 C 23,2 C 11,3 km/h (2 Bft) 95,65 %
09.08.2022 11:20 23,2 C 43 % 1023,7 hPa 0,0 l/m 9,7 km/h (2 Bft) S 180 1 min 0,000 mm 4,5 UV-I 789 W/m 9,9 C 23,2 C 14,5 km/h (3 Bft) 100,00 %
09.08.2022 11:19 23,2 C 44 % 1023,5 hPa 0,0 l/m 3,2 km/h (1 Bft) W-NW 292 1 min 0,000 mm 4,4 UV-I 788 W/m 10,3 C 23,2 C 6,4 km/h (2 Bft) 95,65 %
09.08.2022 11:18 23,2 C 42 % 1023,7 hPa 0,0 l/m 3,2 km/h (1 Bft) W-SW 247 1 min 0,000 mm 4,4 UV-I 780 W/m 9,6 C 23,2 C 4,8 km/h (1 Bft) 91,30 %
09.08.2022 11:17 23,2 C 43 % 1023,7 hPa 0,0 l/m 3,2 km/h (1 Bft) SW 225 1 min 0,000 mm 4,4 UV-I 784 W/m 9,9 C 23,2 C 4,8 km/h (1 Bft) 100,00 %
09.08.2022 11:16 23,1 C 42 % 1023,6 hPa 0,0 l/m 6,4 km/h (2 Bft) SW 225 1 min 0,000 mm 4,3 UV-I 793 W/m 9,5 C 23,1 C 8,0 km/h (2 Bft) 95,65 %
09.08.2022 11:15 23,1 C 43 % 1023,7 hPa 0,0 l/m 1,6 km/h (1 Bft) S 180 1 min 0,000 mm 4,4 UV-I 786 W/m 9,8 C 23,1 C 3,2 km/h (1 Bft) 95,65 %
09.08.2022 11:14 23,1 C 43 % 1023,7 hPa 0,0 l/m 3,2 km/h (1 Bft) S 180 1 min 0,000 mm 4,3 UV-I 775 W/m 9,8 C 23,1 C 6,4 km/h (2 Bft) 100,00 %
09.08.2022 11:13 23,1 C 43 % 1023,7 hPa 0,0 l/m 1,6 km/h (1 Bft) SO 135 1 min 0,000 mm 4,2 UV-I 754 W/m 9,8 C 23,1 C 3,2 km/h (1 Bft) 100,00 %
09.08.2022 11:12 23,1 C 43 % 1023,7 hPa 0,0 l/m 1,6 km/h (1 Bft) SO 135 1 min 0,000 mm 4,3 UV-I 770 W/m 9,8 C 23,1 C 3,2 km/h (1 Bft) 100,00 %
09.08.2022 11:11 23,0 C 44 % 1023,7 hPa 0,0 l/m 3,2 km/h (1 Bft) SO 135 1 min 0,000 mm 4,1 UV-I 754 W/m 10,1 C 23,0 C 4,8 km/h (1 Bft) 91,30 %
09.08.2022 11:10 23,0 C 43 % 1023,7 hPa 0,0 l/m 3,2 km/h (1 Bft) S-SO 157 1 min 0,000 mm 4,2 UV-I 754 W/m 9,7 C 23,0 C 6,4 km/h (2 Bft) 100,00 %
09.08.2022 11:09 23,0 C 44 % 1023,8 hPa 0,0 l/m 8,0 km/h (2 Bft) S 180 1 min 0,000 mm 3,4 UV-I 754 W/m 10,1 C 23,0 C 11,3 km/h (2 Bft) 100,00 %
09.08.2022 11:08 23,0 C 43 % 1023,7 hPa 0,0 l/m 8,0 km/h (2 Bft) S 180 1 min 0,000 mm 4,0 UV-I 754 W/m 9,7 C 23,0 C 11,3 km/h (2 Bft) 100,00 %
09.08.2022 11:07 23,0 C 44 % 1023,7 hPa 0,0 l/m 3,2 km/h (1 Bft) NO 45 1 min 0,000 mm 4,0 UV-I 754 W/m 10,1 C 23,0 C 8,0 km/h (2 Bft) 100,00 %
09.08.2022 11:06 23,0 C 44 % 1023,7 hPa 0,0 l/m 3,2 km/h (1 Bft) NO 45 1 min 0,000 mm 4,1 UV-I 694 W/m 10,1 C 23,0 C 4,8 km/h (1 Bft) 100,00 %
09.08.2022 11:05 22,9 C 44 % 1023,7 hPa 0,0 l/m 1,6 km/h (1 Bft) NO 45 1 min 0,000 mm 4,0 UV-I 675 W/m 10,0 C 22,9 C 3,2 km/h (1 Bft) 100,00 %
09.08.2022 11:04 22,9 C 46 % 1023,8 hPa 0,0 l/m 4,8 km/h (1 Bft) S 180 1 min 0,000 mm 4,0 UV-I 735 W/m 10,7 C 22,9 C 8,0 km/h (2 Bft) 95,65 %
09.08.2022 11:03 22,9 C 45 % 1023,7 hPa 0,0 l/m 3,2 km/h (1 Bft) O 90 1 min 0,000 mm 4,0 UV-I 728 W/m 10,3 C 22,9 C 9,7 km/h (2 Bft) 100,00 %
09.08.2022 11:02 22,8 C 44 % 1023,7 hPa 0,0 l/m 4,8 km/h (1 Bft) O 90 1 min 0,000 mm 4,1 UV-I 765 W/m 9,9 C 22,8 C 11,3 km/h (2 Bft) 100,00 %
09.08.2022 11:01 22,8 C 43 % 1023,7 hPa 0,0 l/m 1,6 km/h (1 Bft) O 90 1 min 0,000 mm 3,9 UV-I 733 W/m 9,6 C 22,8 C 3,2 km/h (1 Bft) 91,30 %
09.08.2022 11:00 22,7 C 44 % 1023,8 hPa 0,0 l/m 3,2 km/h (1 Bft) O 90 1 min 0,457 mm 3,9 UV-I 724 W/m 9,8 C 22,7 C 4,8 km/h (1 Bft) 100,00 %
09.08.2022 10:59 22,7 C 43 % 1023,7 hPa 0,0 l/m 4,8 km/h (1 Bft) O 90 1 min 0,000 mm 3,9 UV-I 687 W/m 9,5 C 22,7 C 9,7 km/h (2 Bft) 100,00 %
09.08.2022 10:58 22,7 C 44 % 1023,8 hPa 0,0 l/m 4,8 km/h (1 Bft) SO 135 1 min 0,000 mm 3,5 UV-I 710 W/m 9,8 C 22,7 C 9,7 km/h (2 Bft) 100,00 %
09.08.2022 10:57 22,7 C 44 % 1023,7 hPa 0,0 l/m 8,0 km/h (2 Bft) S 180 1 min 0,000 mm 3,7 UV-I 715 W/m 9,8 C 22,7 C 11,3 km/h (2 Bft) 95,65 %
09.08.2022 10:56 22,7 C 43 % 1023,7 hPa 0,0 l/m 8,0 km/h (2 Bft) S 180 1 min 0,000 mm 3,8 UV-I 691 W/m 9,5 C 22,7 C 12,9 km/h (3 Bft) 100,00 %
09.08.2022 10:55 22,6 C 43 % 1023,7 hPa 0,0 l/m 3,2 km/h (1 Bft) O-SO 112 1 min 0,000 mm 3,8 UV-I 691 W/m 9,4 C 22,6 C 8,0 km/h (2 Bft) 100,00 %
09.08.2022 10:54 22,6 C 43 % 1023,8 hPa 0,0 l/m 1,6 km/h (1 Bft) O-SO 112 1 min 0,000 mm 3,8 UV-I 701 W/m 9,4 C 22,6 C 4,8 km/h (1 Bft) 100,00 %
09.08.2022 10:53 22,6 C 43 % 1023,8 hPa 0,0 l/m 3,2 km/h (1 Bft) O 90 1 min 0,000 mm 3,8 UV-I 705 W/m 9,4 C 22,6 C 4,8 km/h (1 Bft) 100,00 %
09.08.2022 10:52 22,6 C 44 % 1023,7 hPa 0,0 l/m 6,4 km/h (2 Bft) O-SO 112 1 min 0,000 mm 3,8 UV-I 705 W/m 9,7 C 22,6 C 9,7 km/h (2 Bft) 100,00 %
09.08.2022 10:51 22,6 C 44 % 1023,7 hPa 0,0 l/m 9,7 km/h (2 Bft) O 90 1 min 0,000 mm 3,8 UV-I 698 W/m 9,7 C 22,6 C 12,9 km/h (3 Bft) 100,00 %
09.08.2022 10:50 22,5 C 43 % 1023,7 hPa 0,0 l/m 6,4 km/h (2 Bft) SO 135 1 min 0,000 mm 3,8 UV-I 693 W/m 9,3 C 22,5 C 11,3 km/h (2 Bft) 95,65 %
09.08.2022 10:49 22,5 C 45 % 1023,8 hPa 0,0 l/m 11,3 km/h (2 Bft) S 180 1 min 0,000 mm 3,8 UV-I 687 W/m 10,0 C 22,5 C 16,1 km/h (3 Bft) 100,00 %
09.08.2022 10:48 22,5 C 43 % 1023,7 hPa 0,0 l/m 6,4 km/h (2 Bft) S 180 1 min 0,000 mm 3,7 UV-I 680 W/m 9,3 C 22,5 C 8,0 km/h (2 Bft) 100,00 %
09.08.2022 10:47 22,4 C 44 % 1023,7 hPa 0,0 l/m 6,4 km/h (2 Bft) S 180 1 min 0,000 mm 3,7 UV-I 680 W/m 9,5 C 22,4 C 9,7 km/h (2 Bft) 100,00 %
09.08.2022 10:46 22,4 C 44 % 1023,7 hPa 0,0 l/m 3,2 km/h (1 Bft) S 180 1 min 0,000 mm 3,6 UV-I 691 W/m 9,5 C 22,4 C 8,0 km/h (2 Bft) 95,65 %
09.08.2022 10:45 22,4 C 44 % 1023,8 hPa 0,0 l/m 4,8 km/h (1 Bft) O-SO 112 1 min 0,000 mm 3,6 UV-I 694 W/m 9,5 C 22,4 C 6,4 km/h (2 Bft) 100,00 %
09.08.2022 10:44 22,3 C 44 % 1023,7 hPa 0,0 l/m 8,0 km/h (2 Bft) O-SO 112 1 min 0,000 mm 3,6 UV-I 682 W/m 9,5 C 22,3 C 11,3 km/h (2 Bft) 100,00 %
09.08.2022 10:43 22,3 C 43 % 1023,7 hPa 0,0 l/m 3,2 km/h (1 Bft) O-NO 67 1 min 0,000 mm 3,5 UV-I 666 W/m 9,1 C 22,3 C 11,3 km/h (2 Bft) 95,65 %
09.08.2022 10:42 22,2 C 43 % 1023,8 hPa 0,0 l/m 1,6 km/h (1 Bft) SO 135 1 min 0,000 mm 3,5 UV-I 657 W/m 9,0 C 22,2 C 4,8 km/h (1 Bft) 100,00 %
09.08.2022 10:41 22,2 C 44 % 1023,7 hPa 0,0 l/m 4,8 km/h (1 Bft) SO 135 1 min 0,000 mm 3,5 UV-I 652 W/m 9,4 C 22,2 C 6,4 km/h (2 Bft) 100,00 %
09.08.2022 10:40 22,2 C 43 % 1023,7 hPa 0,0 l/m 3,2 km/h (1 Bft) O 90 1 min 0,000 mm 3,4 UV-I 645 W/m 9,0 C 22,2 C 6,4 km/h (2 Bft) 100,00 %
09.08.2022 10:39 22,2 C 44 % 1023,8 hPa 0,0 l/m 3,2 km/h (1 Bft) O 90 1 min 0,000 mm 3,4 UV-I 642 W/m 9,4 C 22,2 C 4,8 km/h (1 Bft) 100,00 %
09.08.2022 10:38 22,1 C 44 % 1023,7 hPa 0,0 l/m 4,8 km/h (1 Bft) O 90 1 min 0,000 mm 3,4 UV-I 638 W/m 9,3 C 22,1 C 6,4 km/h (2 Bft) 100,00 %
09.08.2022 10:37 22,1 C 43 % 1023,7 hPa 0,0 l/m 3,2 km/h (1 Bft) O-SO 112 1 min 0,000 mm 3,4 UV-I 635 W/m 8,9 C 22,1 C 6,4 km/h (2 Bft) 100,00 %
09.08.2022 10:36 22,1 C 44 % 1023,8 hPa 0,0 l/m 9,7 km/h (2 Bft) O-SO 112 1 min 0,000 mm 3,4 UV-I 633 W/m 9,3 C 22,1 C 14,5 km/h (3 Bft) 91,30 %
09.08.2022 10:35 22,1 C 46 % 1023,7 hPa 0,0 l/m 3,2 km/h (1 Bft) O-SO 112 1 min 0,000 mm 3,3 UV-I 629 W/m 9,9 C 22,1 C 6,4 km/h (2 Bft) 100,00 %
09.08.2022 10:34 22,1 C 45 % 1023,7 hPa 0,0 l/m 6,4 km/h (2 Bft) O-NO 67 1 min 0,000 mm 3,3 UV-I 628 W/m 9,6 C 22,1 C 12,9 km/h (3 Bft) 100,00 %
09.08.2022 10:33 22,1 C 44 % 1023,7 hPa 0,0 l/m 4,8 km/h (1 Bft) O-SO 112 1 min 0,000 mm 3,3 UV-I 628 W/m 9,3 C 22,1 C 9,7 km/h (2 Bft) 100,00 %
09.08.2022 10:32 22,1 C 44 % 1023,7 hPa 0,0 l/m 4,8 km/h (1 Bft) SO 135 1 min 0,000 mm 3,3 UV-I 626 W/m 9,3 C 22,1 C 9,7 km/h (2 Bft) 100,00 %
09.08.2022 10:31 22,2 C 44 % 1023,7 hPa 0,0 l/m 6,4 km/h (2 Bft) S 180 1 min 0,000 mm 3,3 UV-I 628 W/m 9,4 C 22,2 C 11,3 km/h (2 Bft) 95,65 %
09.08.2022 10:30 22,2 C 44 % 1023,7 hPa 0,0 l/m 4,8 km/h (1 Bft) O-NO 67 1 min 0,000 mm 3,2 UV-I 624 W/m 9,4 C 22,2 C 9,7 km/h (2 Bft) 95,65 %
09.08.2022 10:29 22,2 C 43 % 1023,6 hPa 0,0 l/m 6,4 km/h (2 Bft) S-SO 157 1 min 0,000 mm 3,2 UV-I 621 W/m 9,0 C 22,2 C 16,1 km/h (3 Bft) 95,65 %
09.08.2022 10:28 22,1 C 43 % 1023,6 hPa 0,0 l/m 8,0 km/h (2 Bft) S 180 1 min 0,000 mm 3,2 UV-I 613 W/m 8,9 C 22,1 C 16,1 km/h (3 Bft) 100,00 %
09.08.2022 10:27 22,1 C 44 % 1023,7 hPa 0,0 l/m 11,3 km/h (2 Bft) S 180 1 min 0,000 mm 3,2 UV-I 613 W/m 9,3 C 22,1 C 17,7 km/h (3 Bft) 100,00 %
09.08.2022 10:26 22,2 C 44 % 1023,7 hPa 0,0 l/m 4,8 km/h (1 Bft) O 90 1 min 0,000 mm 3,1 UV-I 613 W/m 9,4 C 22,2 C 9,7 km/h (2 Bft) 100,00 %
09.08.2022 10:25 22,1 C 43 % 1023,6 hPa 0,0 l/m 3,2 km/h (1 Bft) O 90 1 min 0,000 mm 3,1 UV-I 612 W/m 8,9 C 22,1 C 4,8 km/h (1 Bft) 100,00 %
09.08.2022 10:24 22,1 C 43 % 1023,6 hPa 0,0 l/m 3,2 km/h (1 Bft) O 90 1 min 0,000 mm 3,1 UV-I 608 W/m 8,9 C 22,1 C 6,4 km/h (2 Bft) 100,00 %
09.08.2022 10:23 22,1 C 42 % 1023,7 hPa 0,0 l/m 1,6 km/h (1 Bft) O 90 1 min 0,000 mm 3,1 UV-I 603 W/m 8,6 C 22,1 C 4,8 km/h (1 Bft) 100,00 %
09.08.2022 10:22 22,1 C 42 % 1023,6 hPa 0,0 l/m 4,8 km/h (1 Bft) SO 135 1 min 0,000 mm 3,0 UV-I 598 W/m 8,6 C 22,1 C 8,0 km/h (2 Bft) 100,00 %
09.08.2022 10:21 22,1 C 43 % 1023,6 hPa 0,0 l/m 3,2 km/h (1 Bft) SO 135 1 min 0,000 mm 3,0 UV-I 598 W/m 8,9 C 22,1 C 4,8 km/h (1 Bft) 95,65 %
09.08.2022 10:20 22,1 C 44 % 1023,6 hPa 0,0 l/m 4,8 km/h (1 Bft) O 90 1 min 0,000 mm 3,0 UV-I 594 W/m 9,3 C 22,1 C 8,0 km/h (2 Bft) 95,65 %
09.08.2022 10:19 22,1 C 44 % 1023,6 hPa 0,0 l/m 4,8 km/h (1 Bft) O-SO 112 1 min 0,000 mm 3,0 UV-I 592 W/m 9,3 C 22,1 C 9,7 km/h (2 Bft) 100,00 %
09.08.2022 10:18 22,1 C 43 % 1023,7 hPa 0,0 l/m 4,8 km/h (1 Bft) O-SO 112 1 min 0,000 mm 3,0 UV-I 592 W/m 8,9 C 22,1 C 6,4 km/h (2 Bft) 95,65 %
09.08.2022 10:17 22,1 C 43 % 1023,6 hPa 0,0 l/m 6,4 km/h (2 Bft) O-SO 112 1 min 0,000 mm 3,0 UV-I 591 W/m 8,9 C 22,1 C 12,9 km/h (3 Bft) 95,65 %
09.08.2022 10:16 22,1 C 43 % 1023,6 hPa 0,0 l/m 9,7 km/h (2 Bft) O-SO 112 1 min 0,000 mm 2,9 UV-I 587 W/m 8,9 C 22,1 C 12,9 km/h (3 Bft) 95,65 %
09.08.2022 10:15 22,1 C 44 % 1023,6 hPa 0,0 l/m 6,4 km/h (2 Bft) O-SO 112 1 min 0,000 mm 2,9 UV-I 587 W/m 9,3 C 22,1 C 12,9 km/h (3 Bft) 95,65 %
09.08.2022 10:14 22,0 C 44 % 1023,7 hPa 0,0 l/m 6,4 km/h (2 Bft) O-SO 112 1 min 0,000 mm 2,9 UV-I 585 W/m 9,2 C 22,0 C 11,3 km/h (2 Bft) 95,65 %
09.08.2022 10:13 22,0 C 43 % 1023,6 hPa 0,0 l/m 4,8 km/h (1 Bft) S 180 1 min 0,000 mm 2,9 UV-I 584 W/m 8,8 C 22,0 C 9,7 km/h (2 Bft) 95,65 %
09.08.2022 10:12 22,0 C 43 % 1023,6 hPa 0,0 l/m 3,2 km/h (1 Bft) SO 135 1 min 0,000 mm 2,9 UV-I 582 W/m 8,8 C 22,0 C 6,4 km/h (2 Bft) 100,00 %
09.08.2022 10:11 21,9 C 43 % 1023,6 hPa 0,0 l/m 3,2 km/h (1 Bft) NO 45 1 min 0,000 mm 2,8 UV-I 582 W/m 8,7 C 21,9 C 4,8 km/h (1 Bft) 95,65 %
09.08.2022 10:10 22,0 C 42 % 1023,6 hPa 0,0 l/m 8,0 km/h (2 Bft) O-SO 112 1 min 0,000 mm 2,8 UV-I 577 W/m 8,5 C 22,0 C 12,9 km/h (3 Bft) 95,65 %
09.08.2022 10:09 21,9 C 43 % 1023,6 hPa 0,0 l/m 11,3 km/h (2 Bft) O-SO 112 1 min 0,000 mm 2,8 UV-I 575 W/m 8,7 C 21,9 C 14,5 km/h (3 Bft) 95,65 %
09.08.2022 10:08 21,9 C 44 % 1023,6 hPa 0,0 l/m 3,2 km/h (1 Bft) O-SO 112 1 min 0,000 mm 2,8 UV-I 573 W/m 9,1 C 21,9 C 6,4 km/h (2 Bft) 95,65 %
09.08.2022 10:07 21,9 C 45 % 1023,7 hPa 0,0 l/m 4,8 km/h (1 Bft) O 90 1 min 0,000 mm 2,8 UV-I 571 W/m 9,4 C 21,9 C 9,7 km/h (2 Bft) 95,65 %
09.08.2022 10:06 21,9 C 47 % 1023,6 hPa 0,0 l/m 3,2 km/h (1 Bft) O 90 1 min 0,000 mm 2,7 UV-I 570 W/m 10,1 C 21,9 C 6,4 km/h (2 Bft) 91,30 %
09.08.2022 10:05 21,8 C 46 % 1023,6 hPa 0,0 l/m 3,2 km/h (1 Bft) O-SO 112 1 min 0,000 mm 2,7 UV-I 568 W/m 9,7 C 21,8 C 3,2 km/h (1 Bft) 100,00 %
09.08.2022 10:04 21,8 C 47 % 1023,6 hPa 0,0 l/m 4,8 km/h (1 Bft) O-SO 112 1 min 0,000 mm 2,7 UV-I 564 W/m 10,0 C 21,8 C 6,4 km/h (2 Bft) 95,65 %
09.08.2022 10:03 21,7 C 48 % 1023,6 hPa 0,0 l/m 1,6 km/h (1 Bft) O 90 1 min 0,000 mm 2,7 UV-I 561 W/m 10,2 C 21,7 C 4,8 km/h (1 Bft) 100,00 %
09.08.2022 10:02 21,7 C 46 % 1023,6 hPa 0,0 l/m 6,4 km/h (2 Bft) O-SO 112 1 min 0,000 mm 2,6 UV-I 559 W/m 9,6 C 21,7 C 9,7 km/h (2 Bft) 95,65 %
09.08.2022 10:01 21,6 C 44 % 1023,6 hPa 0,0 l/m 4,8 km/h (1 Bft) O 90 1 min 0,000 mm 2,6 UV-I 555 W/m 8,8 C 21,6 C 9,7 km/h (2 Bft) 95,65 %
09.08.2022 10:00 21,6 C 44 % 1023,6 hPa 0,0 l/m 3,2 km/h (1 Bft) O-NO 67 1 min 0,305 mm 2,6 UV-I 555 W/m 8,8 C 21,6 C 6,4 km/h (2 Bft) 91,30 %
09.08.2022 09:59 21,5 C 46 % 1023,6 hPa 0,0 l/m 3,2 km/h (1 Bft) O-SO 112 1 min 0,000 mm 2,6 UV-I 552 W/m 9,4 C 21,5 C 6,4 km/h (2 Bft) 95,65 %
09.08.2022 09:58 21,4 C 44 % 1023,6 hPa 0,0 l/m 4,8 km/h (1 Bft) O 90 1 min 0,000 mm 2,6 UV-I 548 W/m 8,6 C 21,4 C 11,3 km/h (2 Bft) 100,00 %
09.08.2022 09:57 21,4 C 44 % 1023,6 hPa 0,0 l/m 1,6 km/h (1 Bft) O-SO 112 1 min 0,000 mm 2,6 UV-I 548 W/m 8,6 C 21,4 C 4,8 km/h (1 Bft) 100,00 %
09.08.2022 09:56 21,3 C 43 % 1023,6 hPa 0,0 l/m 3,2 km/h (1 Bft) O-NO 67 1 min 0,000 mm 2,5 UV-I 547 W/m 8,2 C 21,3 C 6,4 km/h (2 Bft) 95,65 %
09.08.2022 09:55 21,3 C 45 % 1023,7 hPa 0,0 l/m 4,8 km/h (1 Bft) O 90 1 min 0,000 mm 2,5 UV-I 543 W/m 8,9 C 21,3 C 8,0 km/h (2 Bft) 100,00 %
09.08.2022 09:54 21,2 C 46 % 1023,7 hPa 0,0 l/m 0,0 km/h (0 Bft) O 90 1 min 0,000 mm 2,5 UV-I 541 W/m 9,1 C 21,2 C 1,6 km/h (1 Bft) 100,00 %
09.08.2022 09:53 21,2 C 46 % 1023,7 hPa 0,0 l/m 1,6 km/h (1 Bft) O 90 1 min 0,000 mm 2,4 UV-I 536 W/m 9,1 C 21,2 C 3,2 km/h (1 Bft) 95,65 %
09.08.2022 09:52 21,1 C 45 % 1023,7 hPa 0,0 l/m 1,6 km/h (1 Bft) O 90 1 min 0,000 mm 2,4 UV-I 534 W/m 8,7 C 21,1 C 3,2 km/h (1 Bft) 100,00 %
09.08.2022 09:51 21,0 C 44 % 1023,7 hPa 0,0 l/m 1,6 km/h (1 Bft) O-SO 112 1 min 0,000 mm 2,4 UV-I 533 W/m 8,3 C 21,0 C 6,4 km/h (2 Bft) 95,65 %
09.08.2022 09:50 20,9 C 44 % 1023,6 hPa 0,0 l/m 1,6 km/h (1 Bft) O 90 1 min 0,000 mm 2,4 UV-I 531 W/m 8,2 C 20,9 C 3,2 km/h (1 Bft) 100,00 %
09.08.2022 09:49 20,9 C 43 % 1023,7 hPa 0,0 l/m 3,2 km/h (1 Bft) O 90 1 min 0,000 mm 2,4 UV-I 531 W/m 7,8 C 20,9 C 4,8 km/h (1 Bft) 100,00 %
09.08.2022 09:48 20,8 C 46 % 1023,7 hPa 0,0 l/m 3,2 km/h (1 Bft) O 90 1 min 0,000 mm 2,3 UV-I 527 W/m 8,8 C 20,8 C 8,0 km/h (2 Bft) 100,00 %
09.08.2022 09:47 20,7 C 46 % 1023,7 hPa 0,0 l/m 1,6 km/h (1 Bft) O 90 1 min 0,000 mm 2,3 UV-I 522 W/m 8,7 C 20,7 C 3,2 km/h (1 Bft) 100,00 %
09.08.2022 09:46 20,7 C 44 % 1023,7 hPa 0,0 l/m 1,6 km/h (1 Bft) O 90 1 min 0,000 mm 2,3 UV-I 520 W/m 8,0 C 20,7 C 4,8 km/h (1 Bft) 91,30 %
09.08.2022 09:45 20,6 C 45 % 1023,7 hPa 0,0 l/m 4,8 km/h (1 Bft) O 90 1 min 0,000 mm 2,3 UV-I 519 W/m 8,2 C 20,6 C 6,4 km/h (2 Bft) 100,00 %
09.08.2022 09:44 20,5 C 45 % 1023,7 hPa 0,0 l/m 1,6 km/h (1 Bft) O 90 1 min 0,000 mm 2,3 UV-I 515 W/m 8,2 C 20,5 C 3,2 km/h (1 Bft) 100,00 %
09.08.2022 09:43 20,4 C 45 % 1023,6 hPa 0,0 l/m 1,6 km/h (1 Bft) O 90 1 min 0,000 mm 2,2 UV-I 513 W/m 8,1 C 20,4 C 4,8 km/h (1 Bft) 100,00 %
09.08.2022 09:42 20,4 C 45 % 1023,7 hPa 0,0 l/m 4,8 km/h (1 Bft) O-NO 67 1 min 0,000 mm 2,2 UV-I 512 W/m 8,1 C 20,4 C 8,0 km/h (2 Bft) 100,00 %
09.08.2022 09:41 20,3 C 48 % 1023,7 hPa 0,0 l/m 1,6 km/h (1 Bft) O-NO 67 1 min 0,000 mm 2,2 UV-I 508 W/m 8,9 C 20,3 C 4,8 km/h (1 Bft) 100,00 %
09.08.2022 09:40 20,3 C 47 % 1023,5 hPa 0,0 l/m 1,6 km/h (1 Bft) O-NO 67 1 min 0,000 mm 2,2 UV-I 506 W/m 8,6 C 20,3 C 3,2 km/h (1 Bft) 100,00 %
09.08.2022 09:39 20,2 C 46 % 1023,6 hPa 0,0 l/m 0,0 km/h (0 Bft) O-NO 67 1 min 0,000 mm 2,2 UV-I 504 W/m 8,2 C 20,2 C 1,6 km/h (1 Bft) 95,65 %
09.08.2022 09:38 20,1 C 45 % 1023,6 hPa 0,0 l/m 1,6 km/h (1 Bft) O-NO 67 1 min 0,000 mm 2,1 UV-I 503 W/m 7,8 C 20,1 C 3,2 km/h (1 Bft) 100,00 %
09.08.2022 09:37 20,1 C 46 % 1023,5 hPa 0,0 l/m 1,6 km/h (1 Bft) O-NO 67 1 min 0,000 mm 2,1 UV-I 499 W/m 8,1 C 20,1 C 3,2 km/h (1 Bft) 100,00 %
09.08.2022 09:36 20,0 C 46 % 1023,5 hPa 0,0 l/m 3,2 km/h (1 Bft) O-NO 67 1 min 0,000 mm 2,1 UV-I 497 W/m 8,0 C 20,0 C 4,8 km/h (1 Bft) 100,00 %
09.08.2022 09:35 19,9 C 46 % 1023,6 hPa 0,0 l/m 1,6 km/h (1 Bft) O-NO 67 1 min 0,000 mm 2,1 UV-I 490 W/m 7,9 C 19,9 C 3,2 km/h (1 Bft) 95,65 %
09.08.2022 09:34 19,8 C 46 % 1023,5 hPa 0,0 l/m 4,8 km/h (1 Bft) O 90 1 min 0,000 mm 2,0 UV-I 485 W/m 7,8 C 19,8 C 9,7 km/h (2 Bft) 95,65 %
09.08.2022 09:33 19,8 C 46 % 1023,5 hPa 0,0 l/m 4,8 km/h (1 Bft) O-NO 67 1 min 0,000 mm 2,0 UV-I 482 W/m 7,8 C 19,8 C 11,3 km/h (2 Bft) 100,00 %
09.08.2022 09:32 19,7 C 46 % 1023,5 hPa 0,0 l/m 6,4 km/h (2 Bft) O 90 1 min 0,000 mm 2,0 UV-I 475 W/m 7,8 C 19,7 C 8,0 km/h (2 Bft) 95,65 %
09.08.2022 09:31 19,7 C 45 % 1023,5 hPa 0,0 l/m 4,8 km/h (1 Bft) O-NO 67 1 min 0,000 mm 2,0 UV-I 469 W/m 7,4 C 19,7 C 6,4 km/h (2 Bft) 95,65 %
09.08.2022 09:30 19,6 C 46 % 1023,5 hPa 0,0 l/m 4,8 km/h (1 Bft) O-NO 67 1 min 0,000 mm 2,0 UV-I 462 W/m 7,7 C 19,6 C 8,0 km/h (2 Bft) 100,00 %
09.08.2022 09:29 19,5 C 46 % 1023,5 hPa 0,0 l/m 6,4 km/h (2 Bft) NO 45 1 min 0,000 mm 1,9 UV-I 446 W/m 7,6 C 19,5 C 9,7 km/h (2 Bft) 100,00 %
09.08.2022 09:28 19,4 C 47 % 1023,5 hPa 0,0 l/m 4,8 km/h (1 Bft) O-NO 67 1 min 0,000 mm 1,9 UV-I 439 W/m 7,8 C 19,4 C 9,7 km/h (2 Bft) 100,00 %
09.08.2022 09:27 19,3 C 48 % 1023,4 hPa 0,0 l/m 6,4 km/h (2 Bft) O-NO 67 1 min 0,000 mm 1,9 UV-I 429 W/m 8,0 C 19,3 C 11,3 km/h (2 Bft) 100,00 %
09.08.2022 09:26 19,2 C 48 % 1023,5 hPa 0,0 l/m 4,8 km/h (1 Bft) O-NO 67 1 min 0,000 mm 1,9 UV-I 424 W/m 7,9 C 19,2 C 6,4 km/h (2 Bft) 95,65 %
09.08.2022 09:25 19,1 C 49 % 1023,5 hPa 0,0 l/m 3,2 km/h (1 Bft) NO 45 1 min 0,000 mm 1,9 UV-I 415 W/m 8,1 C 19,1 C 6,4 km/h (2 Bft) 95,65 %
09.08.2022 09:24 19,0 C 50 % 1023,4 hPa 0,0 l/m 6,4 km/h (2 Bft) O-NO 67 1 min 0,000 mm 1,8 UV-I 404 W/m 8,3 C 19,0 C 8,0 km/h (2 Bft) 100,00 %
09.08.2022 09:23 18,9 C 50 % 1023,5 hPa 0,0 l/m 8,0 km/h (2 Bft) O-NO 67 1 min 0,000 mm 1,8 UV-I 390 W/m 8,2 C 18,9 C 12,9 km/h (3 Bft) 100,00 %
09.08.2022 09:22 18,8 C 50 % 1023,5 hPa 0,0 l/m 4,8 km/h (1 Bft) O-SO 112 1 min 0,000 mm 1,8 UV-I 383 W/m 8,2 C 18,8 C 6,4 km/h (2 Bft) 100,00 %
09.08.2022 09:21 18,7 C 50 % 1023,4 hPa 0,0 l/m 1,6 km/h (1 Bft) O-SO 112 1 min 0,000 mm 1,8 UV-I 376 W/m 8,1 C 18,7 C 4,8 km/h (1 Bft) 100,00 %
09.08.2022 09:20 18,7 C 51 % 1023,4 hPa 0,0 l/m 1,6 km/h (1 Bft) O-SO 112 1 min 0,000 mm 1,8 UV-I 371 W/m 8,4 C 18,7 C 3,2 km/h (1 Bft) 100,00 %
09.08.2022 09:19 18,6 C 50 % 1023,4 hPa 0,0 l/m 3,2 km/h (1 Bft) O 90 1 min 0,000 mm 1,7 UV-I 366 W/m 8,0 C 18,6 C 4,8 km/h (1 Bft) 100,00 %
09.08.2022 09:18 18,5 C 50 % 1023,5 hPa 0,0 l/m 4,8 km/h (1 Bft) O-SO 112 1 min 0,000 mm 1,7 UV-I 359 W/m 7,9 C 18,5 C 9,7 km/h (2 Bft) 95,65 %
09.08.2022 09:17 18,4 C 51 % 1023,4 hPa 0,0 l/m 4,8 km/h (1 Bft) O 90 1 min 0,000 mm 1,7 UV-I 355 W/m 8,1 C 18,4 C 9,7 km/h (2 Bft) 100,00 %
09.08.2022 09:16 18,3 C 52 % 1023,4 hPa 0,0 l/m 4,8 km/h (1 Bft) NO 45 1 min 0,000 mm 1,7 UV-I 353 W/m 8,3 C 18,3 C 4,8 km/h (1 Bft) 95,65 %
09.08.2022 09:15 18,2 C 52 % 1023,5 hPa 0,0 l/m 3,2 km/h (1 Bft) O 90 1 min 0,000 mm 1,7 UV-I 350 W/m 8,2 C 18,2 C 6,4 km/h (2 Bft) 100,00 %
09.08.2022 09:14 18,2 C 52 % 1023,5 hPa 0,0 l/m 3,2 km/h (1 Bft) NO 45 1 min 0,000 mm 1,6 UV-I 350 W/m 8,2 C 18,2 C 6,4 km/h (2 Bft) 100,00 %
09.08.2022 09:13 18,1 C 53 % 1023,5 hPa 0,0 l/m 6,4 km/h (2 Bft) O 90 1 min 0,000 mm 1,6 UV-I 350 W/m 8,4 C 18,1 C 11,3 km/h (2 Bft) 100,00 %
09.08.2022 09:12 18,0 C 53 % 1023,5 hPa 0,0 l/m 4,8 km/h (1 Bft) NO 45 1 min 0,000 mm 1,6 UV-I 348 W/m 8,3 C 18,0 C 8,0 km/h (2 Bft) 100,00 %
09.08.2022 09:11 17,9 C 53 % 1023,4 hPa 0,0 l/m 3,2 km/h (1 Bft) O-NO 67 1 min 0,000 mm 1,6 UV-I 350 W/m 8,2 C 17,9 C 8,0 km/h (2 Bft) 91,30 %
09.08.2022 09:10 17,8 C 54 % 1023,4 hPa 0,0 l/m 3,2 km/h (1 Bft) O-NO 67 1 min 0,000 mm 1,5 UV-I 350 W/m 8,4 C 17,8 C 4,8 km/h (1 Bft) 100,00 %
09.08.2022 09:09 17,7 C 55 % 1023,4 hPa 0,0 l/m 3,2 km/h (1 Bft) O-NO 67 1 min 0,000 mm 1,5 UV-I 350 W/m 8,5 C 17,7 C 4,8 km/h (1 Bft) 100,00 %
09.08.2022 09:08 17,7 C 55 % 1023,5 hPa 0,0 l/m 4,8 km/h (1 Bft) O-NO 67 1 min 0,000 mm 1,5 UV-I 352 W/m 8,5 C 17,7 C 4,8 km/h (1 Bft) 100,00 %
09.08.2022 09:07 17,6 C 55 % 1023,5 hPa 0,0 l/m 3,2 km/h (1 Bft) O-NO 67 1 min 0,000 mm 1,5 UV-I 355 W/m 8,5 C 17,6 C 3,2 km/h (1 Bft) 100,00 %
09.08.2022 09:06 17,5 C 56 % 1023,4 hPa 0,0 l/m 3,2 km/h (1 Bft) O-NO 67 1 min 0,000 mm 1,5 UV-I 355 W/m 8,6 C 17,5 C 4,8 km/h (1 Bft) 95,65 %
09.08.2022 09:05 17,4 C 56 % 1023,5 hPa 0,0 l/m 3,2 km/h (1 Bft) O-NO 67 1 min 0,000 mm 1,5 UV-I 355 W/m 8,5 C 17,4 C 4,8 km/h (1 Bft) 100,00 %
09.08.2022 09:04 17,4 C 58 % 1023,5 hPa 0,0 l/m 3,2 km/h (1 Bft) O-NO 67 1 min 0,000 mm 1,4 UV-I 353 W/m 9,1 C 17,4 C 4,8 km/h (1 Bft) 95,65 %
09.08.2022 09:03 17,3 C 58 % 1023,5 hPa 0,0 l/m 1,6 km/h (1 Bft) O 90 1 min 0,000 mm 1,4 UV-I 346 W/m 9,0 C 17,3 C 4,8 km/h (1 Bft) 100,00 %
09.08.2022 09:02 17,3 C 58 % 1023,4 hPa 0,0 l/m 4,8 km/h (1 Bft) O 90 1 min 0,000 mm 1,4 UV-I 338 W/m 9,0 C 17,3 C 6,4 km/h (2 Bft) 100,00 %
09.08.2022 09:01 17,2 C 58 % 1023,4 hPa 0,0 l/m 4,8 km/h (1 Bft) O 90 1 min 0,000 mm 1,4 UV-I 329 W/m 8,9 C 17,2 C 6,4 km/h (2 Bft) 91,30 %
09.08.2022 09:00 17,2 C 58 % 1023,5 hPa 0,0 l/m 3,2 km/h (1 Bft) O-SO 112 1 min 0,102 mm 1,3 UV-I 304 W/m 8,9 C 17,2 C 4,8 km/h (1 Bft) 100,00 %
09.08.2022 08:59 17,1 C 57 % 1023,5 hPa 0,0 l/m 6,4 km/h (2 Bft) O-SO 112 1 min 0,000 mm 1,3 UV-I 292 W/m 8,5 C 17,1 C 9,7 km/h (2 Bft) 95,65 %
09.08.2022 08:58 16,9 C 58 % 1023,4 hPa 0,0 l/m 6,4 km/h (2 Bft) O 90 1 min 0,000 mm 1,3 UV-I 283 W/m 8,6 C 16,9 C 11,3 km/h (2 Bft) 95,65 %
09.08.2022 08:57 16,8 C 58 % 1023,4 hPa 0,0 l/m 4,8 km/h (1 Bft) O 90 1 min 0,000 mm 1,3 UV-I 276 W/m 8,5 C 16,8 C 6,4 km/h (2 Bft) 95,65 %
09.08.2022 08:56 16,7 C 58 % 1023,5 hPa 0,0 l/m 6,4 km/h (2 Bft) O-SO 112 1 min 0,000 mm 1,3 UV-I 269 W/m 8,4 C 16,7 C 9,7 km/h (2 Bft) 95,65 %
09.08.2022 08:55 16,6 C 58 % 1023,4 hPa 0,0 l/m 4,8 km/h (1 Bft) O-SO 112 1 min 0,000 mm 1,3 UV-I 264 W/m 8,3 C 16,6 C 6,4 km/h (2 Bft) 100,00 %
09.08.2022 08:54 16,5 C 59 % 1023,4 hPa 0,0 l/m 8,0 km/h (2 Bft) O-SO 112 1 min 0,000 mm 1,3 UV-I 255 W/m 8,5 C 16,5 C 11,3 km/h (2 Bft) 95,65 %
09.08.2022 08:53 16,4 C 59 % 1023,3 hPa 0,0 l/m 6,4 km/h (2 Bft) O-SO 112 1 min 0,000 mm 1,2 UV-I 251 W/m 8,4 C 16,4 C 9,7 km/h (2 Bft) 100,00 %
09.08.2022 08:52 16,3 C 59 % 1023,4 hPa 0,0 l/m 6,4 km/h (2 Bft) O-SO 112 1 min 0,000 mm 1,2 UV-I 250 W/m 8,3 C 16,3 C 11,3 km/h (2 Bft) 95,65 %
09.08.2022 08:51 16,2 C 60 % 1023,4 hPa 0,0 l/m 8,0 km/h (2 Bft) O-SO 112 1 min 0,000 mm 1,2 UV-I 250 W/m 8,4 C 16,2 C 12,9 km/h (3 Bft) 95,65 %
09.08.2022 08:50 16,1 C 60 % 1023,4 hPa 0,0 l/m 8,0 km/h (2 Bft) O-SO 112 1 min 0,000 mm 1,2 UV-I 250 W/m 8,3 C 16,1 C 11,3 km/h (2 Bft) 91,30 %
09.08.2022 08:49 15,9 C 60 % 1023,4 hPa 0,0 l/m 9,7 km/h (2 Bft) O-SO 112 1 min 0,000 mm 1,2 UV-I 251 W/m 8,1 C 15,9 C 14,5 km/h (3 Bft) 95,65 %
09.08.2022 08:48 15,8 C 61 % 1023,3 hPa 0,0 l/m 9,7 km/h (2 Bft) O-SO 112 1 min 0,000 mm 1,1 UV-I 255 W/m 8,3 C 15,8 C 12,9 km/h (3 Bft) 100,00 %
09.08.2022 08:47 15,7 C 61 % 1023,3 hPa 0,0 l/m 8,0 km/h (2 Bft) O-SO 112 1 min 0,000 mm 1,1 UV-I 257 W/m 8,2 C 15,7 C 11,3 km/h (2 Bft) 95,65 %
09.08.2022 08:46 15,6 C 62 % 1023,3 hPa 0,0 l/m 6,4 km/h (2 Bft) O-SO 112 1 min 0,000 mm 1,1 UV-I 258 W/m 8,3 C 15,6 C 11,3 km/h (2 Bft) 91,30 %
09.08.2022 08:45 15,4 C 62 % 1023,3 hPa 0,0 l/m 8,0 km/h (2 Bft) O-SO 112 1 min 0,000 mm 1,1 UV-I 262 W/m 8,2 C 15,4 C 12,9 km/h (3 Bft) 95,65 %
09.08.2022 08:44 15,3 C 62 % 1023,3 hPa 0,0 l/m 4,8 km/h (1 Bft) O-SO 112 1 min 0,000 mm 1,0 UV-I 264 W/m 8,1 C 15,3 C 9,7 km/h (2 Bft) 95,65 %
09.08.2022 08:43 15,2 C 63 % 1023,3 hPa 0,0 l/m 6,4 km/h (2 Bft) O-SO 112 1 min 0,000 mm 1,0 UV-I 267 W/m 8,2 C 15,2 C 11,3 km/h (2 Bft) 91,30 %
09.08.2022 08:42 15,1 C 64 % 1023,3 hPa 0,0 l/m 8,0 km/h (2 Bft) O-SO 112 1 min 0,000 mm 1,0 UV-I 269 W/m 8,3 C 15,1 C 11,3 km/h (2 Bft) 100,00 %
09.08.2022 08:41 15,0 C 64 % 1023,3 hPa 0,0 l/m 8,0 km/h (2 Bft) O-SO 112 1 min 0,000 mm 1,0 UV-I 269 W/m 8,2 C 15,0 C 12,9 km/h (3 Bft) 100,00 %
09.08.2022 08:40 14,8 C 65 % 1023,3 hPa 0,0 l/m 8,0 km/h (2 Bft) O-SO 112 1 min 0,000 mm 1,0 UV-I 271 W/m 8,3 C 14,8 C 11,3 km/h (2 Bft) 95,65 %
09.08.2022 08:39 14,7 C 65 % 1023,2 hPa 0,0 l/m 9,7 km/h (2 Bft) O-SO 112 1 min 0,000 mm 1,0 UV-I 269 W/m 8,2 C 14,7 C 11,3 km/h (2 Bft) 100,00 %
09.08.2022 08:38 14,6 C 65 % 1023,3 hPa 0,0 l/m 3,2 km/h (1 Bft) NO 45 1 min 0,000 mm 0,9 UV-I 269 W/m 8,1 C 14,6 C 11,3 km/h (2 Bft) 100,00 %
09.08.2022 08:37 14,5 C 65 % 1023,3 hPa 0,0 l/m 1,6 km/h (1 Bft) NO 45 1 min 0,000 mm 0,7 UV-I 229 W/m 8,0 C 14,5 C 3,2 km/h (1 Bft) 100,00 %
09.08.2022 08:36 14,4 C 65 % 1023,2 hPa 0,0 l/m 3,2 km/h (1 Bft) NO 45 1 min 0,000 mm 0,7 UV-I 171 W/m 7,9 C 14,4 C 6,4 km/h (2 Bft) 95,65 %
09.08.2022 08:35 14,4 C 65 % 1023,3 hPa 0,0 l/m 3,2 km/h (1 Bft) O 90 0 min 0,000 mm 0,7 UV-I 116 W/m 7,9 C 14,4 C 6,4 km/h (2 Bft) 100,00 %
09.08.2022 08:34 14,3 C 65 % 1023,2 hPa 0,0 l/m 0,0 km/h (0 Bft) N 0 0 min 0,000 mm 0,7 UV-I 70 W/m 7,8 C 14,3 C 0,0 km/h (0 Bft) 100,00 %
09.08.2022 08:33 14,3 C 65 % 1023,2 hPa 0,0 l/m 0,0 km/h (0 Bft) N 0 0 min 0,000 mm 0,0 UV-I 42 W/m 7,8 C 14,3 C 0,0 km/h (0 Bft) 100,00 %
09.08.2022 08:32 14,3 C 65 % 1023,2 hPa 0,0 l/m 0,0 km/h (0 Bft) N 0 0 min 0,000 mm 0,0 UV-I 42 W/m 7,8 C 14,3 C 0,0 km/h (0 Bft) 100,00 %
09.08.2022 08:31 14,2 C 65 % 1023,3 hPa 0,0 l/m 0,0 km/h (0 Bft) N 0 0 min 0,000 mm 0,0 UV-I 42 W/m 7,7 C 14,2 C 0,0 km/h (0 Bft) 95,65 %
09.08.2022 08:30 14,1 C 65 % 1023,1 hPa 0,0 l/m 0,0 km/h (0 Bft) N 0 0 min 0,000 mm 0,0 UV-I 40 W/m 7,6 C 14,1 C 0,0 km/h (0 Bft) 100,00 %
09.08.2022 08:29 14,1 C 65 % 1023,1 hPa 0,0 l/m 0,0 km/h (0 Bft) N 0 0 min 0,000 mm 0,0 UV-I 40 W/m 7,6 C 14,1 C 0,0 km/h (0 Bft) 95,65 %
09.08.2022 08:28 14,1 C 65 % 1023,2 hPa 0,0 l/m 0,0 km/h (0 Bft) N 0 0 min 0,000 mm 0,0 UV-I 40 W/m 7,6 C 14,1 C 0,0 km/h (0 Bft) 100,00 %
09.08.2022 08:27 14,0 C 65 % 1023,2 hPa 0,0 l/m 0,0 km/h (0 Bft) N 0 0 min 0,000 mm 0,0 UV-I 40 W/m 7,5 C 14,0 C 0,0 km/h (0 Bft) 100,00 %
09.08.2022 08:26 13,9 C 65 % 1023,2 hPa 0,0 l/m 0,0 km/h (0 Bft) N 0 0 min 0,000 mm 0,0 UV-I 40 W/m 7,4 C 13,9 C 0,0 km/h (0 Bft) 100,00 %
09.08.2022 08:25 13,8 C 65 % 1023,1 hPa 0,0 l/m 0,0 km/h (0 Bft) N 0 0 min 0,000 mm 0,0 UV-I 39 W/m 7,3 C 13,8 C 0,0 km/h (0 Bft) 100,00 %
09.08.2022 08:24 13,8 C 65 % 1023,2 hPa 0,0 l/m 0,0 km/h (0 Bft) N 0 0 min 0,000 mm 0,0 UV-I 39 W/m 7,3 C 13,8 C 0,0 km/h (0 Bft) 100,00 %
09.08.2022 08:23 13,7 C 65 % 1023,2 hPa 0,0 l/m 0,0 km/h (0 Bft) N 0 0 min 0,000 mm 0,0 UV-I 39 W/m 7,2 C 13,7 C 0,0 km/h (0 Bft) 100,00 %
09.08.2022 08:22 13,6 C 65 % 1023,1 hPa 0,0 l/m 0,0 km/h (0 Bft) N 0 0 min 0,000 mm 0,0 UV-I 39 W/m 7,1 C 13,6 C 0,0 km/h (0 Bft) 95,65 %
09.08.2022 08:21 13,6 C 65 % 1023,2 hPa 0,0 l/m 0,0 km/h (0 Bft) N 0 0 min 0,000 mm 0,0 UV-I 39 W/m 7,1 C 13,6 C 0,0 km/h (0 Bft) 100,00 %
09.08.2022 08:20 13,5 C 65 % 1023,1 hPa 0,0 l/m 0,0 km/h (0 Bft) N 0 0 min 0,000 mm 0,0 UV-I 39 W/m 7,1 C 13,5 C 0,0 km/h (0 Bft) 100,00 %
09.08.2022 08:19 13,4 C 65 % 1023,1 hPa 0,0 l/m 0,0 km/h (0 Bft) N 0 0 min 0,000 mm 0,0 UV-I 37 W/m 7,0 C 13,4 C 0,0 km/h (0 Bft) 100,00 %
09.08.2022 08:18 13,3 C 65 % 1023,1 hPa 0,0 l/m 0,0 km/h (0 Bft) N 0 0 min 0,000 mm 0,0 UV-I 37 W/m 6,9 C 13,3 C 0,0 km/h (0 Bft) 100,00 %
09.08.2022 08:17 13,3 C 65 % 1023,1 hPa 0,0 l/m 0,0 km/h (0 Bft) N 0 0 min 0,000 mm 0,0 UV-I 37 W/m 6,9 C 13,3 C 0,0 km/h (0 Bft) 100,00 %
09.08.2022 08:16 13,2 C 65 % 1023,1 hPa 0,0 l/m 0,0 km/h (0 Bft) N 0 0 min 0,000 mm 0,0 UV-I 37 W/m 6,8 C 13,2 C 0,0 km/h (0 Bft) 95,65 %
09.08.2022 08:15 13,2 C 66 % 1023,1 hPa 0,0 l/m 0,0 km/h (0 Bft) N 0 0 min 0,000 mm 0,0 UV-I 37 W/m 7,0 C 13,2 C 0,0 km/h (0 Bft) 95,65 %
09.08.2022 08:14 13,1 C 66 % 1023,1 hPa 0,0 l/m 0,0 km/h (0 Bft) N 0 0 min 0,000 mm 0,0 UV-I 37 W/m 6,9 C 13,1 C 0,0 km/h (0 Bft) 100,00 %
09.08.2022 08:13 13,1 C 66 % 1023,1 hPa 0,0 l/m 0,0 km/h (0 Bft) N 0 0 min 0,000 mm 0,0 UV-I 35 W/m 6,9 C 13,1 C 0,0 km/h (0 Bft) 100,00 %
09.08.2022 08:12 13,0 C 66 % 1023,1 hPa 0,0 l/m 0,0 km/h (0 Bft) N 0 0 min 0,000 mm 0,0 UV-I 35 W/m 6,8 C 13,0 C 0,0 km/h (0 Bft) 100,00 %
09.08.2022 08:11 12,9 C 67 % 1023,0 hPa 0,0 l/m 0,0 km/h (0 Bft) N 0 0 min 0,000 mm 0,0 UV-I 35 W/m 6,9 C 12,9 C 0,0 km/h (0 Bft) 100,00 %
09.08.2022 08:10 12,9 C 67 % 1023,0 hPa 0,0 l/m 0,0 km/h (0 Bft) N 0 0 min 0,000 mm 0,0 UV-I 35 W/m 6,9 C 12,9 C 0,0 km/h (0 Bft) 100,00 %
09.08.2022 08:09 12,9 C 67 % 1023,0 hPa 0,0 l/m 0,0 km/h (0 Bft) N 0 0 min 0,000 mm 0,0 UV-I 35 W/m 6,9 C 12,9 C 0,0 km/h (0 Bft) 100,00 %
09.08.2022 08:08 12,9 C 68 % 1023,0 hPa 0,0 l/m 0,0 km/h (0 Bft) N 0 0 min 0,000 mm 0,0 UV-I 35 W/m 7,1 C 12,9 C 0,0 km/h (0 Bft) 95,65 %
09.08.2022 08:07 12,8 C 68 % 1023,0 hPa 0,0 l/m 0,0 km/h (0 Bft) N 0 0 min 0,000 mm 0,0 UV-I 33 W/m 7,0 C 12,8 C 0,0 km/h (0 Bft) 100,00 %
09.08.2022 08:06 12,8 C 68 % 1022,9 hPa 0,0 l/m 0,0 km/h (0 Bft) N 0 0 min 0,000 mm 0,0 UV-I 33 W/m 7,0 C 12,8 C 0,0 km/h (0 Bft) 100,00 %
09.08.2022 08:05 12,7 C 69 % 1023,0 hPa 0,0 l/m 0,0 km/h (0 Bft) N 0 0 min 0,000 mm 0,0 UV-I 33 W/m 7,2 C 12,7 C 0,0 km/h (0 Bft) 100,00 %
09.08.2022 08:04 12,7 C 69 % 1023,0 hPa 0,0 l/m 0,0 km/h (0 Bft) O-SO 112 0 min 0,000 mm 0,0 UV-I 33 W/m 7,2 C 12,7 C 1,6 km/h (1 Bft) 95,65 %
09.08.2022 08:03 12,6 C 69 % 1022,9 hPa 0,0 l/m 0,0 km/h (0 Bft) N 0 0 min 0,000 mm 0,0 UV-I 33 W/m 7,1 C 12,6 C 0,0 km/h (0 Bft) 100,00 %
09.08.2022 08:02 12,6 C 68 % 1023,0 hPa 0,0 l/m 0,0 km/h (0 Bft) N 0 0 min 0,000 mm 0,0 UV-I 33 W/m 6,9 C 12,6 C 0,0 km/h (0 Bft) 95,65 %
09.08.2022 08:01 12,6 C 68 % 1022,9 hPa 0,0 l/m 0,0 km/h (0 Bft) N 0 0 min 0,000 mm 0,0 UV-I 32 W/m 6,9 C 12,6 C 0,0 km/h (0 Bft) 95,65 %
09.08.2022 08:00 12,5 C 68 % 1023,0 hPa 0,0 l/m 0,0 km/h (0 Bft) N 0 0 min 0,025 mm 0,0 UV-I 32 W/m 6,8 C 12,5 C 0,0 km/h (0 Bft) 91,30 %
09.08.2022 07:59 12,4 C 68 % 1023,0 hPa 0,0 l/m 0,0 km/h (0 Bft) N 0 0 min 0,000 mm 0,0 UV-I 32 W/m 6,7 C 12,4 C 0,0 km/h (0 Bft) 100,00 %
09.08.2022 07:58 12,4 C 68 % 1023,0 hPa 0,0 l/m 0,0 km/h (0 Bft) N 0 0 min 0,000 mm 0,0 UV-I 32 W/m 6,7 C 12,4 C 0,0 km/h (0 Bft) 95,65 %
09.08.2022 07:57 12,4 C 68 % 1022,9 hPa 0,0 l/m 0,0 km/h (0 Bft) N 0 0 min 0,000 mm 0,0 UV-I 32 W/m 6,7 C 12,4 C 0,0 km/h (0 Bft) 95,65 %
09.08.2022 07:56 12,3 C 68 % 1023,0 hPa 0,0 l/m 0,0 km/h (0 Bft) N 0 0 min 0,000 mm 0,0 UV-I 30 W/m 6,6 C 12,3 C 0,0 km/h (0 Bft) 100,00 %
09.08.2022 07:55 12,3 C 68 % 1022,9 hPa 0,0 l/m 0,0 km/h (0 Bft) N 0 0 min 0,000 mm 0,0 UV-I 30 W/m 6,6 C 12,3 C 0,0 km/h (0 Bft) 95,65 %
09.08.2022 07:54 12,3 C 68 % 1022,9 hPa 0,0 l/m 0,0 km/h (0 Bft) N 0 0 min 0,000 mm 0,0 UV-I 30 W/m 6,6 C 12,3 C 0,0 km/h (0 Bft) 100,00 %
09.08.2022 07:53 12,2 C 68 % 1023,0 hPa 0,0 l/m 0,0 km/h (0 Bft) O-SO 112 0 min 0,000 mm 0,0 UV-I 30 W/m 6,5 C 12,2 C 1,6 km/h (1 Bft) 91,30 %
09.08.2022 07:52 12,2 C 68 % 1022,9 hPa 0,0 l/m 0,0 km/h (0 Bft) O-SO 112 0 min 0,000 mm 0,0 UV-I 30 W/m 6,5 C 12,2 C 1,6 km/h (1 Bft) 100,00 %
09.08.2022 07:51 12,2 C 68 % 1022,9 hPa 0,0 l/m 1,6 km/h (1 Bft) O-SO 112 0 min 0,000 mm 0,0 UV-I 30 W/m 6,5 C 12,2 C 1,6 km/h (1 Bft) 95,65 %
09.08.2022 07:50 12,1 C 68 % 1022,9 hPa 0,0 l/m 0,0 km/h (0 Bft) O-SO 112 0 min 0,000 mm 0,0 UV-I 28 W/m 6,4 C 12,1 C 1,6 km/h (1 Bft) 100,00 %
09.08.2022 07:49 12,1 C 68 % 1023,0 hPa 0,0 l/m 1,6 km/h (1 Bft) O-SO 112 0 min 0,000 mm 0,0 UV-I 28 W/m 6,4 C 12,1 C 1,6 km/h (1 Bft) 95,65 %
09.08.2022 07:48 12,1 C 68 % 1023,0 hPa 0,0 l/m 0,0 km/h (0 Bft) O-SO 112 0 min 0,000 mm 0,0 UV-I 28 W/m 6,4 C 12,1 C 1,6 km/h (1 Bft) 100,00 %
09.08.2022 07:47 12,1 C 68 % 1022,9 hPa 0,0 l/m 0,0 km/h (0 Bft) N 0 0 min 0,000 mm 0,0 UV-I 28 W/m 6,4 C 12,1 C 0,0 km/h (0 Bft) 100,00 %
09.08.2022 07:46 12,0 C 68 % 1023,0 hPa 0,0 l/m 0,0 km/h (0 Bft) N 0 0 min 0,000 mm 0,0 UV-I 28 W/m 6,3 C 12,0 C 0,0 km/h (0 Bft) 95,65 %
09.08.2022 07:45 12,0 C 68 % 1022,9 hPa 0,0 l/m 0,0 km/h (0 Bft) N 0 0 min 0,000 mm 0,0 UV-I 28 W/m 6,3 C 12,0 C 0,0 km/h (0 Bft) 100,00 %
09.08.2022 07:44 11,9 C 68 % 1022,9 hPa 0,0 l/m 0,0 km/h (0 Bft) N 0 0 min 0,000 mm 0,0 UV-I 26 W/m 6,2 C 11,9 C 0,0 km/h (0 Bft) 100,00 %
09.08.2022 07:43 11,9 C 68 % 1023,0 hPa 0,0 l/m 0,0 km/h (0 Bft) N 0 0 min 0,000 mm 0,0 UV-I 26 W/m 6,2 C 11,9 C 0,0 km/h (0 Bft) 100,00 %
09.08.2022 07:42 11,9 C 68 % 1023,0 hPa 0,0 l/m 0,0 km/h (0 Bft) N 0 0 min 0,000 mm 0,0 UV-I 26 W/m 6,2 C 11,9 C 0,0 km/h (0 Bft) 100,00 %
09.08.2022 07:41 11,9 C 68 % 1023,0 hPa 0,0 l/m 0,0 km/h (0 Bft) N 0 0 min 0,000 mm 0,0 UV-I 26 W/m 6,2 C 11,9 C 0,0 km/h (0 Bft) 100,00 %
09.08.2022 07:40 11,9 C 68 % 1023,0 hPa 0,0 l/m 0,0 km/h (0 Bft) N 0 0 min 0,000 mm 0,0 UV-I 26 W/m 6,2 C 11,9 C 0,0 km/h (0 Bft) 100,00 %
09.08.2022 07:39 11,8 C 67 % 1022,9 hPa 0,0 l/m 0,0 km/h (0 Bft) N 0 0 min 0,000 mm 0,0 UV-I 26 W/m 5,9 C 11,8 C 0,0 km/h (0 Bft) 95,65 %
09.08.2022 07:38 11,8 C 67 % 1022,9 hPa 0,0 l/m 0,0 km/h (0 Bft) N 0 0 min 0,000 mm 0,0 UV-I 25 W/m 5,9 C 11,8 C 0,0 km/h (0 Bft) 100,00 %
09.08.2022 07:37 11,8 C 67 % 1022,9 hPa 0,0 l/m 0,0 km/h (0 Bft) N 0 0 min 0,000 mm 0,0 UV-I 25 W/m 5,9 C 11,8 C 0,0 km/h (0 Bft) 100,00 %
09.08.2022 07:36 11,8 C 67 % 1022,9 hPa 0,0 l/m 0,0 km/h (0 Bft) N 0 0 min 0,000 mm 0,0 UV-I 25 W/m 5,9 C 11,8 C 0,0 km/h (0 Bft) 100,00 %
09.08.2022 07:35 11,7 C 67 % 1023,0 hPa 0,0 l/m 0,0 km/h (0 Bft) N 0 0 min 0,000 mm 0,0 UV-I 25 W/m 5,8 C 11,7 C 0,0 km/h (0 Bft) 100,00 %
09.08.2022 07:34 11,7 C 67 % 1022,9 hPa 0,0 l/m 0,0 km/h (0 Bft) N 0 0 min 0,000 mm 0,0 UV-I 25 W/m 5,8 C 11,7 C 0,0 km/h (0 Bft) 100,00 %
09.08.2022 07:33 11,7 C 66 % 1022,9 hPa 0,0 l/m 0,0 km/h (0 Bft) N 0 0 min 0,000 mm 0,0 UV-I 25 W/m 5,6 C 11,7 C 0,0 km/h (0 Bft) 100,00 %
09.08.2022 07:32 11,7 C 66 % 1022,9 hPa 0,0 l/m 0,0 km/h (0 Bft) N 0 0 min 0,000 mm 0,0 UV-I 25 W/m 5,6 C 11,7 C 0,0 km/h (0 Bft) 95,65 %
09.08.2022 07:31 11,7 C 66 % 1022,9 hPa 0,0 l/m 1,6 km/h (1 Bft) O-SO 112 0 min 0,000 mm 0,0 UV-I 25 W/m 5,6 C 11,7 C 3,2 km/h (1 Bft) 100,00 %
09.08.2022 07:30 11,7 C 66 % 1023,0 hPa 0,0 l/m 0,0 km/h (0 Bft) N 0 0 min 0,000 mm 0,0 UV-I 25 W/m 5,6 C 11,7 C 0,0 km/h (0 Bft) 100,00 %
09.08.2022 07:29 11,6 C 66 % 1023,0 hPa 0,0 l/m 0,0 km/h (0 Bft) N 0 0 min 0,000 mm 0,0 UV-I 25 W/m 5,5 C 11,6 C 0,0 km/h (0 Bft) 100,00 %
09.08.2022 07:28 11,6 C 66 % 1023,0 hPa 0,0 l/m 0,0 km/h (0 Bft) N 0 0 min 0,000 mm 0,0 UV-I 23 W/m 5,5 C 11,6 C 0,0 km/h (0 Bft) 100,00 %
09.08.2022 07:27 11,6 C 66 % 1022,9 hPa 0,0 l/m 0,0 km/h (0 Bft) N 0 0 min 0,000 mm 0,0 UV-I 23 W/m 5,5 C 11,6 C 0,0 km/h (0 Bft) 100,00 %
09.08.2022 07:26 11,6 C 66 % 1022,9 hPa 0,0 l/m 0,0 km/h (0 Bft) N 0 0 min 0,000 mm 0,0 UV-I 23 W/m 5,5 C 11,6 C 0,0 km/h (0 Bft) 100,00 %
09.08.2022 07:25 11,6 C 65 % 1022,9 hPa 0,0 l/m 0,0 km/h (0 Bft) N 0 0 min 0,000 mm 0,0 UV-I 23 W/m 5,2 C 11,6 C 0,0 km/h (0 Bft) 95,65 %
09.08.2022 07:24 11,7 C 65 % 1022,9 hPa 0,0 l/m 0,0 km/h (0 Bft) N 0 0 min 0,000 mm 0,0 UV-I 23 W/m 5,3 C 11,7 C 0,0 km/h (0 Bft) 100,00 %
09.08.2022 07:23 11,6 C 65 % 1022,9 hPa 0,0 l/m 0,0 km/h (0 Bft) N 0 0 min 0,000 mm 0,0 UV-I 23 W/m 5,2 C 11,6 C 0,0 km/h (0 Bft) 100,00 %
09.08.2022 07:22 11,7 C 65 % 1023,0 hPa 0,0 l/m 0,0 km/h (0 Bft) N 0 0 min 0,000 mm 0,0 UV-I 23 W/m 5,3 C 11,7 C 0,0 km/h (0 Bft) 100,00 %
09.08.2022 07:21 11,6 C 65 % 1022,9 hPa 0,0 l/m 0,0 km/h (0 Bft) N 0 0 min 0,000 mm 0,0 UV-I 23 W/m 5,2 C 11,6 C 0,0 km/h (0 Bft) 100,00 %
09.08.2022 07:20 11,6 C 65 % 1022,9 hPa 0,0 l/m 0,0 km/h (0 Bft) N 0 0 min 0,000 mm 0,0 UV-I 23 W/m 5,2 C 11,6 C 0,0 km/h (0 Bft) 100,00 %
09.08.2022 07:19 11,6 C 65 % 1022,8 hPa 0,0 l/m 0,0 km/h (0 Bft) N 0 0 min 0,000 mm 0,0 UV-I 23 W/m 5,2 C 11,6 C 0,0 km/h (0 Bft) 100,00 %
09.08.2022 07:18 11,7 C 65 % 1022,9 hPa 0,0 l/m 0,0 km/h (0 Bft) N 0 0 min 0,000 mm 0,0 UV-I 21 W/m 5,3 C 11,7 C 0,0 km/h (0 Bft) 95,65 %
09.08.2022 07:17 11,7 C 65 % 1022,9 hPa 0,0 l/m 0,0 km/h (0 Bft) N 0 0 min 0,000 mm 0,0 UV-I 21 W/m 5,3 C 11,7 C 0,0 km/h (0 Bft) 100,00 %
09.08.2022 07:16 11,7 C 65 % 1022,9 hPa 0,0 l/m 0,0 km/h (0 Bft) N 0 0 min 0,000 mm 0,0 UV-I 21 W/m 5,3 C 11,7 C 0,0 km/h (0 Bft) 100,00 %
09.08.2022 07:15 11,7 C 65 % 1022,9 hPa 0,0 l/m 0,0 km/h (0 Bft) N 0 0 min 0,000 mm 0,0 UV-I 21 W/m 5,3 C 11,7 C 0,0 km/h (0 Bft) 100,00 %
09.08.2022 07:14 11,7 C 64 % 1022,9 hPa 0,0 l/m 0,0 km/h (0 Bft) N 0 0 min 0,000 mm 0,0 UV-I 21 W/m 5,1 C 11,7 C 0,0 km/h (0 Bft) 100,00 %
09.08.2022 07:13 11,7 C 64 % 1022,9 hPa 0,0 l/m 0,0 km/h (0 Bft) N 0 0 min 0,000 mm 0,0 UV-I 21 W/m 5,1 C 11,7 C 0,0 km/h (0 Bft) 95,65 %
09.08.2022 07:12 11,7 C 64 % 1022,9 hPa 0,0 l/m 0,0 km/h (0 Bft) N 0 0 min 0,000 mm 0,0 UV-I 21 W/m 5,1 C 11,7 C 0,0 km/h (0 Bft) 95,65 %
09.08.2022 07:11 11,7 C 64 % 1022,8 hPa 0,0 l/m 0,0 km/h (0 Bft) N 0 0 min 0,000 mm 0,0 UV-I 21 W/m 5,1 C 11,7 C 0,0 km/h (0 Bft) 95,65 %
09.08.2022 07:10 11,7 C 64 % 1022,9 hPa 0,0 l/m 0,0 km/h (0 Bft) N 0 0 min 0,000 mm 0,0 UV-I 21 W/m 5,1 C 11,7 C 0,0 km/h (0 Bft) 95,65 %
09.08.2022 07:09 11,7 C 64 % 1022,8 hPa 0,0 l/m 0,0 km/h (0 Bft) N 0 0 min 0,000 mm 0,0 UV-I 21 W/m 5,1 C 11,7 C 0,0 km/h (0 Bft) 100,00 %
09.08.2022 07:08 11,7 C 64 % 1022,8 hPa 0,0 l/m 0,0 km/h (0 Bft) N 0 0 min 0,000 mm 0,0 UV-I 21 W/m 5,1 C 11,7 C 0,0 km/h (0 Bft) 95,65 %
09.08.2022 07:07 11,7 C 64 % 1022,9 hPa 0,0 l/m 0,0 km/h (0 Bft) N 0 0 min 0,000 mm 0,0 UV-I 21 W/m 5,1 C 11,7 C 0,0 km/h (0 Bft) 100,00 %
09.08.2022 07:06 11,7 C 64 % 1022,8 hPa 0,0 l/m 0,0 km/h (0 Bft) N 0 0 min 0,000 mm 0,0 UV-I 19 W/m 5,1 C 11,7 C 0,0 km/h (0 Bft) 95,65 %
09.08.2022 07:05 11,7 C 64 % 1022,8 hPa 0,0 l/m 0,0 km/h (0 Bft) N 0 0 min 0,000 mm 0,0 UV-I 19 W/m 5,1 C 11,7 C 0,0 km/h (0 Bft) 95,65 %
09.08.2022 07:04 11,7 C 64 % 1022,8 hPa 0,0 l/m 0,0 km/h (0 Bft) N 0 0 min 0,000 mm 0,0 UV-I 19 W/m 5,1 C 11,7 C 0,0 km/h (0 Bft) 95,65 %
09.08.2022 07:03 11,7 C 63 % 1022,8 hPa 0,0 l/m 0,0 km/h (0 Bft) N 0 0 min 0,000 mm 0,0 UV-I 19 W/m 4,9 C 11,7 C 0,0 km/h (0 Bft) 95,65 %
09.08.2022 07:02 11,8 C 63 % 1022,8 hPa 0,0 l/m 0,0 km/h (0 Bft) N 0 0 min 0,000 mm 0,0 UV-I 19 W/m 5,0 C 11,8 C 0,0 km/h (0 Bft) 100,00 %
09.08.2022 07:01 11,8 C 63 % 1022,7 hPa 0,0 l/m 0,0 km/h (0 Bft) N 0 0 min 0,000 mm 0,0 UV-I 19 W/m 5,0 C 11,8 C 0,0 km/h (0 Bft) 95,65 %
09.08.2022 07:00 11,8 C 63 % 1022,8 hPa 0,0 l/m 0,0 km/h (0 Bft) N 0 0 min 0,000 mm 0,0 UV-I 19 W/m 5,0 C 11,8 C 0,0 km/h (0 Bft) 100,00 %
09.08.2022 06:59 11,8 C 63 % 1022,8 hPa 0,0 l/m 0,0 km/h (0 Bft) N 0 0 min 0,000 mm 0,0 UV-I 19 W/m 5,0 C 11,8 C 0,0 km/h (0 Bft) 95,65 %
09.08.2022 06:58 11,8 C 63 % 1022,7 hPa 0,0 l/m 0,0 km/h (0 Bft) N 0 0 min 0,000 mm 0,0 UV-I 19 W/m 5,0 C 11,8 C 0,0 km/h (0 Bft) 100,00 %
09.08.2022 06:57 11,8 C 63 % 1022,8 hPa 0,0 l/m 0,0 km/h (0 Bft) N 0 0 min 0,000 mm 0,0 UV-I 19 W/m 5,0 C 11,8 C 0,0 km/h (0 Bft) 91,30 %
09.08.2022 06:56 11,8 C 63 % 1022,8 hPa 0,0 l/m 0,0 km/h (0 Bft) N 0 0 min 0,000 mm 0,0 UV-I 18 W/m 5,0 C 11,8 C 0,0 km/h (0 Bft) 95,65 %
09.08.2022 06:55 11,9 C 63 % 1022,8 hPa 0,0 l/m 0,0 km/h (0 Bft) N 0 0 min 0,000 mm 0,0 UV-I 18 W/m 5,1 C 11,9 C 0,0 km/h (0 Bft) 100,00 %
09.08.2022 06:54 11,9 C 63 % 1022,8 hPa 0,0 l/m 0,0 km/h (0 Bft) N 0 0 min 0,000 mm 0,0 UV-I 18 W/m 5,1 C 11,9 C 0,0 km/h (0 Bft) 95,65 %
09.08.2022 06:53 11,9 C 63 % 1022,7 hPa 0,0 l/m 0,0 km/h (0 Bft) O-SO 112 0 min 0,000 mm 0,0 UV-I 18 W/m 5,1 C 11,9 C 3,2 km/h (1 Bft) 100,00 %
09.08.2022 06:52 11,9 C 63 % 1022,8 hPa 0,0 l/m 0,0 km/h (0 Bft) NO 45 0 min 0,000 mm 0,0 UV-I 18 W/m 5,1 C 11,9 C 3,2 km/h (1 Bft) 100,00 %
09.08.2022 06:51 11,9 C 63 % 1022,7 hPa 0,0 l/m 0,0 km/h (0 Bft) NO 45 0 min 0,000 mm 0,0 UV-I 18 W/m 5,1 C 11,9 C 1,6 km/h (1 Bft) 100,00 %
09.08.2022 06:50 11,9 C 63 % 1022,7 hPa 0,0 l/m 0,0 km/h (0 Bft) N 0 0 min 0,000 mm 0,0 UV-I 18 W/m 5,1 C 11,9 C 0,0 km/h (0 Bft) 95,65 %
09.08.2022 06:49 11,9 C 63 % 1022,7 hPa 0,0 l/m 0,0 km/h (0 Bft) N 0 0 min 0,000 mm 0,0 UV-I 18 W/m 5,1 C 11,9 C 0,0 km/h (0 Bft) 100,00 %
09.08.2022 06:48 11,9 C 63 % 1022,7 hPa 0,0 l/m 0,0 km/h (0 Bft) NO 45 0 min 0,000 mm 0,0 UV-I 18 W/m 5,1 C 11,9 C 1,6 km/h (1 Bft) 100,00 %
09.08.2022 06:47 11,9 C 63 % 1022,7 hPa 0,0 l/m 0,0 km/h (0 Bft) N 0 0 min 0,000 mm 0,0 UV-I 18 W/m 5,1 C 11,9 C 0,0 km/h (0 Bft) 100,00 %
09.08.2022 06:46 12,0 C 63 % 1022,6 hPa 0,0 l/m 0,0 km/h (0 Bft) N 0 0 min 0,000 mm 0,0 UV-I 18 W/m 5,2 C 12,0 C 0,0 km/h (0 Bft) 100,00 %
09.08.2022 06:45 12,0 C 63 % 1022,7 hPa 0,0 l/m 0,0 km/h (0 Bft) N 0 0 min 0,000 mm 0,0 UV-I 16 W/m 5,2 C 12,0 C 0,0 km/h (0 Bft) 100,00 %
09.08.2022 06:44 12,0 C 62 % 1022,6 hPa 0,0 l/m 0,0 km/h (0 Bft) N 0 0 min 0,000 mm 0,0 UV-I 16 W/m 4,9 C 12,0 C 0,0 km/h (0 Bft) 100,00 %
09.08.2022 06:43 12,1 C 62 % 1022,6 hPa 0,0 l/m 0,0 km/h (0 Bft) N 0 0 min 0,000 mm 0,0 UV-I 16 W/m 5,0 C 12,1 C 0,0 km/h (0 Bft) 95,65 %
09.08.2022 06:42 12,1 C 62 % 1022,6 hPa 0,0 l/m 0,0 km/h (0 Bft) NO 45 0 min 0,000 mm 0,0 UV-I 16 W/m 5,0 C 12,1 C 1,6 km/h (1 Bft) 100,00 %
09.08.2022 06:41 12,1 C 62 % 1022,6 hPa 0,0 l/m 0,0 km/h (0 Bft) NO 45 0 min 0,000 mm 0,0 UV-I 16 W/m 5,0 C 12,1 C 1,6 km/h (1 Bft) 100,00 %
09.08.2022 06:40 12,1 C 62 % 1022,6 hPa 0,0 l/m 0,0 km/h (0 Bft) NO 45 0 min 0,000 mm 0,0 UV-I 16 W/m 5,0 C 12,1 C 1,6 km/h (1 Bft) 100,00 %
09.08.2022 06:39 12,1 C 62 % 1022,6 hPa 0,0 l/m 0,0 km/h (0 Bft) NO 45 0 min 0,000 mm 0,0 UV-I 16 W/m 5,0 C 12,1 C 1,6 km/h (1 Bft) 100,00 %
09.08.2022 06:38 12,2 C 62 % 1022,6 hPa 0,0 l/m 0,0 km/h (0 Bft) NO 45 0 min 0,000 mm 0,0 UV-I 16 W/m 5,1 C 12,2 C 1,6 km/h (1 Bft) 100,00 %
09.08.2022 06:37 12,2 C 61 % 1022,5 hPa 0,0 l/m 0,0 km/h (0 Bft) N 0 0 min 0,000 mm 0,0 UV-I 16 W/m 4,9 C 12,2 C 0,0 km/h (0 Bft) 100,00 %
09.08.2022 06:36 12,2 C 61 % 1022,6 hPa 0,0 l/m 0,0 km/h (0 Bft) N 0 0 min 0,000 mm 0,0 UV-I 14 W/m 4,9 C 12,2 C 0,0 km/h (0 Bft) 91,30 %
09.08.2022 06:35 12,2 C 61 % 1022,5 hPa 0,0 l/m 0,0 km/h (0 Bft) N 0 0 min 0,000 mm 0,0 UV-I 14 W/m 4,9 C 12,2 C 0,0 km/h (0 Bft) 100,00 %
09.08.2022 06:34 12,2 C 61 % 1022,5 hPa 0,0 l/m 0,0 km/h (0 Bft) N 0 0 min 0,000 mm 0,0 UV-I 14 W/m 4,9 C 12,2 C 0,0 km/h (0 Bft) 100,00 %
09.08.2022 06:33 12,3 C 61 % 1022,5 hPa 0,0 l/m 0,0 km/h (0 Bft) N 0 0 min 0,000 mm 0,0 UV-I 14 W/m 5,0 C 12,3 C 0,0 km/h (0 Bft) 100,00 %
09.08.2022 06:32 12,3 C 61 % 1022,5 hPa 0,0 l/m 0,0 km/h (0 Bft) N 0 0 min 0,000 mm 0,0 UV-I 14 W/m 5,0 C 12,3 C 0,0 km/h (0 Bft) 100,00 %
09.08.2022 06:31 12,3 C 61 % 1022,5 hPa 0,0 l/m 0,0 km/h (0 Bft) N 0 0 min 0,000 mm 0,0 UV-I 14 W/m 5,0 C 12,3 C 0,0 km/h (0 Bft) 95,65 %
09.08.2022 06:30 12,3 C 61 % 1022,5 hPa 0,0 l/m 0,0 km/h (0 Bft) N 0 0 min 0,000 mm 0,0 UV-I 14 W/m 5,0 C 12,3 C 0,0 km/h (0 Bft) 100,00 %
09.08.2022 06:29 12,3 C 61 % 1022,5 hPa 0,0 l/m 0,0 km/h (0 Bft) N 0 0 min 0,000 mm 0,0 UV-I 14 W/m 5,0 C 12,3 C 0,0 km/h (0 Bft) 95,65 %
09.08.2022 06:28 12,4 C 61 % 1022,5 hPa 0,0 l/m 0,0 km/h (0 Bft) N 0 0 min 0,000 mm 0,0 UV-I 12 W/m 5,1 C 12,4 C 0,0 km/h (0 Bft) 100,00 %
09.08.2022 06:27 12,4 C 61 % 1022,5 hPa 0,0 l/m 0,0 km/h (0 Bft) N 0 0 min 0,000 mm 0,0 UV-I 12 W/m 5,1 C 12,4 C 0,0 km/h (0 Bft) 100,00 %
09.08.2022 06:26 12,4 C 61 % 1022,5 hPa 0,0 l/m 0,0 km/h (0 Bft) N 0 0 min 0,000 mm 0,0 UV-I 12 W/m 5,1 C 12,4 C 0,0 km/h (0 Bft) 100,00 %
09.08.2022 06:25 12,4 C 60 % 1022,6 hPa 0,0 l/m 0,0 km/h (0 Bft) N 0 0 min 0,000 mm 0,0 UV-I 12 W/m 4,9 C 12,4 C 0,0 km/h (0 Bft) 100,00 %
09.08.2022 06:24 12,5 C 60 % 1022,5 hPa 0,0 l/m 0,0 km/h (0 Bft) N 0 0 min 0,000 mm 0,0 UV-I 12 W/m 5,0 C 12,5 C 0,0 km/h (0 Bft) 100,00 %
09.08.2022 06:23 12,5 C 60 % 1022,5 hPa 0,0 l/m 0,0 km/h (0 Bft) N 0 0 min 0,000 mm 0,0 UV-I 12 W/m 5,0 C 12,5 C 0,0 km/h (0 Bft) 100,00 %
09.08.2022 06:22 12,6 C 60 % 1022,5 hPa 0,0 l/m 0,0 km/h (0 Bft) N 0 0 min 0,000 mm 0,0 UV-I 12 W/m 5,0 C 12,6 C 0,0 km/h (0 Bft) 95,65 %
09.08.2022 06:21 12,6 C 60 % 1022,5 hPa 0,0 l/m 0,0 km/h (0 Bft) N 0 0 min 0,000 mm 0,0 UV-I 12 W/m 5,0 C 12,6 C 0,0 km/h (0 Bft) 91,30 %
09.08.2022 06:20 12,6 C 60 % 1022,5 hPa 0,0 l/m 0,0 km/h (0 Bft) N 0 0 min 0,000 mm 0,0 UV-I 11 W/m 5,0 C 12,6 C 0,0 km/h (0 Bft) 95,65 %
09.08.2022 06:19 12,7 C 60 % 1022,6 hPa 0,0 l/m 0,0 km/h (0 Bft) N 0 0 min 0,000 mm 0,0 UV-I 11 W/m 5,1 C 12,7 C 0,0 km/h (0 Bft) 100,00 %
09.08.2022 06:18 12,7 C 60 % 1022,5 hPa 0,0 l/m 0,0 km/h (0 Bft) N 0 0 min 0,000 mm 0,0 UV-I 11 W/m 5,1 C 12,7 C 0,0 km/h (0 Bft) 100,00 %
09.08.2022 06:17 12,7 C 60 % 1022,5 hPa 0,0 l/m 0,0 km/h (0 Bft) N 0 0 min 0,000 mm 0,0 UV-I 11 W/m 5,1 C 12,7 C 0,0 km/h (0 Bft) 100,00 %
09.08.2022 06:16 12,8 C 59 % 1022,6 hPa 0,0 l/m 0,0 km/h (0 Bft) N 0 0 min 0,000 mm 0,0 UV-I 11 W/m 5,0 C 12,8 C 0,0 km/h (0 Bft) 91,30 %
09.08.2022 06:15 12,8 C 59 % 1022,5 hPa 0,0 l/m 0,0 km/h (0 Bft) N 0 0 min 0,000 mm 0,0 UV-I 11 W/m 5,0 C 12,8 C 0,0 km/h (0 Bft) 95,65 %
09.08.2022 06:14 12,9 C 59 % 1022,5 hPa 0,0 l/m 0,0 km/h (0 Bft) N 0 0 min 0,000 mm 0,0 UV-I 9 W/m 5,1 C 12,9 C 0,0 km/h (0 Bft) 100,00 %
09.08.2022 06:13 12,9 C 59 % 1022,5 hPa 0,0 l/m 0,0 km/h (0 Bft) N 0 0 min 0,000 mm 0,0 UV-I 9 W/m 5,1 C 12,9 C 0,0 km/h (0 Bft) 100,00 %
09.08.2022 06:12 12,9 C 59 % 1022,5 hPa 0,0 l/m 0,0 km/h (0 Bft) NO 45 0 min 0,000 mm 0,0 UV-I 9 W/m 5,1 C 12,9 C 1,6 km/h (1 Bft) 100,00 %
09.08.2022 06:11 13,0 C 59 % 1022,5 hPa 0,0 l/m 0,0 km/h (0 Bft) N 0 0 min 0,000 mm 0,0 UV-I 9 W/m 5,2 C 13,0 C 0,0 km/h (0 Bft) 100,00 %
09.08.2022 06:10 13,0 C 59 % 1022,5 hPa 0,0 l/m 0,0 km/h (0 Bft) N 0 0 min 0,000 mm 0,0 UV-I 9 W/m 5,2 C 13,0 C 0,0 km/h (0 Bft) 100,00 %
09.08.2022 06:09 13,0 C 59 % 1022,5 hPa 0,0 l/m 0,0 km/h (0 Bft) N 0 0 min 0,000 mm 0,0 UV-I 9 W/m 5,2 C 13,0 C 0,0 km/h (0 Bft) 100,00 %
09.08.2022 06:08 13,1 C 59 % 1022,5 hPa 0,0 l/m 0,0 km/h (0 Bft) N 0 0 min 0,000 mm 0,0 UV-I 7 W/m 5,3 C 13,1 C 0,0 km/h (0 Bft) 95,65 %
09.08.2022 06:07 13,1 C 59 % 1022,5 hPa 0,0 l/m 0,0 km/h (0 Bft) N 0 0 min 0,000 mm 0,0 UV-I 7 W/m 5,3 C 13,1 C 0,0 km/h (0 Bft) 95,65 %
09.08.2022 06:06 13,1 C 59 % 1022,5 hPa 0,0 l/m 0,0 km/h (0 Bft) N 0 0 min 0,000 mm 0,0 UV-I 7 W/m 5,3 C 13,1 C 0,0 km/h (0 Bft) 100,00 %
09.08.2022 06:05 13,2 C 59 % 1022,5 hPa 0,0 l/m 0,0 km/h (0 Bft) N 0 0 min 0,000 mm 0,0 UV-I 7 W/m 5,4 C 13,2 C 0,0 km/h (0 Bft) 95,65 %
09.08.2022 06:04 13,2 C 59 % 1022,5 hPa 0,0 l/m 0,0 km/h (0 Bft) N 0 0 min 0,000 mm 0,0 UV-I 7 W/m 5,4 C 13,2 C 0,0 km/h (0 Bft) 100,00 %
09.08.2022 06:03 13,2 C 58 % 1022,4 hPa 0,0 l/m 0,0 km/h (0 Bft) N 0 0 min 0,000 mm 0,0 UV-I 7 W/m 5,1 C 13,2 C 0,0 km/h (0 Bft) 95,65 %
09.08.2022 06:02 13,3 C 58 % 1022,5 hPa 0,0 l/m 0,0 km/h (0 Bft) N 0 0 min 0,000 mm 0,0 UV-I 5 W/m 5,2 C 13,3 C 0,0 km/h (0 Bft) 95,65 %
09.08.2022 06:01 13,3 C 58 % 1022,4 hPa 0,0 l/m 0,0 km/h (0 Bft) N 0 0 min 0,000 mm 0,0 UV-I 5 W/m 5,2 C 13,3 C 0,0 km/h (0 Bft) 95,65 %
09.08.2022 06:00 13,4 C 58 % 1022,5 hPa 0,0 l/m 0,0 km/h (0 Bft) NO 45 0 min 0,025 mm 0,0 UV-I 5 W/m 5,3 C 13,4 C 1,6 km/h (1 Bft) 95,65 %
09.08.2022 05:59 13,4 C 58 % 1022,4 hPa 0,0 l/m 1,6 km/h (1 Bft) NO 45 0 min 0,000 mm 0,0 UV-I 5 W/m 5,3 C 13,4 C 3,2 km/h (1 Bft) 100,00 %
09.08.2022 05:58 13,4 C 58 % 1022,5 hPa 0,0 l/m 3,2 km/h (1 Bft) NO 45 0 min 0,000 mm 0,0 UV-I 5 W/m 5,3 C 13,4 C 4,8 km/h (1 Bft) 95,65 %
09.08.2022 05:57 13,5 C 58 % 1022,4 hPa 0,0 l/m 4,8 km/h (1 Bft) NO 45 0 min 0,000 mm 0,0 UV-I 5 W/m 5,4 C 13,5 C 6,4 km/h (2 Bft) 100,00 %
09.08.2022 05:56 13,5 C 58 % 1022,3 hPa 0,0 l/m 3,2 km/h (1 Bft) NO 45 0 min 0,000 mm 0,0 UV-I 0 W/m 5,4 C 13,5 C 4,8 km/h (1 Bft) 91,30 %
09.08.2022 05:55 13,5 C 58 % 1022,3 hPa 0,0 l/m 3,2 km/h (1 Bft) O-NO 67 0 min 0,000 mm 0,0 UV-I 0 W/m 5,4 C 13,5 C 6,4 km/h (2 Bft) 95,65 %
09.08.2022 05:54 13,6 C 58 % 1022,3 hPa 0,0 l/m 4,8 km/h (1 Bft) O-NO 67 0 min 0,000 mm 0,0 UV-I 0 W/m 5,5 C 13,6 C 6,4 km/h (2 Bft) 95,65 %
09.08.2022 05:53 13,6 C 58 % 1022,4 hPa 0,0 l/m 4,8 km/h (1 Bft) O-NO 67 0 min 0,000 mm 0,0 UV-I 0 W/m 5,5 C 13,6 C 6,4 km/h (2 Bft) 95,65 %
09.08.2022 05:52 13,6 C 58 % 1022,4 hPa 0,0 l/m 4,8 km/h (1 Bft) O-NO 67 0 min 0,000 mm 0,0 UV-I 0 W/m 5,5 C 13,6 C 8,0 km/h (2 Bft) 100,00 %
09.08.2022 05:51 13,7 C 58 % 1022,4 hPa 0,0 l/m 6,4 km/h (2 Bft) O-NO 67 0 min 0,000 mm 0,0 UV-I 0 W/m 5,6 C 13,7 C 8,0 km/h (2 Bft) 91,30 %
09.08.2022 05:50 13,7 C 58 % 1022,3 hPa 0,0 l/m 6,4 km/h (2 Bft) O-NO 67 0 min 0,000 mm 0,0 UV-I 0 W/m 5,6 C 13,7 C 8,0 km/h (2 Bft) 100,00 %
09.08.2022 05:49 13,7 C 58 % 1022,3 hPa 0,0 l/m 4,8 km/h (1 Bft) O-NO 67 0 min 0,000 mm 0,0 UV-I 0 W/m 5,6 C 13,7 C 8,0 km/h (2 Bft) 100,00 %
09.08.2022 05:48 13,7 C 58 % 1022,3 hPa 0,0 l/m 4,8 km/h (1 Bft) O-NO 67 0 min 0,000 mm 0,0 UV-I 0 W/m 5,6 C 13,7 C 6,4 km/h (2 Bft) 100,00 %
09.08.2022 05:47 13,7 C 58 % 1022,3 hPa 0,0 l/m 6,4 km/h (2 Bft) O-NO 67 0 min 0,000 mm 0,0 UV-I 0 W/m 5,6 C 13,7 C 8,0 km/h (2 Bft) 95,65 %
09.08.2022 05:46 13,7 C 57 % 1022,3 hPa 0,0 l/m 4,8 km/h (1 Bft) O-NO 67 0 min 0,000 mm 0,0 UV-I 0 W/m 5,3 C 13,7 C 8,0 km/h (2 Bft) 100,00 %
09.08.2022 05:45 13,7 C 57 % 1022,2 hPa 0,0 l/m 4,8 km/h (1 Bft) NO 45 0 min 0,000 mm 0,0 UV-I 0 W/m 5,3 C 13,7 C 8,0 km/h (2 Bft) 100,00 %
09.08.2022 05:44 13,7 C 58 % 1022,2 hPa 0,0 l/m 6,4 km/h (2 Bft) O-NO 67 0 min 0,000 mm 0,0 UV-I 0 W/m 5,6 C 13,7 C 9,7 km/h (2 Bft) 100,00 %
09.08.2022 05:43 13,6 C 58 % 1022,2 hPa 0,0 l/m 4,8 km/h (1 Bft) O-NO 67 0 min 0,000 mm 0,0 UV-I 0 W/m 5,5 C 13,6 C 6,4 km/h (2 Bft) 100,00 %
09.08.2022 05:42 13,6 C 58 % 1022,3 hPa 0,0 l/m 6,4 km/h (2 Bft) NO 45 0 min 0,000 mm 0,0 UV-I 0 W/m 5,5 C 13,6 C 8,0 km/h (2 Bft) 100,00 %
09.08.2022 05:41 13,4 C 58 % 1022,2 hPa 0,0 l/m 6,4 km/h (2 Bft) O-NO 67 0 min 0,000 mm 0,0 UV-I 0 W/m 5,3 C 13,4 C 9,7 km/h (2 Bft) 100,00 %
09.08.2022 05:40 13,4 C 59 % 1022,2 hPa 0,0 l/m 8,0 km/h (2 Bft) O-NO 67 0 min 0,000 mm 0,0 UV-I 0 W/m 5,6 C 13,4 C 12,9 km/h (3 Bft) 95,65 %
09.08.2022 05:39 13,3 C 59 % 1022,2 hPa 0,0 l/m 6,4 km/h (2 Bft) O-NO 67 0 min 0,000 mm 0,0 UV-I 0 W/m 5,5 C 13,3 C 8,0 km/h (2 Bft) 100,00 %
09.08.2022 05:38 13,2 C 60 % 1022,2 hPa 0,0 l/m 8,0 km/h (2 Bft) O-NO 67 0 min 0,000 mm 0,0 UV-I 0 W/m 5,6 C 13,2 C 11,3 km/h (2 Bft) 100,00 %
09.08.2022 05:37 13,2 C 60 % 1022,2 hPa 0,0 l/m 6,4 km/h (2 Bft) O-NO 67 0 min 0,000 mm 0,0 UV-I 0 W/m 5,6 C 13,2 C 8,0 km/h (2 Bft) 100,00 %
09.08.2022 05:36 13,1 C 60 % 1022,2 hPa 0,0 l/m 8,0 km/h (2 Bft) O-NO 67 0 min 0,000 mm 0,0 UV-I 0 W/m 5,5 C 13,1 C 11,3 km/h (2 Bft) 95,65 %
09.08.2022 05:35 13,0 C 60 % 1022,3 hPa 0,0 l/m 6,4 km/h (2 Bft) O-NO 67 0 min 0,000 mm 0,0 UV-I 0 W/m 5,4 C 13,0 C 8,0 km/h (2 Bft) 100,00 %
09.08.2022 05:34 12,9 C 61 % 1022,2 hPa 0,0 l/m 8,0 km/h (2 Bft) O-NO 67 0 min 0,000 mm 0,0 UV-I 0 W/m 5,6 C 12,9 C 11,3 km/h (2 Bft) 100,00 %
09.08.2022 05:33 12,9 C 61 % 1022,3 hPa 0,0 l/m 6,4 km/h (2 Bft) O-NO 67 0 min 0,000 mm 0,0 UV-I 0 W/m 5,6 C 12,9 C 9,7 km/h (2 Bft) 95,65 %
09.08.2022 05:32 12,8 C 61 % 1022,3 hPa 0,0 l/m 8,0 km/h (2 Bft) O-NO 67 0 min 0,000 mm 0,0 UV-I 0 W/m 5,5 C 12,8 C 9,7 km/h (2 Bft) 100,00 %
09.08.2022 05:31 12,8 C 62 % 1022,3 hPa 0,0 l/m 8,0 km/h (2 Bft) O-NO 67 0 min 0,000 mm 0,0 UV-I 0 W/m 5,7 C 12,8 C 12,9 km/h (3 Bft) 95,65 %
09.08.2022 05:30 12,7 C 62 % 1022,3 hPa 0,0 l/m 8,0 km/h (2 Bft) O-NO 67 0 min 0,000 mm 0,0 UV-I 0 W/m 5,6 C 12,7 C 11,3 km/h (2 Bft) 100,00 %
09.08.2022 05:29 12,7 C 62 % 1022,3 hPa 0,0 l/m 6,4 km/h (2 Bft) O-NO 67 0 min 0,000 mm 0,0 UV-I 0 W/m 5,6 C 12,7 C 9,7 km/h (2 Bft) 100,00 %
09.08.2022 05:28 12,6 C 63 % 1022,3 hPa 0,0 l/m 8,0 km/h (2 Bft) O-NO 67 0 min 0,000 mm 0,0 UV-I 0 W/m 5,7 C 12,6 C 9,7 km/h (2 Bft) 100,00 %
09.08.2022 05:27 12,5 C 64 % 1022,2 hPa 0,0 l/m 8,0 km/h (2 Bft) O-NO 67 0 min 0,000 mm 0,0 UV-I 0 W/m 5,9 C 12,5 C 11,3 km/h (2 Bft) 100,00 %
09.08.2022 05:26 12,4 C 64 % 1022,2 hPa 0,0 l/m 6,4 km/h (2 Bft) O-NO 67 0 min 0,000 mm 0,0 UV-I 0 W/m 5,8 C 12,4 C 8,0 km/h (2 Bft) 95,65 %
09.08.2022 05:25 12,3 C 65 % 1022,2 hPa 0,0 l/m 8,0 km/h (2 Bft) O-NO 67 0 min 0,000 mm 0,0 UV-I 0 W/m 5,9 C 12,3 C 11,3 km/h (2 Bft) 100,00 %
09.08.2022 05:24 12,3 C 65 % 1022,2 hPa 0,0 l/m 6,4 km/h (2 Bft) O-NO 67 0 min 0,000 mm 0,0 UV-I 0 W/m 5,9 C 12,3 C 9,7 km/h (2 Bft) 100,00 %
09.08.2022 05:23 12,1 C 66 % 1022,3 hPa 0,0 l/m 8,0 km/h (2 Bft) O-NO 67 0 min 0,000 mm 0,0 UV-I 0 W/m 5,9 C 12,1 C 11,3 km/h (2 Bft) 100,00 %
09.08.2022 05:22 11,9 C 67 % 1022,2 hPa 0,0 l/m 6,4 km/h (2 Bft) O-NO 67 0 min 0,000 mm 0,0 UV-I 0 W/m 6,0 C 11,9 C 9,7 km/h (2 Bft) 100,00 %
09.08.2022 05:21 11,8 C 68 % 1022,2 hPa 0,0 l/m 8,0 km/h (2 Bft) O-NO 67 0 min 0,000 mm 0,0 UV-I 0 W/m 6,1 C 11,8 C 12,9 km/h (3 Bft) 100,00 %
09.08.2022 05:20 11,6 C 69 % 1022,2 hPa 0,0 l/m 8,0 km/h (2 Bft) O-NO 67 0 min 0,000 mm 0,0 UV-I 0 W/m 6,1 C 11,6 C 9,7 km/h (2 Bft) 100,00 %
09.08.2022 05:19 11,5 C 69 % 1022,2 hPa 0,0 l/m 6,4 km/h (2 Bft) O-NO 67 0 min 0,000 mm 0,0 UV-I 0 W/m 6,0 C 11,5 C 9,7 km/h (2 Bft) 95,65 %
09.08.2022 05:18 11,4 C 70 % 1022,2 hPa 0,0 l/m 6,4 km/h (2 Bft) O-NO 67 0 min 0,000 mm 0,0 UV-I 0 W/m 6,1 C 11,4 C 9,7 km/h (2 Bft) 100,00 %
09.08.2022 05:17 11,3 C 70 % 1022,2 hPa 0,0 l/m 8,0 km/h (2 Bft) O-NO 67 0 min 0,000 mm 0,0 UV-I 0 W/m 6,0 C 11,3 C 12,9 km/h (3 Bft) 100,00 %
09.08.2022 05:16 11,1 C 70 % 1022,2 hPa 0,0 l/m 8,0 km/h (2 Bft) O-NO 67 0 min 0,000 mm 0,0 UV-I 0 W/m 5,8 C 11,1 C 9,7 km/h (2 Bft) 100,00 %
09.08.2022 05:15 11,1 C 71 % 1022,2 hPa 0,0 l/m 8,0 km/h (2 Bft) O-NO 67 0 min 0,000 mm 0,0 UV-I 0 W/m 6,0 C 11,1 C 9,7 km/h (2 Bft) 100,00 %
09.08.2022 05:14 10,9 C 71 % 1022,2 hPa 0,0 l/m 9,7 km/h (2 Bft) O-NO 67 0 min 0,000 mm 0,0 UV-I 0 W/m 5,9 C 10,9 C 12,9 km/h (3 Bft) 100,00 %
09.08.2022 05:13 10,9 C 71 % 1022,2 hPa 0,0 l/m 8,0 km/h (2 Bft) O-NO 67 0 min 0,000 mm 0,0 UV-I 0 W/m 5,9 C 10,9 C 9,7 km/h (2 Bft) 100,00 %
09.08.2022 05:12 10,8 C 71 % 1022,1 hPa 0,0 l/m 8,0 km/h (2 Bft) O-NO 67 0 min 0,000 mm 0,0 UV-I 0 W/m 5,8 C 10,8 C 11,3 km/h (2 Bft) 100,00 %
09.08.2022 05:11 10,8 C 71 % 1022,2 hPa 0,0 l/m 6,4 km/h (2 Bft) O-NO 67 0 min 0,000 mm 0,0 UV-I 0 W/m 5,8 C 10,8 C 11,3 km/h (2 Bft) 91,30 %
09.08.2022 05:10 10,8 C 71 % 1022,2 hPa 0,0 l/m 8,0 km/h (2 Bft) O-NO 67 0 min 0,000 mm 0,0 UV-I 0 W/m 5,8 C 10,8 C 12,9 km/h (3 Bft) 100,00 %
09.08.2022 05:09 10,7 C 71 % 1022,2 hPa 0,0 l/m 6,4 km/h (2 Bft) O-NO 67 0 min 0,000 mm 0,0 UV-I 0 W/m 5,7 C 10,7 C 8,0 km/h (2 Bft) 100,00 %
09.08.2022 05:08 10,7 C 71 % 1022,3 hPa 0,0 l/m 8,0 km/h (2 Bft) O-NO 67 0 min 0,000 mm 0,0 UV-I 0 W/m 5,7 C 10,7 C 12,9 km/h (3 Bft) 95,65 %
09.08.2022 05:07 10,7 C 71 % 1022,1 hPa 0,0 l/m 8,0 km/h (2 Bft) O-NO 67 0 min 0,000 mm 0,0 UV-I 0 W/m 5,7 C 10,7 C 12,9 km/h (3 Bft) 100,00 %
09.08.2022 05:06 10,7 C 71 % 1022,2 hPa 0,0 l/m 9,7 km/h (2 Bft) O-NO 67 0 min 0,000 mm 0,0 UV-I 0 W/m 5,7 C 10,7 C 12,9 km/h (3 Bft) 95,65 %
09.08.2022 05:05 10,7 C 71 % 1022,2 hPa 0,0 l/m 8,0 km/h (2 Bft) O-NO 67 0 min 0,000 mm 0,0 UV-I 0 W/m 5,7 C 10,7 C 11,3 km/h (2 Bft) 100,00 %
09.08.2022 05:04 10,7 C 71 % 1022,2 hPa 0,0 l/m 6,4 km/h (2 Bft) O-NO 67 0 min 0,000 mm 0,0 UV-I 0 W/m 5,7 C 10,7 C 8,0 km/h (2 Bft) 91,30 %
09.08.2022 05:03 10,6 C 71 % 1022,2 hPa 0,0 l/m 6,4 km/h (2 Bft) O-NO 67 0 min 0,000 mm 0,0 UV-I 0 W/m 5,6 C 10,6 C 8,0 km/h (2 Bft) 100,00 %
09.08.2022 05:02 10,6 C 71 % 1022,3 hPa 0,0 l/m 6,4 km/h (2 Bft) O-NO 67 0 min 0,000 mm 0,0 UV-I 0 W/m 5,6 C 10,6 C 8,0 km/h (2 Bft) 95,65 %
09.08.2022 05:01 10,6 C 71 % 1022,2 hPa 0,0 l/m 8,0 km/h (2 Bft) O-NO 67 0 min 0,000 mm 0,0 UV-I 0 W/m 5,6 C 10,6 C 8,0 km/h (2 Bft) 91,30 %
09.08.2022 05:00 10,6 C 71 % 1022,2 hPa 0,0 l/m 6,4 km/h (2 Bft) O-NO 67 0 min 0,000 mm 0,0 UV-I 0 W/m 5,6 C 10,6 C 9,7 km/h (2 Bft) 100,00 %
09.08.2022 04:59 10,6 C 71 % 1022,2 hPa 0,0 l/m 6,4 km/h (2 Bft) O-NO 67 0 min 0,000 mm 0,0 UV-I 0 W/m 5,6 C 10,6 C 11,3 km/h (2 Bft) 95,65 %
09.08.2022 04:58 10,6 C 71 % 1022,2 hPa 0,0 l/m 6,4 km/h (2 Bft) O-NO 67 0 min 0,000 mm 0,0 UV-I 0 W/m 5,6 C 10,6 C 8,0 km/h (2 Bft) 100,00 %
09.08.2022 04:57 10,6 C 71 % 1022,2 hPa 0,0 l/m 4,8 km/h (1 Bft) O-NO 67 0 min 0,000 mm 0,0 UV-I 0 W/m 5,6 C 10,6 C 9,7 km/h (2 Bft) 91,30 %
09.08.2022 04:56 10,6 C 71 % 1022,2 hPa 0,0 l/m 6,4 km/h (2 Bft) O-NO 67 0 min 0,000 mm 0,0 UV-I 0 W/m 5,6 C 10,6 C 8,0 km/h (2 Bft) 100,00 %
09.08.2022 04:55 10,7 C 71 % 1022,2 hPa 0,0 l/m 4,8 km/h (1 Bft) O-NO 67 0 min 0,000 mm 0,0 UV-I 0 W/m 5,7 C 10,7 C 8,0 km/h (2 Bft) 95,65 %
09.08.2022 04:54 10,6 C 71 % 1022,2 hPa 0,0 l/m 6,4 km/h (2 Bft) O-NO 67 0 min 0,000 mm 0,0 UV-I 0 W/m 5,6 C 10,6 C 8,0 km/h (2 Bft) 100,00 %
09.08.2022 04:53 10,6 C 71 % 1022,4 hPa 0,0 l/m 4,8 km/h (1 Bft) O-NO 67 0 min 0,000 mm 0,0 UV-I 0 W/m 5,6 C 10,6 C 6,4 km/h (2 Bft) 95,65 %
09.08.2022 04:52 10,7 C 71 % 1022,4 hPa 0,0 l/m 6,4 km/h (2 Bft) NO 45 0 min 0,000 mm 0,0 UV-I 0 W/m 5,7 C 10,7 C 8,0 km/h (2 Bft) 100,00 %
09.08.2022 04:51 10,6 C 70 % 1022,3 hPa 0,0 l/m 4,8 km/h (1 Bft) O-NO 67 0 min 0,000 mm 0,0 UV-I 0 W/m 5,4 C 10,6 C 8,0 km/h (2 Bft) 100,00 %
09.08.2022 04:50 10,7 C 70 % 1022,2 hPa 0,0 l/m 6,4 km/h (2 Bft) O-NO 67 0 min 0,000 mm 0,0 UV-I 0 W/m 5,5 C 10,7 C 9,7 km/h (2 Bft) 95,65 %
09.08.2022 04:49 10,7 C 70 % 1022,3 hPa 0,0 l/m 4,8 km/h (1 Bft) O-NO 67 0 min 0,000 mm 0,0 UV-I 0 W/m 5,5 C 10,7 C 6,4 km/h (2 Bft) 100,00 %
09.08.2022 04:48 10,7 C 70 % 1022,3 hPa 0,0 l/m 4,8 km/h (1 Bft) O-NO 67 0 min 0,000 mm 0,0 UV-I 0 W/m 5,5 C 10,7 C 8,0 km/h (2 Bft) 100,00 %
09.08.2022 04:47 10,7 C 70 % 1022,3 hPa 0,0 l/m 4,8 km/h (1 Bft) O-NO 67 0 min 0,000 mm 0,0 UV-I 0 W/m 5,5 C 10,7 C 8,0 km/h (2 Bft) 100,00 %
09.08.2022 04:46 10,7 C 70 % 1022,4 hPa 0,0 l/m 4,8 km/h (1 Bft) O-NO 67 0 min 0,000 mm 0,0 UV-I 0 W/m 5,5 C 10,7 C 6,4 km/h (2 Bft) 100,00 %
09.08.2022 04:45 10,7 C 70 % 1022,3 hPa 0,0 l/m 6,4 km/h (2 Bft) O-NO 67 0 min 0,000 mm 0,0 UV-I 0 W/m 5,5 C 10,7 C 9,7 km/h (2 Bft) 100,00 %
09.08.2022 04:44 10,7 C 70 % 1022,3 hPa 0,0 l/m 4,8 km/h (1 Bft) O-NO 67 0 min 0,000 mm 0,0 UV-I 0 W/m 5,5 C 10,7 C 8,0 km/h (2 Bft) 100,00 %
09.08.2022 04:43 10,7 C 70 % 1022,3 hPa 0,0 l/m 4,8 km/h (1 Bft) NO 45 0 min 0,000 mm 0,0 UV-I 0 W/m 5,5 C 10,7 C 6,4 km/h (2 Bft) 95,65 %
09.08.2022 04:42 10,7 C 70 % 1022,2 hPa 0,0 l/m 6,4 km/h (2 Bft) O-NO 67 0 min 0,000 mm 0,0 UV-I 0 W/m 5,5 C 10,7 C 8,0 km/h (2 Bft) 100,00 %
09.08.2022 04:41 10,7 C 70 % 1022,3 hPa 0,0 l/m 4,8 km/h (1 Bft) O-NO 67 0 min 0,000 mm 0,0 UV-I 0 W/m 5,5 C 10,7 C 8,0 km/h (2 Bft) 100,00 %
09.08.2022 04:40 10,7 C 70 % 1022,3 hPa 0,0 l/m 4,8 km/h (1 Bft) O-NO 67 0 min 0,000 mm 0,0 UV-I 0 W/m 5,5 C 10,7 C 6,4 km/h (2 Bft) 100,00 %
09.08.2022 04:39 10,7 C 70 % 1022,3 hPa 0,0 l/m 4,8 km/h (1 Bft) O-NO 67 0 min 0,000 mm 0,0 UV-I 0 W/m 5,5 C 10,7 C 6,4 km/h (2 Bft) 100,00 %
09.08.2022 04:38 10,7 C 70 % 1022,3 hPa 0,0 l/m 6,4 km/h (2 Bft) O-NO 67 0 min 0,000 mm 0,0 UV-I 0 W/m 5,5 C 10,7 C 9,7 km/h (2 Bft) 100,00 %
09.08.2022 04:37 10,7 C 70 % 1022,3 hPa 0,0 l/m 4,8 km/h (1 Bft) NO 45 0 min 0,000 mm 0,0 UV-I 0 W/m 5,5 C 10,7 C 8,0 km/h (2 Bft) 100,00 %
09.08.2022 04:36 10,7 C 70 % 1022,3 hPa 0,0 l/m 4,8 km/h (1 Bft) O-NO 67 0 min 0,000 mm 0,0 UV-I 0 W/m 5,5 C 10,7 C 8,0 km/h (2 Bft) 95,65 %
09.08.2022 04:35 10,7 C 70 % 1022,3 hPa 0,0 l/m 4,8 km/h (1 Bft) O-NO 67 0 min 0,000 mm 0,0 UV-I 0 W/m 5,5 C 10,7 C 6,4 km/h (2 Bft) 100,00 %
09.08.2022 04:34 10,7 C 70 % 1022,3 hPa 0,0 l/m 4,8 km/h (1 Bft) O-NO 67 0 min 0,000 mm 0,0 UV-I 0 W/m 5,5 C 10,7 C 8,0 km/h (2 Bft) 100,00 %
09.08.2022 04:33 10,7 C 70 % 1022,3 hPa 0,0 l/m 6,4 km/h (2 Bft) O-NO 67 0 min 0,000 mm 0,0 UV-I 0 W/m 5,5 C 10,7 C 8,0 km/h (2 Bft) 100,00 %
09.08.2022 04:32 10,7 C 70 % 1022,4 hPa 0,0 l/m 4,8 km/h (1 Bft) O-NO 67 0 min 0,000 mm 0,0 UV-I 0 W/m 5,5 C 10,7 C 8,0 km/h (2 Bft) 100,00 %
09.08.2022 04:31 10,7 C 70 % 1022,3 hPa 0,0 l/m 4,8 km/h (1 Bft) O-NO 67 0 min 0,000 mm 0,0 UV-I 0 W/m 5,5 C 10,7 C 4,8 km/h (1 Bft) 95,65 %
09.08.2022 04:30 10,8 C 69 % 1022,3 hPa 0,0 l/m 4,8 km/h (1 Bft) O-NO 67 0 min 0,000 mm 0,0 UV-I 0 W/m 5,3 C 10,8 C 4,8 km/h (1 Bft) 100,00 %
09.08.2022 04:29 10,8 C 69 % 1022,4 hPa 0,0 l/m 4,8 km/h (1 Bft) O-NO 67 0 min 0,000 mm 0,0 UV-I 0 W/m 5,3 C 10,8 C 9,7 km/h (2 Bft) 95,65 %
09.08.2022 04:28 10,8 C 69 % 1022,3 hPa 0,0 l/m 3,2 km/h (1 Bft) NO 45 0 min 0,000 mm 0,0 UV-I 0 W/m 5,3 C 10,8 C 6,4 km/h (2 Bft) 100,00 %
09.08.2022 04:27 10,8 C 69 % 1022,3 hPa 0,0 l/m 3,2 km/h (1 Bft) NO 45 0 min 0,000 mm 0,0 UV-I 0 W/m 5,3 C 10,8 C 6,4 km/h (2 Bft) 100,00 %
09.08.2022 04:26 10,8 C 69 % 1022,3 hPa 0,0 l/m 3,2 km/h (1 Bft) O-NO 67 0 min 0,000 mm 0,0 UV-I 0 W/m 5,3 C 10,8 C 4,8 km/h (1 Bft) 100,00 %
09.08.2022 04:25 10,8 C 69 % 1022,4 hPa 0,0 l/m 3,2 km/h (1 Bft) O-NO 67 0 min 0,000 mm 0,0 UV-I 0 W/m 5,3 C 10,8 C 6,4 km/h (2 Bft) 100,00 %
09.08.2022 04:24 10,8 C 69 % 1022,2 hPa 0,0 l/m 4,8 km/h (1 Bft) NO 45 0 min 0,000 mm 0,0 UV-I 0 W/m 5,3 C 10,8 C 6,4 km/h (2 Bft) 100,00 %
09.08.2022 04:23 10,8 C 69 % 1022,3 hPa 0,0 l/m 3,2 km/h (1 Bft) NO 45 0 min 0,000 mm 0,0 UV-I 0 W/m 5,3 C 10,8 C 6,4 km/h (2 Bft) 100,00 %
09.08.2022 04:22 10,8 C 69 % 1022,3 hPa 0,0 l/m 3,2 km/h (1 Bft) NO 45 0 min 0,000 mm 0,0 UV-I 0 W/m 5,3 C 10,8 C 4,8 km/h (1 Bft) 95,65 %
09.08.2022 04:21 10,8 C 69 % 1022,3 hPa 0,0 l/m 3,2 km/h (1 Bft) NO 45 0 min 0,000 mm 0,0 UV-I 0 W/m 5,3 C 10,8 C 4,8 km/h (1 Bft) 100,00 %
09.08.2022 04:20 10,9 C 69 % 1022,3 hPa 0,0 l/m 3,2 km/h (1 Bft) NO 45 0 min 0,000 mm 0,0 UV-I 0 W/m 5,4 C 10,9 C 4,8 km/h (1 Bft) 100,00 %
09.08.2022 04:19 10,9 C 69 % 1022,3 hPa 0,0 l/m 6,4 km/h (2 Bft) NO 45 0 min 0,000 mm 0,0 UV-I 0 W/m 5,4 C 10,9 C 9,7 km/h (2 Bft) 100,00 %
09.08.2022 04:18 10,9 C 69 % 1022,3 hPa 0,0 l/m 6,4 km/h (2 Bft) NO 45 0 min 0,000 mm 0,0 UV-I 0 W/m 5,4 C 10,9 C 8,0 km/h (2 Bft) 100,00 %
09.08.2022 04:17 10,9 C 69 % 1022,3 hPa 0,0 l/m 4,8 km/h (1 Bft) O-NO 67 0 min 0,000 mm 0,0 UV-I 0 W/m 5,4 C 10,9 C 8,0 km/h (2 Bft) 100,00 %
09.08.2022 04:16 10,9 C 69 % 1022,3 hPa 0,0 l/m 4,8 km/h (1 Bft) O-NO 67 0 min 0,000 mm 0,0 UV-I 0 W/m 5,4 C 10,9 C 6,4 km/h (2 Bft) 100,00 %
09.08.2022 04:15 10,9 C 69 % 1022,2 hPa 0,0 l/m 4,8 km/h (1 Bft) NO 45 0 min 0,000 mm 0,0 UV-I 0 W/m 5,4 C 10,9 C 6,4 km/h (2 Bft) 95,65 %
09.08.2022 04:14 10,9 C 69 % 1022,4 hPa 0,0 l/m 6,4 km/h (2 Bft) O-NO 67 0 min 0,000 mm 0,0 UV-I 0 W/m 5,4 C 10,9 C 9,7 km/h (2 Bft) 95,65 %
09.08.2022 04:13 10,9 C 69 % 1022,4 hPa 0,0 l/m 6,4 km/h (2 Bft) O-NO 67 0 min 0,000 mm 0,0 UV-I 0 W/m 5,4 C 10,9 C 11,3 km/h (2 Bft) 100,00 %
09.08.2022 04:12 11,0 C 69 % 1022,3 hPa 0,0 l/m 4,8 km/h (1 Bft) O-NO 67 0 min 0,000 mm 0,0 UV-I 0 W/m 5,5 C 11,0 C 14,5 km/h (3 Bft) 95,65 %
09.08.2022 04:11 11,1 C 69 % 1022,3 hPa 0,0 l/m 6,4 km/h (2 Bft) O-NO 67 0 min 0,000 mm 0,0 UV-I 0 W/m 5,6 C 11,1 C 14,5 km/h (3 Bft) 100,00 %
09.08.2022 04:10 11,1 C 69 % 1022,4 hPa 0,0 l/m 6,4 km/h (2 Bft) O-NO 67 0 min 0,000 mm 0,0 UV-I 0 W/m 5,6 C 11,1 C 12,9 km/h (3 Bft) 95,65 %
09.08.2022 04:09 11,1 C 69 % 1022,4 hPa 0,0 l/m 4,8 km/h (1 Bft) NO 45 0 min 0,000 mm 0,0 UV-I 0 W/m 5,6 C 11,1 C 6,4 km/h (2 Bft) 95,65 %
09.08.2022 04:08 11,1 C 69 % 1022,2 hPa 0,0 l/m 6,4 km/h (2 Bft) O-NO 67 0 min 0,000 mm 0,0 UV-I 0 W/m 5,6 C 11,1 C 8,0 km/h (2 Bft) 95,65 %
09.08.2022 04:07 11,1 C 69 % 1022,3 hPa 0,0 l/m 6,4 km/h (2 Bft) O-NO 67 0 min 0,000 mm 0,0 UV-I 0 W/m 5,6 C 11,1 C 9,7 km/h (2 Bft) 91,30 %
09.08.2022 04:06 11,1 C 69 % 1022,3 hPa 0,0 l/m 4,8 km/h (1 Bft) NO 45 0 min 0,000 mm 0,0 UV-I 0 W/m 5,6 C 11,1 C 8,0 km/h (2 Bft) 95,65 %
09.08.2022 04:05 11,1 C 69 % 1022,3 hPa 0,0 l/m 6,4 km/h (2 Bft) NO 45 0 min 0,000 mm 0,0 UV-I 0 W/m 5,6 C 11,1 C 6,4 km/h (2 Bft) 95,65 %
09.08.2022 04:04 11,1 C 69 % 1022,2 hPa 0,0 l/m 6,4 km/h (2 Bft) O-NO 67 0 min 0,000 mm 0,0 UV-I 0 W/m 5,6 C 11,1 C 8,0 km/h (2 Bft) 100,00 %
09.08.2022 04:03 11,1 C 69 % 1022,1 hPa 0,0 l/m 4,8 km/h (1 Bft) O-NO 67 0 min 0,000 mm 0,0 UV-I 0 W/m 5,6 C 11,1 C 8,0 km/h (2 Bft) 95,65 %
09.08.2022 04:02 11,1 C 69 % 1022,2 hPa 0,0 l/m 8,0 km/h (2 Bft) O-NO 67 0 min 0,000 mm 0,0 UV-I 0 W/m 5,6 C 11,1 C 11,3 km/h (2 Bft) 100,00 %
09.08.2022 04:01 11,2 C 69 % 1022,2 hPa 0,0 l/m 6,4 km/h (2 Bft) O-NO 67 0 min 0,000 mm 0,0 UV-I 0 W/m 5,7 C 11,2 C 8,0 km/h (2 Bft) 91,30 %
09.08.2022 04:00 11,1 C 69 % 1022,2 hPa 0,0 l/m 4,8 km/h (1 Bft) O-NO 67 0 min 0,000 mm 0,0 UV-I 0 W/m 5,6 C 11,1 C 6,4 km/h (2 Bft) 91,30 %
09.08.2022 03:59 11,2 C 69 % 1022,2 hPa 0,0 l/m 4,8 km/h (1 Bft) O-NO 67 0 min 0,000 mm 0,0 UV-I 0 W/m 5,7 C 11,2 C 8,0 km/h (2 Bft) 100,00 %
09.08.2022 03:58 11,2 C 69 % 1022,2 hPa 0,0 l/m 4,8 km/h (1 Bft) O-NO 67 0 min 0,000 mm 0,0 UV-I 0 W/m 5,7 C 11,2 C 8,0 km/h (2 Bft) 100,00 %
09.08.2022 03:57 11,2 C 69 % 1022,2 hPa 0,0 l/m 4,8 km/h (1 Bft) O-NO 67 0 min 0,000 mm 0,0 UV-I 0 W/m 5,7 C 11,2 C 6,4 km/h (2 Bft) 100,00 %
09.08.2022 03:56 11,2 C 69 % 1022,1 hPa 0,0 l/m 6,4 km/h (2 Bft) O-NO 67 0 min 0,000 mm 0,0 UV-I 0 W/m 5,7 C 11,2 C 8,0 km/h (2 Bft) 95,65 %
09.08.2022 03:55 11,2 C 69 % 1022,1 hPa 0,0 l/m 6,4 km/h (2 Bft) O-NO 67 0 min 0,000 mm 0,0 UV-I 0 W/m 5,7 C 11,2 C 9,7 km/h (2 Bft) 100,00 %
09.08.2022 03:54 11,2 C 69 % 1022,1 hPa 0,0 l/m 4,8 km/h (1 Bft) NO 45 0 min 0,000 mm 0,0 UV-I 0 W/m 5,7 C 11,2 C 8,0 km/h (2 Bft) 95,65 %
09.08.2022 03:53 11,2 C 69 % 1022,2 hPa 0,0 l/m 4,8 km/h (1 Bft) O-NO 67 0 min 0,000 mm 0,0 UV-I 0 W/m 5,7 C 11,2 C 6,4 km/h (2 Bft) 100,00 %
09.08.2022 03:52 11,2 C 69 % 1022,2 hPa 0,0 l/m 4,8 km/h (1 Bft) O-NO 67 0 min 0,000 mm 0,0 UV-I 0 W/m 5,7 C 11,2 C 6,4 km/h (2 Bft) 100,00 %
09.08.2022 03:51 11,2 C 69 % 1022,2 hPa 0,0 l/m 4,8 km/h (1 Bft) NO 45 0 min 0,000 mm 0,0 UV-I 0 W/m 5,7 C 11,2 C 6,4 km/h (2 Bft) 95,65 %
09.08.2022 03:50 11,3 C 69 % 1022,2 hPa 0,0 l/m 3,2 km/h (1 Bft) O-NO 67 0 min 0,000 mm 0,0 UV-I 0 W/m 5,8 C 11,3 C 6,4 km/h (2 Bft) 100,00 %
09.08.2022 03:49 11,3 C 69 % 1022,2 hPa 0,0 l/m 3,2 km/h (1 Bft) NO 45 0 min 0,000 mm 0,0 UV-I 0 W/m 5,8 C 11,3 C 6,4 km/h (2 Bft) 100,00 %
09.08.2022 03:48 11,3 C 69 % 1022,1 hPa 0,0 l/m 1,6 km/h (1 Bft) NO 45 0 min 0,000 mm 0,0 UV-I 0 W/m 5,8 C 11,3 C 4,8 km/h (1 Bft) 100,00 %
09.08.2022 03:47 11,3 C 69 % 1022,1 hPa 0,0 l/m 3,2 km/h (1 Bft) NO 45 0 min 0,000 mm 0,0 UV-I 0 W/m 5,8 C 11,3 C 4,8 km/h (1 Bft) 95,65 %
09.08.2022 03:46 11,3 C 69 % 1022,1 hPa 0,0 l/m 3,2 km/h (1 Bft) NO 45 0 min 0,000 mm 0,0 UV-I 0 W/m 5,8 C 11,3 C 4,8 km/h (1 Bft) 95,65 %
09.08.2022 03:45 11,3 C 69 % 1022,1 hPa 0,0 l/m 3,2 km/h (1 Bft) O-NO 67 0 min 0,000 mm 0,0 UV-I 0 W/m 5,8 C 11,3 C 6,4 km/h (2 Bft) 100,00 %
09.08.2022 03:44 11,3 C 69 % 1022,3 hPa 0,0 l/m 1,6 km/h (1 Bft) O-NO 67 0 min 0,000 mm 0,0 UV-I 0 W/m 5,8 C 11,3 C 4,8 km/h (1 Bft) 100,00 %
09.08.2022 03:43 11,3 C 69 % 1022,1 hPa 0,0 l/m 1,6 km/h (1 Bft) O-NO 67 0 min 0,000 mm 0,0 UV-I 0 W/m 5,8 C 11,3 C 4,8 km/h (1 Bft) 100,00 %
09.08.2022 03:42 11,4 C 69 % 1022,2 hPa 0,0 l/m 1,6 km/h (1 Bft) O-NO 67 0 min 0,000 mm 0,0 UV-I 0 W/m 5,9 C 11,4 C 3,2 km/h (1 Bft) 100,00 %
09.08.2022 03:41 11,4 C 69 % 1022,1 hPa 0,0 l/m 1,6 km/h (1 Bft) O-NO 67 0 min 0,000 mm 0,0 UV-I 0 W/m 5,9 C 11,4 C 3,2 km/h (1 Bft) 100,00 %
09.08.2022 03:40 11,4 C 69 % 1022,2 hPa 0,0 l/m 1,6 km/h (1 Bft) NO 45 0 min 0,000 mm 0,0 UV-I 0 W/m 5,9 C 11,4 C 3,2 km/h (1 Bft) 95,65 %
09.08.2022 03:39 11,4 C 69 % 1022,2 hPa 0,0 l/m 3,2 km/h (1 Bft) NO 45 0 min 0,000 mm 0,0 UV-I 0 W/m 5,9 C 11,4 C 4,8 km/h (1 Bft) 95,65 %
09.08.2022 03:38 11,4 C 69 % 1022,2 hPa 0,0 l/m 1,6 km/h (1 Bft) NO 45 0 min 0,000 mm 0,0 UV-I 0 W/m 5,9 C 11,4 C 3,2 km/h (1 Bft) 100,00 %
09.08.2022 03:37 11,4 C 69 % 1022,2 hPa 0,0 l/m 3,2 km/h (1 Bft) NO 45 0 min 0,000 mm 0,0 UV-I 0 W/m 5,9 C 11,4 C 4,8 km/h (1 Bft) 100,00 %
09.08.2022 03:36 11,4 C 69 % 1022,2 hPa 0,0 l/m 3,2 km/h (1 Bft) NO 45 0 min 0,000 mm 0,0 UV-I 0 W/m 5,9 C 11,4 C 4,8 km/h (1 Bft) 100,00 %
09.08.2022 03:35 11,5 C 69 % 1022,2 hPa 0,0 l/m 1,6 km/h (1 Bft) O-NO 67 0 min 0,000 mm 0,0 UV-I 0 W/m 6,0 C 11,5 C 3,2 km/h (1 Bft) 100,00 %
09.08.2022 03:34 11,5 C 69 % 1022,2 hPa 0,0 l/m 1,6 km/h (1 Bft) O-NO 67 0 min 0,000 mm 0,0 UV-I 0 W/m 6,0 C 11,5 C 3,2 km/h (1 Bft) 100,00 %
09.08.2022 03:33 11,5 C 69 % 1022,2 hPa 0,0 l/m 3,2 km/h (1 Bft) O-NO 67 0 min 0,000 mm 0,0 UV-I 0 W/m 6,0 C 11,5 C 4,8 km/h (1 Bft) 95,65 %
09.08.2022 03:32 11,5 C 69 % 1022,2 hPa 0,0 l/m 3,2 km/h (1 Bft) O-NO 67 0 min 0,000 mm 0,0 UV-I 0 W/m 6,0 C 11,5 C 4,8 km/h (1 Bft) 100,00 %
09.08.2022 03:31 11,6 C 69 % 1022,2 hPa 0,0 l/m 3,2 km/h (1 Bft) O-NO 67 0 min 0,000 mm 0,0 UV-I 0 W/m 6,1 C 11,6 C 4,8 km/h (1 Bft) 100,00 %
09.08.2022 03:30 11,6 C 69 % 1022,3 hPa 0,0 l/m 4,8 km/h (1 Bft) O-NO 67 0 min 0,000 mm 0,0 UV-I 0 W/m 6,1 C 11,6 C 6,4 km/h (2 Bft) 100,00 %
09.08.2022 03:29 11,6 C 69 % 1022,2 hPa 0,0 l/m 3,2 km/h (1 Bft) NO 45 0 min 0,000 mm 0,0 UV-I 0 W/m 6,1 C 11,6 C 6,4 km/h (2 Bft) 100,00 %
09.08.2022 03:28 11,6 C 69 % 1022,2 hPa 0,0 l/m 3,2 km/h (1 Bft) O-NO 67 0 min 0,000 mm 0,0 UV-I 0 W/m 6,1 C 11,6 C 4,8 km/h (1 Bft) 100,00 %
09.08.2022 03:27 11,6 C 69 % 1022,2 hPa 0,0 l/m 4,8 km/h (1 Bft) O-NO 67 0 min 0,000 mm 0,0 UV-I 0 W/m 6,1 C 11,6 C 6,4 km/h (2 Bft) 100,00 %
09.08.2022 03:26 11,6 C 69 % 1022,2 hPa 0,0 l/m 6,4 km/h (2 Bft) O-NO 67 0 min 0,000 mm 0,0 UV-I 0 W/m 6,1 C 11,6 C 11,3 km/h (2 Bft) 91,30 %
09.08.2022 03:25 11,6 C 69 % 1022,2 hPa 0,0 l/m 3,2 km/h (1 Bft) NO 45 0 min 0,000 mm 0,0 UV-I 0 W/m 6,1 C 11,6 C 8,0 km/h (2 Bft) 100,00 %
09.08.2022 03:24 11,6 C 69 % 1022,2 hPa 0,0 l/m 4,8 km/h (1 Bft) NO 45 0 min 0,000 mm 0,0 UV-I 0 W/m 6,1 C 11,6 C 6,4 km/h (2 Bft) 100,00 %
09.08.2022 03:23 11,6 C 69 % 1022,2 hPa 0,0 l/m 3,2 km/h (1 Bft) NO 45 0 min 0,000 mm 0,0 UV-I 0 W/m 6,1 C 11,6 C 4,8 km/h (1 Bft) 100,00 %
09.08.2022 03:22 11,6 C 69 % 1022,3 hPa 0,0 l/m 4,8 km/h (1 Bft) NO 45 0 min 0,000 mm 0,0 UV-I 0 W/m 6,1 C 11,6 C 8,0 km/h (2 Bft) 100,00 %
09.08.2022 03:21 11,6 C 69 % 1022,2 hPa 0,0 l/m 4,8 km/h (1 Bft) NO 45 0 min 0,000 mm 0,0 UV-I 0 W/m 6,1 C 11,6 C 8,0 km/h (2 Bft) 95,65 %
09.08.2022 03:20 11,6 C 69 % 1022,2 hPa 0,0 l/m 4,8 km/h (1 Bft) NO 45 0 min 0,000 mm 0,0 UV-I 0 W/m 6,1 C 11,6 C 6,4 km/h (2 Bft) 95,65 %
09.08.2022 03:19 11,7 C 69 % 1022,3 hPa 0,0 l/m 3,2 km/h (1 Bft) NO 45 0 min 0,000 mm 0,0 UV-I 0 W/m 6,2 C 11,7 C 6,4 km/h (2 Bft) 95,65 %
09.08.2022 03:18 11,7 C 69 % 1022,2 hPa 0,0 l/m 3,2 km/h (1 Bft) NO 45 0 min 0,000 mm 0,0 UV-I 0 W/m 6,2 C 11,7 C 4,8 km/h (1 Bft) 100,00 %
09.08.2022 03:17 11,7 C 69 % 1022,1 hPa 0,0 l/m 4,8 km/h (1 Bft) NO 45 0 min 0,000 mm 0,0 UV-I 0 W/m 6,2 C 11,7 C 8,0 km/h (2 Bft) 95,65 %
09.08.2022 03:16 11,7 C 69 % 1022,2 hPa 0,0 l/m 3,2 km/h (1 Bft) O-NO 67 0 min 0,000 mm 0,0 UV-I 0 W/m 6,2 C 11,7 C 6,4 km/h (2 Bft) 100,00 %
09.08.2022 03:15 11,7 C 69 % 1022,2 hPa 0,0 l/m 3,2 km/h (1 Bft) NO 45 0 min 0,000 mm 0,0 UV-I 0 W/m 6,2 C 11,7 C 8,0 km/h (2 Bft) 95,65 %
09.08.2022 03:14 11,7 C 69 % 1022,2 hPa 0,0 l/m 1,6 km/h (1 Bft) NO 45 0 min 0,000 mm 0,0 UV-I 0 W/m 6,2 C 11,7 C 3,2 km/h (1 Bft) 100,00 %
09.08.2022 03:13 11,7 C 69 % 1022,1 hPa 0,0 l/m 3,2 km/h (1 Bft) NO 45 0 min 0,000 mm 0,0 UV-I 0 W/m 6,2 C 11,7 C 4,8 km/h (1 Bft) 95,65 %
09.08.2022 03:12 11,7 C 69 % 1022,2 hPa 0,0 l/m 0,0 km/h (0 Bft) NO 45 0 min 0,000 mm 0,0 UV-I 0 W/m 6,2 C 11,7 C 4,8 km/h (1 Bft) 95,65 %
09.08.2022 03:11 11,7 C 69 % 1022,3 hPa 0,0 l/m 0,0 km/h (0 Bft) N 0 0 min 0,000 mm 0,0 UV-I 0 W/m 6,2 C 11,7 C 0,0 km/h (0 Bft) 95,65 %
09.08.2022 03:10 11,7 C 69 % 1022,2 hPa 0,0 l/m 0,0 km/h (0 Bft) NO 45 0 min 0,000 mm 0,0 UV-I 0 W/m 6,2 C 11,7 C 1,6 km/h (1 Bft) 100,00 %
09.08.2022 03:09 11,7 C 69 % 1022,3 hPa 0,0 l/m 1,6 km/h (1 Bft) NO 45 0 min 0,000 mm 0,0 UV-I 0 W/m 6,2 C 11,7 C 3,2 km/h (1 Bft) 95,65 %
09.08.2022 03:08 11,8 C 69 % 1022,2 hPa 0,0 l/m 3,2 km/h (1 Bft) NO 45 0 min 0,000 mm 0,0 UV-I 0 W/m 6,3 C 11,8 C 4,8 km/h (1 Bft) 95,65 %
09.08.2022 03:07 11,8 C 69 % 1022,2 hPa 0,0 l/m 3,2 km/h (1 Bft) NO 45 0 min 0,000 mm 0,0 UV-I 0 W/m 6,3 C 11,8 C 4,8 km/h (1 Bft) 100,00 %
09.08.2022 03:06 11,8 C 69 % 1022,2 hPa 0,0 l/m 3,2 km/h (1 Bft) NO 45 0 min 0,000 mm 0,0 UV-I 0 W/m 6,3 C 11,8 C 3,2 km/h (1 Bft) 95,65 %
09.08.2022 03:05 11,8 C 69 % 1022,1 hPa 0,0 l/m 3,2 km/h (1 Bft) NO 45 0 min 0,000 mm 0,0 UV-I 0 W/m 6,3 C 11,8 C 4,8 km/h (1 Bft) 95,65 %
09.08.2022 03:04 11,8 C 69 % 1022,2 hPa 0,0 l/m 3,2 km/h (1 Bft) NO 45 0 min 0,000 mm 0,0 UV-I 0 W/m 6,3 C 11,8 C 3,2 km/h (1 Bft) 95,65 %
09.08.2022 03:03 11,8 C 69 % 1022,1 hPa 0,0 l/m 4,8 km/h (1 Bft) NO 45 0 min 0,000 mm 0,0 UV-I 0 W/m 6,3 C 11,8 C 4,8 km/h (1 Bft) 100,00 %
09.08.2022 03:02 11,8 C 69 % 1022,1 hPa 0,0 l/m 3,2 km/h (1 Bft) NO 45 0 min 0,000 mm 0,0 UV-I 0 W/m 6,3 C 11,8 C 4,8 km/h (1 Bft) 95,65 %
09.08.2022 03:01 11,9 C 69 % 1022,1 hPa 0,0 l/m 3,2 km/h (1 Bft) NO 45 0 min 0,000 mm 0,0 UV-I 0 W/m 6,4 C 11,9 C 4,8 km/h (1 Bft) 100,00 %
09.08.2022 03:00 11,9 C 69 % 1022,1 hPa 0,0 l/m 0,0 km/h (0 Bft) NO 45 0 min 0,000 mm 0,0 UV-I 0 W/m 6,4 C 11,9 C 1,6 km/h (1 Bft) 95,65 %
09.08.2022 02:59 11,8 C 69 % 1022,1 hPa 0,0 l/m 0,0 km/h (0 Bft) N 0 0 min 0,000 mm 0,0 UV-I 0 W/m 6,3 C 11,8 C 0,0 km/h (0 Bft) 95,65 %
09.08.2022 02:58 11,9 C 69 % 1022,1 hPa 0,0 l/m 0,0 km/h (0 Bft) N 0 0 min 0,000 mm 0,0 UV-I 0 W/m 6,4 C 11,9 C 0,0 km/h (0 Bft) 95,65 %
09.08.2022 02:57 11,9 C 69 % 1022,1 hPa 0,0 l/m 0,0 km/h (0 Bft) NO 45 0 min 0,000 mm 0,0 UV-I 0 W/m 6,4 C 11,9 C 1,6 km/h (1 Bft) 100,00 %
09.08.2022 02:56 11,9 C 69 % 1022,1 hPa 0,0 l/m 0,0 km/h (0 Bft) N 0 0 min 0,000 mm 0,0 UV-I 0 W/m 6,4 C 11,9 C 0,0 km/h (0 Bft) 100,00 %
09.08.2022 02:55 11,9 C 69 % 1022,1 hPa 0,0 l/m 0,0 km/h (0 Bft) NO 45 0 min 0,000 mm 0,0 UV-I 0 W/m 6,4 C 11,9 C 1,6 km/h (1 Bft) 100,00 %
09.08.2022 02:54 12,0 C 69 % 1022,1 hPa 0,0 l/m 1,6 km/h (1 Bft) NO 45 0 min 0,000 mm 0,0 UV-I 0 W/m 6,5 C 12,0 C 3,2 km/h (1 Bft) 100,00 %
09.08.2022 02:53 12,1 C 69 % 1022,1 hPa 0,0 l/m 1,6 km/h (1 Bft) NO 45 0 min 0,000 mm 0,0 UV-I 0 W/m 6,6 C 12,1 C 1,6 km/h (1 Bft) 100,00 %
09.08.2022 02:52 12,1 C 69 % 1022,1 hPa 0,0 l/m 0,0 km/h (0 Bft) NO 45 0 min 0,000 mm 0,0 UV-I 0 W/m 6,6 C 12,1 C 1,6 km/h (1 Bft) 100,00 %
09.08.2022 02:51 12,1 C 69 % 1022,0 hPa 0,0 l/m 1,6 km/h (1 Bft) NO 45 0 min 0,000 mm 0,0 UV-I 0 W/m 6,6 C 12,1 C 3,2 km/h (1 Bft) 95,65 %
09.08.2022 02:50 12,1 C 69 % 1022,1 hPa 0,0 l/m 1,6 km/h (1 Bft) NO 45 0 min 0,000 mm 0,0 UV-I 0 W/m 6,6 C 12,1 C 3,2 km/h (1 Bft) 100,00 %
09.08.2022 02:49 12,1 C 70 % 1022,1 hPa 0,0 l/m 1,6 km/h (1 Bft) NO 45 0 min 0,000 mm 0,0 UV-I 0 W/m 6,8 C 12,1 C 3,2 km/h (1 Bft) 100,00 %
09.08.2022 02:48 12,1 C 70 % 1022,1 hPa 0,0 l/m 3,2 km/h (1 Bft) NO 45 0 min 0,000 mm 0,0 UV-I 0 W/m 6,8 C 12,1 C 4,8 km/h (1 Bft) 100,00 %
09.08.2022 02:47 12,1 C 70 % 1022,1 hPa 0,0 l/m 3,2 km/h (1 Bft) NO 45 0 min 0,000 mm 0,0 UV-I 0 W/m 6,8 C 12,1 C 4,8 km/h (1 Bft) 100,00 %
09.08.2022 02:46 12,2 C 69 % 1022,0 hPa 0,0 l/m 3,2 km/h (1 Bft) N-NO 22 0 min 0,000 mm 0,0 UV-I 0 W/m 6,7 C 12,2 C 4,8 km/h (1 Bft) 100,00 %
09.08.2022 02:45 12,2 C 69 % 1022,1 hPa 0,0 l/m 4,8 km/h (1 Bft) N-NO 22 0 min 0,000 mm 0,0 UV-I 0 W/m 6,7 C 12,2 C 6,4 km/h (2 Bft) 100,00 %
09.08.2022 02:44 12,2 C 70 % 1022,1 hPa 0,0 l/m 3,2 km/h (1 Bft) NO 45 0 min 0,000 mm 0,0 UV-I 0 W/m 6,9 C 12,2 C 4,8 km/h (1 Bft) 95,65 %
09.08.2022 02:43 12,2 C 70 % 1022,1 hPa 0,0 l/m 3,2 km/h (1 Bft) NO 45 0 min 0,000 mm 0,0 UV-I 0 W/m 6,9 C 12,2 C 4,8 km/h (1 Bft) 100,00 %
09.08.2022 02:42 12,2 C 70 % 1022,1 hPa 0,0 l/m 3,2 km/h (1 Bft) NO 45 0 min 0,000 mm 0,0 UV-I 0 W/m 6,9 C 12,2 C 4,8 km/h (1 Bft) 100,00 %
09.08.2022 02:41 12,2 C 69 % 1022,0 hPa 0,0 l/m 3,2 km/h (1 Bft) NO 45 0 min 0,000 mm 0,0 UV-I 0 W/m 6,7 C 12,2 C 4,8 km/h (1 Bft) 95,65 %
09.08.2022 02:40 12,2 C 69 % 1022,1 hPa 0,0 l/m 3,2 km/h (1 Bft) NO 45 0 min 0,000 mm 0,0 UV-I 0 W/m 6,7 C 12,2 C 4,8 km/h (1 Bft) 100,00 %
09.08.2022 02:39 12,2 C 69 % 1022,0 hPa 0,0 l/m 3,2 km/h (1 Bft) NO 45 0 min 0,000 mm 0,0 UV-I 0 W/m 6,7 C 12,2 C 6,4 km/h (2 Bft) 100,00 %
09.08.2022 02:38 12,2 C 69 % 1022,1 hPa 0,0 l/m 3,2 km/h (1 Bft) NO 45 0 min 0,000 mm 0,0 UV-I 0 W/m 6,7 C 12,2 C 4,8 km/h (1 Bft) 100,00 %
09.08.2022 02:37 12,2 C 69 % 1022,1 hPa 0,0 l/m 6,4 km/h (2 Bft) NO 45 0 min 0,000 mm 0,0 UV-I 0 W/m 6,7 C 12,2 C 6,4 km/h (2 Bft) 95,65 %
09.08.2022 02:36 12,2 C 69 % 1022,1 hPa 0,0 l/m 4,8 km/h (1 Bft) NO 45 0 min 0,000 mm 0,0 UV-I 0 W/m 6,7 C 12,2 C 4,8 km/h (1 Bft) 100,00 %
09.08.2022 02:35 12,2 C 69 % 1022,1 hPa 0,0 l/m 4,8 km/h (1 Bft) NO 45 0 min 0,000 mm 0,0 UV-I 0 W/m 6,7 C 12,2 C 6,4 km/h (2 Bft) 95,65 %
09.08.2022 02:34 12,2 C 69 % 1022,1 hPa 0,0 l/m 4,8 km/h (1 Bft) NO 45 0 min 0,000 mm 0,0 UV-I 0 W/m 6,7 C 12,2 C 4,8 km/h (1 Bft) 100,00 %
09.08.2022 02:33 12,2 C 69 % 1022,1 hPa 0,0 l/m 4,8 km/h (1 Bft) O-NO 67 0 min 0,000 mm 0,0 UV-I 0 W/m 6,7 C 12,2 C 4,8 km/h (1 Bft) 100,00 %
09.08.2022 02:32 12,2 C 69 % 1022,1 hPa 0,0 l/m 3,2 km/h (1 Bft) O-NO 67 0 min 0,000 mm 0,0 UV-I 0 W/m 6,7 C 12,2 C 4,8 km/h (1 Bft) 100,00 %
09.08.2022 02:31 12,3 C 69 % 1022,1 hPa 0,0 l/m 1,6 km/h (1 Bft) O-NO 67 0 min 0,000 mm 0,0 UV-I 0 W/m 6,8 C 12,3 C 3,2 km/h (1 Bft) 95,65 %
09.08.2022 02:30 12,3 C 69 % 1022,2 hPa 0,0 l/m 0,0 km/h (0 Bft) N 0 0 min 0,000 mm 0,0 UV-I 0 W/m 6,8 C 12,3 C 0,0 km/h (0 Bft) 100,00 %
09.08.2022 02:29 12,3 C 69 % 1022,1 hPa 0,0 l/m 0,0 km/h (0 Bft) N 0 0 min 0,000 mm 0,0 UV-I 0 W/m 6,8 C 12,3 C 0,0 km/h (0 Bft) 91,30 %
09.08.2022 02:28 12,3 C 69 % 1022,1 hPa 0,0 l/m 0,0 km/h (0 Bft) N 0 0 min 0,000 mm 0,0 UV-I 0 W/m 6,8 C 12,3 C 0,0 km/h (0 Bft) 100,00 %
09.08.2022 02:27 12,3 C 69 % 1022,1 hPa 0,0 l/m 0,0 km/h (0 Bft) N 0 0 min 0,000 mm 0,0 UV-I 0 W/m 6,8 C 12,3 C 0,0 km/h (0 Bft) 100,00 %
09.08.2022 02:26 12,3 C 69 % 1022,2 hPa 0,0 l/m 0,0 km/h (0 Bft) N 0 0 min 0,000 mm 0,0 UV-I 0 W/m 6,8 C 12,3 C 0,0 km/h (0 Bft) 100,00 %
09.08.2022 02:25 12,3 C 69 % 1022,2 hPa 0,0 l/m 0,0 km/h (0 Bft) N 0 0 min 0,000 mm 0,0 UV-I 0 W/m 6,8 C 12,3 C 0,0 km/h (0 Bft) 100,00 %
09.08.2022 02:24 12,3 C 69 % 1022,2 hPa 0,0 l/m 0,0 km/h (0 Bft) N 0 0 min 0,000 mm 0,0 UV-I 0 W/m 6,8 C 12,3 C 0,0 km/h (0 Bft) 100,00 %
09.08.2022 02:23 12,3 C 69 % 1022,2 hPa 0,0 l/m 0,0 km/h (0 Bft) N 0 0 min 0,000 mm 0,0 UV-I 0 W/m 6,8 C 12,3 C 0,0 km/h (0 Bft) 100,00 %
09.08.2022 02:22 12,3 C 69 % 1022,2 hPa 0,0 l/m 0,0 km/h (0 Bft) N 0 0 min 0,000 mm 0,0 UV-I 0 W/m 6,8 C 12,3 C 0,0 km/h (0 Bft) 95,65 %
09.08.2022 02:21 12,3 C 69 % 1022,1 hPa 0,0 l/m 0,0 km/h (0 Bft) N 0 0 min 0,000 mm 0,0 UV-I 0 W/m 6,8 C 12,3 C 0,0 km/h (0 Bft) 100,00 %
09.08.2022 02:20 12,3 C 69 % 1022,2 hPa 0,0 l/m 0,0 km/h (0 Bft) N 0 0 min 0,000 mm 0,0 UV-I 0 W/m 6,8 C 12,3 C 0,0 km/h (0 Bft) 100,00 %
09.08.2022 02:19 12,3 C 69 % 1022,2 hPa 0,0 l/m 0,0 km/h (0 Bft) N 0 0 min 0,000 mm 0,0 UV-I 0 W/m 6,8 C 12,3 C 0,0 km/h (0 Bft) 100,00 %
09.08.2022 02:18 12,4 C 69 % 1022,1 hPa 0,0 l/m 0,0 km/h (0 Bft) N 0 0 min 0,000 mm 0,0 UV-I 0 W/m 6,9 C 12,4 C 0,0 km/h (0 Bft) 100,00 %
09.08.2022 02:17 12,4 C 69 % 1022,2 hPa 0,0 l/m 0,0 km/h (0 Bft) N 0 0 min 0,000 mm 0,0 UV-I 0 W/m 6,9 C 12,4 C 0,0 km/h (0 Bft) 100,00 %
09.08.2022 02:16 12,4 C 69 % 1022,2 hPa 0,0 l/m 0,0 km/h (0 Bft) N 0 0 min 0,000 mm 0,0 UV-I 0 W/m 6,9 C 12,4 C 0,0 km/h (0 Bft) 100,00 %
09.08.2022 02:15 12,4 C 69 % 1022,2 hPa 0,0 l/m 0,0 km/h (0 Bft) N 0 0 min 0,000 mm 0,0 UV-I 0 W/m 6,9 C 12,4 C 0,0 km/h (0 Bft) 95,65 %
09.08.2022 02:14 12,4 C 69 % 1022,2 hPa 0,0 l/m 0,0 km/h (0 Bft) N 0 0 min 0,000 mm 0,0 UV-I 0 W/m 6,9 C 12,4 C 0,0 km/h (0 Bft) 100,00 %
09.08.2022 02:13 12,4 C 69 % 1022,2 hPa 0,0 l/m 0,0 km/h (0 Bft) N 0 0 min 0,000 mm 0,0 UV-I 0 W/m 6,9 C 12,4 C 0,0 km/h (0 Bft) 100,00 %
09.08.2022 02:12 12,4 C 69 % 1022,2 hPa 0,0 l/m 0,0 km/h (0 Bft) N 0 0 min 0,000 mm 0,0 UV-I 0 W/m 6,9 C 12,4 C 0,0 km/h (0 Bft) 100,00 %
09.08.2022 02:11 12,4 C 69 % 1022,2 hPa 0,0 l/m 0,0 km/h (0 Bft) N 0 0 min 0,000 mm 0,0 UV-I 0 W/m 6,9 C 12,4 C 0,0 km/h (0 Bft) 95,65 %
09.08.2022 02:10 12,4 C 69 % 1022,2 hPa 0,0 l/m 0,0 km/h (0 Bft) N 0 0 min 0,000 mm 0,0 UV-I 0 W/m 6,9 C 12,4 C 0,0 km/h (0 Bft) 95,65 %
09.08.2022 02:09 12,4 C 69 % 1022,2 hPa 0,0 l/m 0,0 km/h (0 Bft) N 0 0 min 0,000 mm 0,0 UV-I 0 W/m 6,9 C 12,4 C 0,0 km/h (0 Bft) 100,00 %
09.08.2022 02:08 12,4 C 69 % 1022,3 hPa 0,0 l/m 0,0 km/h (0 Bft) N 0 0 min 0,000 mm 0,0 UV-I 0 W/m 6,9 C 12,4 C 0,0 km/h (0 Bft) 91,30 %
09.08.2022 02:07 12,5 C 69 % 1022,2 hPa 0,0 l/m 0,0 km/h (0 Bft) N 0 0 min 0,000 mm 0,0 UV-I 0 W/m 7,0 C 12,5 C 0,0 km/h (0 Bft) 95,65 %
09.08.2022 02:06 12,5 C 69 % 1022,3 hPa 0,0 l/m 0,0 km/h (0 Bft) N 0 0 min 0,000 mm 0,0 UV-I 0 W/m 7,0 C 12,5 C 0,0 km/h (0 Bft) 100,00 %
09.08.2022 02:05 12,5 C 69 % 1022,2 hPa 0,0 l/m 0,0 km/h (0 Bft) N 0 0 min 0,000 mm 0,0 UV-I 0 W/m 7,0 C 12,5 C 0,0 km/h (0 Bft) 95,65 %
09.08.2022 02:04 12,5 C 69 % 1022,2 hPa 0,0 l/m 0,0 km/h (0 Bft) N 0 0 min 0,000 mm 0,0 UV-I 0 W/m 7,0 C 12,5 C 0,0 km/h (0 Bft) 100,00 %
09.08.2022 02:03 12,5 C 69 % 1022,2 hPa 0,0 l/m 1,6 km/h (1 Bft) O-NO 67 0 min 0,000 mm 0,0 UV-I 0 W/m 7,0 C 12,5 C 3,2 km/h (1 Bft) 95,65 %
09.08.2022 02:02 12,6 C 69 % 1022,2 hPa 0,0 l/m 0,0 km/h (0 Bft) O-NO 67 0 min 0,000 mm 0,0 UV-I 0 W/m 7,1 C 12,6 C 1,6 km/h (1 Bft) 100,00 %
09.08.2022 02:01 12,6 C 69 % 1022,2 hPa 0,0 l/m 0,0 km/h (0 Bft) N 0 0 min 0,000 mm 0,0 UV-I 0 W/m 7,1 C 12,6 C 0,0 km/h (0 Bft) 91,30 %
09.08.2022 02:00 12,6 C 69 % 1022,2 hPa 0,0 l/m 0,0 km/h (0 Bft) N 0 0 min 0,000 mm 0,0 UV-I 0 W/m 7,1 C 12,6 C 0,0 km/h (0 Bft) 100,00 %
09.08.2022 01:59 12,6 C 69 % 1022,2 hPa 0,0 l/m 1,6 km/h (1 Bft) O-NO 67 0 min 0,000 mm 0,0 UV-I 0 W/m 7,1 C 12,6 C 1,6 km/h (1 Bft) 95,65 %
09.08.2022 01:58 12,6 C 69 % 1022,1 hPa 0,0 l/m 3,2 km/h (1 Bft) O-NO 67 0 min 0,000 mm 0,0 UV-I 0 W/m 7,1 C 12,6 C 3,2 km/h (1 Bft) 95,65 %
09.08.2022 01:57 12,7 C 69 % 1022,2 hPa 0,0 l/m 3,2 km/h (1 Bft) O-NO 67 0 min 0,000 mm 0,0 UV-I 0 W/m 7,2 C 12,7 C 4,8 km/h (1 Bft) 100,00 %
09.08.2022 01:56 12,6 C 69 % 1022,1 hPa 0,0 l/m 3,2 km/h (1 Bft) O-NO 67 0 min 0,000 mm 0,0 UV-I 0 W/m 7,1 C 12,6 C 4,8 km/h (1 Bft) 95,65 %
09.08.2022 01:55 12,6 C 69 % 1022,2 hPa 0,0 l/m 3,2 km/h (1 Bft) O-NO 67 0 min 0,000 mm 0,0 UV-I 0 W/m 7,1 C 12,6 C 4,8 km/h (1 Bft) 95,65 %
09.08.2022 01:54 12,6 C 69 % 1022,1 hPa 0,0 l/m 0,0 km/h (0 Bft) N 0 0 min 0,000 mm 0,0 UV-I 0 W/m 7,1 C 12,6 C 0,0 km/h (0 Bft) 91,30 %
09.08.2022 01:53 12,6 C 69 % 1022,2 hPa 0,0 l/m 0,0 km/h (0 Bft) N 0 0 min 0,000 mm 0,0 UV-I 0 W/m 7,1 C 12,6 C 0,0 km/h (0 Bft) 100,00 %
09.08.2022 01:52 12,6 C 69 % 1022,1 hPa 0,0 l/m 0,0 km/h (0 Bft) N 0 0 min 0,000 mm 0,0 UV-I 0 W/m 7,1 C 12,6 C 0,0 km/h (0 Bft) 95,65 %
09.08.2022 01:51 12,6 C 69 % 1022,2 hPa 0,0 l/m 0,0 km/h (0 Bft) N 0 0 min 0,000 mm 0,0 UV-I 0 W/m 7,1 C 12,6 C 0,0 km/h (0 Bft) 95,65 %
09.08.2022 01:50 12,6 C 68 % 1022,2 hPa 0,0 l/m 0,0 km/h (0 Bft) N 0 0 min 0,000 mm 0,0 UV-I 0 W/m 6,9 C 12,6 C 0,0 km/h (0 Bft) 100,00 %
09.08.2022 01:49 12,6 C 68 % 1022,2 hPa 0,0 l/m 0,0 km/h (0 Bft) N 0 0 min 0,000 mm 0,0 UV-I 0 W/m 6,9 C 12,6 C 0,0 km/h (0 Bft) 100,00 %
09.08.2022 01:48 12,7 C 68 % 1022,2 hPa 0,0 l/m 0,0 km/h (0 Bft) N 0 0 min 0,000 mm 0,0 UV-I 0 W/m 6,9 C 12,7 C 0,0 km/h (0 Bft) 100,00 %
09.08.2022 01:47 12,7 C 68 % 1022,2 hPa 0,0 l/m 0,0 km/h (0 Bft) N 0 0 min 0,000 mm 0,0 UV-I 0 W/m 6,9 C 12,7 C 0,0 km/h (0 Bft) 95,65 %
09.08.2022 01:46 12,7 C 68 % 1022,3 hPa 0,0 l/m 0,0 km/h (0 Bft) N 0 0 min 0,000 mm 0,0 UV-I 0 W/m 6,9 C 12,7 C 0,0 km/h (0 Bft) 100,00 %
09.08.2022 01:45 12,7 C 68 % 1022,2 hPa 0,0 l/m 0,0 km/h (0 Bft) N 0 0 min 0,000 mm 0,0 UV-I 0 W/m 6,9 C 12,7 C 0,0 km/h (0 Bft) 100,00 %
09.08.2022 01:44 12,7 C 68 % 1022,3 hPa 0,0 l/m 0,0 km/h (0 Bft) N 0 0 min 0,000 mm 0,0 UV-I 0 W/m 6,9 C 12,7 C 0,0 km/h (0 Bft) 100,00 %
09.08.2022 01:43 12,7 C 68 % 1022,2 hPa 0,0 l/m 0,0 km/h (0 Bft) N 0 0 min 0,000 mm 0,0 UV-I 0 W/m 6,9 C 12,7 C 0,0 km/h (0 Bft) 100,00 %
09.08.2022 01:42 12,8 C 68 % 1022,2 hPa 0,0 l/m 0,0 km/h (0 Bft) N 0 0 min 0,000 mm 0,0 UV-I 0 W/m 7,0 C 12,8 C 0,0 km/h (0 Bft) 100,00 %
09.08.2022 01:41 12,8 C 68 % 1022,2 hPa 0,0 l/m 0,0 km/h (0 Bft) N 0 0 min 0,000 mm 0,0 UV-I 0 W/m 7,0 C 12,8 C 0,0 km/h (0 Bft) 95,65 %
09.08.2022 01:40 12,8 C 68 % 1022,3 hPa 0,0 l/m 0,0 km/h (0 Bft) N 0 0 min 0,000 mm 0,0 UV-I 0 W/m 7,0 C 12,8 C 0,0 km/h (0 Bft) 95,65 %
09.08.2022 01:39 12,8 C 68 % 1022,2 hPa 0,0 l/m 0,0 km/h (0 Bft) N 0 0 min 0,000 mm 0,0 UV-I 0 W/m 7,0 C 12,8 C 0,0 km/h (0 Bft) 100,00 %
09.08.2022 01:38 12,8 C 68 % 1022,2 hPa 0,0 l/m 0,0 km/h (0 Bft) N 0 0 min 0,000 mm 0,0 UV-I 0 W/m 7,0 C 12,8 C 0,0 km/h (0 Bft) 100,00 %
09.08.2022 01:37 12,8 C 68 % 1022,3 hPa 0,0 l/m 0,0 km/h (0 Bft) N 0 0 min 0,000 mm 0,0 UV-I 0 W/m 7,0 C 12,8 C 0,0 km/h (0 Bft) 100,00 %
09.08.2022 01:36 12,8 C 68 % 1022,3 hPa 0,0 l/m 0,0 km/h (0 Bft) N 0 0 min 0,000 mm 0,0 UV-I 0 W/m 7,0 C 12,8 C 0,0 km/h (0 Bft) 100,00 %
09.08.2022 01:35 12,8 C 68 % 1022,2 hPa 0,0 l/m 0,0 km/h (0 Bft) N 0 0 min 0,000 mm 0,0 UV-I 0 W/m 7,0 C 12,8 C 0,0 km/h (0 Bft) 100,00 %
09.08.2022 01:34 12,8 C 68 % 1022,2 hPa 0,0 l/m 0,0 km/h (0 Bft) N 0 0 min 0,000 mm 0,0 UV-I 0 W/m 7,0 C 12,8 C 0,0 km/h (0 Bft) 100,00 %
09.08.2022 01:33 12,8 C 68 % 1022,2 hPa 0,0 l/m 0,0 km/h (0 Bft) N 0 0 min 0,000 mm 0,0 UV-I 0 W/m 7,0 C 12,8 C 0,0 km/h (0 Bft) 95,65 %
09.08.2022 01:32 12,9 C 68 % 1022,2 hPa 0,0 l/m 0,0 km/h (0 Bft) N 0 0 min 0,000 mm 0,0 UV-I 0 W/m 7,1 C 12,9 C 0,0 km/h (0 Bft) 100,00 %
09.08.2022 01:31 12,9 C 68 % 1022,2 hPa 0,0 l/m 0,0 km/h (0 Bft) N 0 0 min 0,000 mm 0,0 UV-I 0 W/m 7,1 C 12,9 C 0,0 km/h (0 Bft) 100,00 %
09.08.2022 01:30 12,9 C 68 % 1022,3 hPa 0,0 l/m 0,0 km/h (0 Bft) N 0 0 min 0,000 mm 0,0 UV-I 0 W/m 7,1 C 12,9 C 0,0 km/h (0 Bft) 100,00 %
09.08.2022 01:29 12,9 C 68 % 1022,2 hPa 0,0 l/m 0,0 km/h (0 Bft) N 0 0 min 0,000 mm 0,0 UV-I 0 W/m 7,1 C 12,9 C 0,0 km/h (0 Bft) 100,00 %
09.08.2022 01:28 12,9 C 68 % 1022,2 hPa 0,0 l/m 0,0 km/h (0 Bft) N 0 0 min 0,000 mm 0,0 UV-I 0 W/m 7,1 C 12,9 C 0,0 km/h (0 Bft) 100,00 %
09.08.2022 01:27 12,9 C 68 % 1022,2 hPa 0,0 l/m 0,0 km/h (0 Bft) N 0 0 min 0,000 mm 0,0 UV-I 0 W/m 7,1 C 12,9 C 0,0 km/h (0 Bft) 100,00 %
09.08.2022 01:26 12,9 C 68 % 1022,2 hPa 0,0 l/m 0,0 km/h (0 Bft) N 0 0 min 0,000 mm 0,0 UV-I 0 W/m 7,1 C 12,9 C 0,0 km/h (0 Bft) 95,65 %
09.08.2022 01:25 12,9 C 68 % 1022,2 hPa 0,0 l/m 0,0 km/h (0 Bft) N 0 0 min 0,000 mm 0,0 UV-I 0 W/m 7,1 C 12,9 C 0,0 km/h (0 Bft) 100,00 %
09.08.2022 01:24 12,9 C 68 % 1022,2 hPa 0,0 l/m 0,0 km/h (0 Bft) N 0 0 min 0,000 mm 0,0 UV-I 0 W/m 7,1 C 12,9 C 0,0 km/h (0 Bft) 100,00 %
09.08.2022 01:23 12,9 C 68 % 1022,2 hPa 0,0 l/m 0,0 km/h (0 Bft) N 0 0 min 0,000 mm 0,0 UV-I 0 W/m 7,1 C 12,9 C 0,0 km/h (0 Bft) 100,00 %
09.08.2022 01:22 12,9 C 68 % 1022,2 hPa 0,0 l/m 0,0 km/h (0 Bft) N 0 0 min 0,000 mm 0,0 UV-I 0 W/m 7,1 C 12,9 C 0,0 km/h (0 Bft) 100,00 %
09.08.2022 01:21 13,0 C 67 % 1022,2 hPa 0,0 l/m 0,0 km/h (0 Bft) N 0 0 min 0,000 mm 0,0 UV-I 0 W/m 7,0 C 13,0 C 0,0 km/h (0 Bft) 100,00 %
09.08.2022 01:20 12,9 C 67 % 1022,2 hPa 0,0 l/m 0,0 km/h (0 Bft) N 0 0 min 0,000 mm 0,0 UV-I 0 W/m 6,9 C 12,9 C 0,0 km/h (0 Bft) 100,00 %
09.08.2022 01:19 12,9 C 67 % 1022,2 hPa 0,0 l/m 0,0 km/h (0 Bft) N 0 0 min 0,000 mm 0,0 UV-I 0 W/m 6,9 C 12,9 C 0,0 km/h (0 Bft) 95,65 %
09.08.2022 01:18 13,0 C 67 % 1022,2 hPa 0,0 l/m 0,0 km/h (0 Bft) N 0 0 min 0,000 mm 0,0 UV-I 0 W/m 7,0 C 13,0 C 0,0 km/h (0 Bft) 100,00 %
09.08.2022 01:17 12,9 C 67 % 1022,2 hPa 0,0 l/m 0,0 km/h (0 Bft) N 0 0 min 0,000 mm 0,0 UV-I 0 W/m 6,9 C 12,9 C 0,0 km/h (0 Bft) 100,00 %
09.08.2022 01:16 13,0 C 67 % 1022,2 hPa 0,0 l/m 0,0 km/h (0 Bft) N 0 0 min 0,000 mm 0,0 UV-I 0 W/m 7,0 C 13,0 C 0,0 km/h (0 Bft) 100,00 %
09.08.2022 01:15 13,0 C 66 % 1022,2 hPa 0,0 l/m 0,0 km/h (0 Bft) O-NO 67 0 min 0,000 mm 0,0 UV-I 0 W/m 6,8 C 13,0 C 1,6 km/h (1 Bft) 100,00 %
09.08.2022 01:14 13,0 C 66 % 1022,2 hPa 0,0 l/m 0,0 km/h (0 Bft) N 0 0 min 0,000 mm 0,0 UV-I 0 W/m 6,8 C 13,0 C 0,0 km/h (0 Bft) 100,00 %
09.08.2022 01:13 13,0 C 66 % 1022,3 hPa 0,0 l/m 0,0 km/h (0 Bft) N 0 0 min 0,000 mm 0,0 UV-I 0 W/m 6,8 C 13,0 C 0,0 km/h (0 Bft) 100,00 %
09.08.2022 01:12 13,1 C 66 % 1022,2 hPa 0,0 l/m 0,0 km/h (0 Bft) N 0 0 min 0,000 mm 0,0 UV-I 0 W/m 6,9 C 13,1 C 0,0 km/h (0 Bft) 95,65 %
09.08.2022 01:11 13,1 C 66 % 1022,2 hPa 0,0 l/m 0,0 km/h (0 Bft) N 0 0 min 0,000 mm 0,0 UV-I 0 W/m 6,9 C 13,1 C 0,0 km/h (0 Bft) 100,00 %
09.08.2022 01:10 13,1 C 66 % 1022,2 hPa 0,0 l/m 0,0 km/h (0 Bft) N 0 0 min 0,000 mm 0,0 UV-I 0 W/m 6,9 C 13,1 C 0,0 km/h (0 Bft) 95,65 %
09.08.2022 01:09 13,1 C 66 % 1022,2 hPa 0,0 l/m 0,0 km/h (0 Bft) N 0 0 min 0,000 mm 0,0 UV-I 0 W/m 6,9 C 13,1 C 0,0 km/h (0 Bft) 100,00 %
09.08.2022 01:08 13,1 C 66 % 1022,1 hPa 0,0 l/m 0,0 km/h (0 Bft) N 0 0 min 0,000 mm 0,0 UV-I 0 W/m 6,9 C 13,1 C 0,0 km/h (0 Bft) 100,00 %
09.08.2022 01:07 13,1 C 66 % 1022,1 hPa 0,0 l/m 0,0 km/h (0 Bft) N 0 0 min 0,000 mm 0,0 UV-I 0 W/m 6,9 C 13,1 C 0,0 km/h (0 Bft) 100,00 %
09.08.2022 01:06 13,1 C 66 % 1022,2 hPa 0,0 l/m 0,0 km/h (0 Bft) N 0 0 min 0,000 mm 0,0 UV-I 0 W/m 6,9 C 13,1 C 0,0 km/h (0 Bft) 100,00 %
09.08.2022 01:05 13,1 C 66 % 1022,1 hPa 0,0 l/m 0,0 km/h (0 Bft) N 0 0 min 0,000 mm 0,0 UV-I 0 W/m 6,9 C 13,1 C 0,0 km/h (0 Bft) 95,65 %
09.08.2022 01:04 13,2 C 66 % 1022,2 hPa 0,0 l/m 0,0 km/h (0 Bft) N 0 0 min 0,000 mm 0,0 UV-I 0 W/m 7,0 C 13,2 C 0,0 km/h (0 Bft) 95,65 %
09.08.2022 01:03 13,2 C 66 % 1022,0 hPa 0,0 l/m 0,0 km/h (0 Bft) N 0 0 min 0,000 mm 0,0 UV-I 0 W/m 7,0 C 13,2 C 0,0 km/h (0 Bft) 100,00 %
09.08.2022 01:02 13,2 C 66 % 1022,0 hPa 0,0 l/m 0,0 km/h (0 Bft) N 0 0 min 0,000 mm 0,0 UV-I 0 W/m 7,0 C 13,2 C 0,0 km/h (0 Bft) 95,65 %
09.08.2022 01:01 13,2 C 66 % 1022,0 hPa 0,0 l/m 0,0 km/h (0 Bft) N 0 0 min 0,000 mm 0,0 UV-I 0 W/m 7,0 C 13,2 C 0,0 km/h (0 Bft) 95,65 %
09.08.2022 01:00 13,2 C 66 % 1022,0 hPa 0,0 l/m 0,0 km/h (0 Bft) N 0 0 min 0,000 mm 0,0 UV-I 0 W/m 7,0 C 13,2 C 0,0 km/h (0 Bft) 95,65 %
09.08.2022 00:59 13,2 C 66 % 1022,0 hPa 0,0 l/m 0,0 km/h (0 Bft) N 0 0 min 0,000 mm 0,0 UV-I 0 W/m 7,0 C 13,2 C 0,0 km/h (0 Bft) 100,00 %
09.08.2022 00:58 13,2 C 66 % 1022,0 hPa 0,0 l/m 0,0 km/h (0 Bft) N 0 0 min 0,000 mm 0,0 UV-I 0 W/m 7,0 C 13,2 C 0,0 km/h (0 Bft) 91,30 %
09.08.2022 00:57 13,2 C 66 % 1021,9 hPa 0,0 l/m 0,0 km/h (0 Bft) O-NO 67 0 min 0,000 mm 0,0 UV-I 0 W/m 7,0 C 13,2 C 1,6 km/h (1 Bft) 95,65 %
09.08.2022 00:56 13,3 C 66 % 1021,9 hPa 0,0 l/m 0,0 km/h (0 Bft) O-NO 67 0 min 0,000 mm 0,0 UV-I 0 W/m 7,1 C 13,3 C 1,6 km/h (1 Bft) 100,00 %
09.08.2022 00:55 13,3 C 66 % 1021,9 hPa 0,0 l/m 0,0 km/h (0 Bft) O-NO 67 0 min 0,000 mm 0,0 UV-I 0 W/m 7,1 C 13,3 C 3,2 km/h (1 Bft) 95,65 %
09.08.2022 00:54 13,3 C 66 % 1021,8 hPa 0,0 l/m 0,0 km/h (0 Bft) N 0 0 min 0,000 mm 0,0 UV-I 0 W/m 7,1 C 13,3 C 0,0 km/h (0 Bft) 100,00 %
09.08.2022 00:53 13,3 C 66 % 1021,9 hPa 0,0 l/m 0,0 km/h (0 Bft) N 0 0 min 0,000 mm 0,0 UV-I 0 W/m 7,1 C 13,3 C 0,0 km/h (0 Bft) 95,65 %
09.08.2022 00:52 13,3 C 67 % 1021,8 hPa 0,0 l/m 0,0 km/h (0 Bft) O-NO 67 0 min 0,000 mm 0,0 UV-I 0 W/m 7,3 C 13,3 C 1,6 km/h (1 Bft) 95,65 %
09.08.2022 00:51 13,3 C 67 % 1021,8 hPa 0,0 l/m 3,2 km/h (1 Bft) O-NO 67 0 min 0,000 mm 0,0 UV-I 0 W/m 7,3 C 13,3 C 4,8 km/h (1 Bft) 91,30 %
09.08.2022 00:50 13,3 C 67 % 1021,8 hPa 0,0 l/m 1,6 km/h (1 Bft) NO 45 0 min 0,000 mm 0,0 UV-I 0 W/m 7,3 C 13,3 C 6,4 km/h (2 Bft) 100,00 %
09.08.2022 00:49 13,3 C 67 % 1021,8 hPa 0,0 l/m 4,8 km/h (1 Bft) O-NO 67 0 min 0,000 mm 0,0 UV-I 0 W/m 7,3 C 13,3 C 6,4 km/h (2 Bft) 95,65 %
09.08.2022 00:48 13,3 C 67 % 1021,8 hPa 0,0 l/m 3,2 km/h (1 Bft) O 90 0 min 0,000 mm 0,0 UV-I 0 W/m 7,3 C 13,3 C 4,8 km/h (1 Bft) 95,65 %
09.08.2022 00:47 13,4 C 67 % 1021,8 hPa 0,0 l/m 3,2 km/h (1 Bft) O-NO 67 0 min 0,000 mm 0,0 UV-I 0 W/m 7,4 C 13,4 C 4,8 km/h (1 Bft) 100,00 %
09.08.2022 00:46 13,4 C 67 % 1021,8 hPa 0,0 l/m 3,2 km/h (1 Bft) O-NO 67 0 min 0,000 mm 0,0 UV-I 0 W/m 7,4 C 13,4 C 4,8 km/h (1 Bft) 91,30 %
09.08.2022 00:45 13,4 C 67 % 1021,8 hPa 0,0 l/m 4,8 km/h (1 Bft) O-NO 67 0 min 0,000 mm 0,0 UV-I 0 W/m 7,4 C 13,4 C 9,7 km/h (2 Bft) 100,00 %
09.08.2022 00:44 13,4 C 67 % 1021,8 hPa 0,0 l/m 4,8 km/h (1 Bft) NO 45 0 min 0,000 mm 0,0 UV-I 0 W/m 7,4 C 13,4 C 8,0 km/h (2 Bft) 95,65 %
09.08.2022 00:43 13,4 C 67 % 1021,9 hPa 0,0 l/m 4,8 km/h (1 Bft) O-NO 67 0 min 0,000 mm 0,0 UV-I 0 W/m 7,4 C 13,4 C 6,4 km/h (2 Bft) 100,00 %
09.08.2022 00:42 13,4 C 67 % 1021,9 hPa 0,0 l/m 4,8 km/h (1 Bft) O-NO 67 0 min 0,000 mm 0,0 UV-I 0 W/m 7,4 C 13,4 C 11,3 km/h (2 Bft) 100,00 %
09.08.2022 00:41 13,4 C 67 % 1021,9 hPa 0,0 l/m 4,8 km/h (1 Bft) O-NO 67 0 min 0,000 mm 0,0 UV-I 0 W/m 7,4 C 13,4 C 11,3 km/h (2 Bft) 100,00 %
09.08.2022 00:40 13,4 C 67 % 1021,8 hPa 0,0 l/m 1,6 km/h (1 Bft) O 90 0 min 0,000 mm 0,0 UV-I 0 W/m 7,4 C 13,4 C 3,2 km/h (1 Bft) 100,00 %
09.08.2022 00:39 13,4 C 67 % 1021,9 hPa 0,0 l/m 3,2 km/h (1 Bft) O 90 0 min 0,000 mm 0,0 UV-I 0 W/m 7,4 C 13,4 C 4,8 km/h (1 Bft) 100,00 %
09.08.2022 00:38 13,4 C 67 % 1021,9 hPa 0,0 l/m 3,2 km/h (1 Bft) O-NO 67 0 min 0,000 mm 0,0 UV-I 0 W/m 7,4 C 13,4 C 4,8 km/h (1 Bft) 100,00 %
09.08.2022 00:37 13,5 C 67 % 1021,9 hPa 0,0 l/m 3,2 km/h (1 Bft) O-NO 67 0 min 0,000 mm 0,0 UV-I 0 W/m 7,5 C 13,5 C 3,2 km/h (1 Bft) 95,65 %
09.08.2022 00:36 13,4 C 67 % 1021,9 hPa 0,0 l/m 1,6 km/h (1 Bft) O-NO 67 0 min 0,000 mm 0,0 UV-I 0 W/m 7,4 C 13,4 C 3,2 km/h (1 Bft) 100,00 %
09.08.2022 00:35 13,5 C 67 % 1021,9 hPa 0,0 l/m 1,6 km/h (1 Bft) O-NO 67 0 min 0,000 mm 0,0 UV-I 0 W/m 7,5 C 13,5 C 3,2 km/h (1 Bft) 100,00 %
09.08.2022 00:34 13,5 C 67 % 1021,9 hPa 0,0 l/m 1,6 km/h (1 Bft) O-NO 67 0 min 0,000 mm 0,0 UV-I 0 W/m 7,5 C 13,5 C 4,8 km/h (1 Bft) 100,00 %
09.08.2022 00:33 13,5 C 67 % 1021,9 hPa 0,0 l/m 1,6 km/h (1 Bft) O-NO 67 0 min 0,000 mm 0,0 UV-I 0 W/m 7,5 C 13,5 C 4,8 km/h (1 Bft) 100,00 %
09.08.2022 00:32 13,5 C 67 % 1021,9 hPa 0,0 l/m 0,0 km/h (0 Bft) N 0 0 min 0,000 mm 0,0 UV-I 0 W/m 7,5 C 13,5 C 0,0 km/h (0 Bft) 100,00 %
09.08.2022 00:31 13,5 C 67 % 1021,9 hPa 0,0 l/m 0,0 km/h (0 Bft) N 0 0 min 0,000 mm 0,0 UV-I 0 W/m 7,5 C 13,5 C 0,0 km/h (0 Bft) 100,00 %
09.08.2022 00:30 13,5 C 67 % 1021,9 hPa 0,0 l/m 0,0 km/h (0 Bft) N 0 0 min 0,000 mm 0,0 UV-I 0 W/m 7,5 C 13,5 C 0,0 km/h (0 Bft) 95,65 %
09.08.2022 00:29 13,5 C 67 % 1021,8 hPa 0,0 l/m 0,0 km/h (0 Bft) N 0 0 min 0,000 mm 0,0 UV-I 0 W/m 7,5 C 13,5 C 0,0 km/h (0 Bft) 100,00 %
09.08.2022 00:28 13,6 C 67 % 1021,9 hPa 0,0 l/m 0,0 km/h (0 Bft) N 0 0 min 0,000 mm 0,0 UV-I 0 W/m 7,6 C 13,6 C 0,0 km/h (0 Bft) 100,00 %
09.08.2022 00:27 13,6 C 67 % 1021,9 hPa 0,0 l/m 0,0 km/h (0 Bft) N 0 0 min 0,000 mm 0,0 UV-I 0 W/m 7,6 C 13,6 C 0,0 km/h (0 Bft) 100,00 %
09.08.2022 00:26 13,5 C 67 % 1021,9 hPa 0,0 l/m 0,0 km/h (0 Bft) N 0 0 min 0,000 mm 0,0 UV-I 0 W/m 7,5 C 13,5 C 0,0 km/h (0 Bft) 100,00 %
09.08.2022 00:25 13,6 C 67 % 1021,9 hPa 0,0 l/m 0,0 km/h (0 Bft) N 0 0 min 0,000 mm 0,0 UV-I 0 W/m 7,6 C 13,6 C 0,0 km/h (0 Bft) 100,00 %
09.08.2022 00:24 13,6 C 67 % 1021,9 hPa 0,0 l/m 0,0 km/h (0 Bft) N 0 0 min 0,000 mm 0,0 UV-I 0 W/m 7,6 C 13,6 C 0,0 km/h (0 Bft) 100,00 %
09.08.2022 00:23 13,6 C 67 % 1022,0 hPa 0,0 l/m 0,0 km/h (0 Bft) N 0 0 min 0,000 mm 0,0 UV-I 0 W/m 7,6 C 13,6 C 0,0 km/h (0 Bft) 95,65 %
09.08.2022 00:22 13,6 C 67 % 1021,9 hPa 0,0 l/m 0,0 km/h (0 Bft) N 0 0 min 0,000 mm 0,0 UV-I 0 W/m 7,6 C 13,6 C 0,0 km/h (0 Bft) 100,00 %
09.08.2022 00:21 13,6 C 67 % 1022,0 hPa 0,0 l/m 0,0 km/h (0 Bft) N 0 0 min 0,000 mm 0,0 UV-I 0 W/m 7,6 C 13,6 C 0,0 km/h (0 Bft) 100,00 %
09.08.2022 00:20 13,6 C 67 % 1021,9 hPa 0,0 l/m 0,0 km/h (0 Bft) N 0 0 min 0,000 mm 0,0 UV-I 0 W/m 7,6 C 13,6 C 0,0 km/h (0 Bft) 100,00 %
09.08.2022 00:19 13,6 C 67 % 1022,0 hPa 0,0 l/m 0,0 km/h (0 Bft) N 0 0 min 0,000 mm 0,0 UV-I 0 W/m 7,6 C 13,6 C 0,0 km/h (0 Bft) 100,00 %
09.08.2022 00:18 13,6 C 67 % 1021,9 hPa 0,0 l/m 0,0 km/h (0 Bft) N 0 0 min 0,000 mm 0,0 UV-I 0 W/m 7,6 C 13,6 C 0,0 km/h (0 Bft) 100,00 %
09.08.2022 00:17 13,6 C 67 % 1022,0 hPa 0,0 l/m 0,0 km/h (0 Bft) N 0 0 min 0,000 mm 0,0 UV-I 0 W/m 7,6 C 13,6 C 0,0 km/h (0 Bft) 100,00 %
09.08.2022 00:16 13,6 C 67 % 1022,0 hPa 0,0 l/m 0,0 km/h (0 Bft) N 0 0 min 0,000 mm 0,0 UV-I 0 W/m 7,6 C 13,6 C 0,0 km/h (0 Bft) 95,65 %
09.08.2022 00:15 13,6 C 66 % 1022,0 hPa 0,0 l/m 0,0 km/h (0 Bft) N 0 0 min 0,000 mm 0,0 UV-I 0 W/m 7,4 C 13,6 C 0,0 km/h (0 Bft) 100,00 %
09.08.2022 00:14 13,6 C 66 % 1021,9 hPa 0,0 l/m 0,0 km/h (0 Bft) N 0 0 min 0,000 mm 0,0 UV-I 0 W/m 7,4 C 13,6 C 0,0 km/h (0 Bft) 100,00 %
09.08.2022 00:13 13,7 C 66 % 1021,9 hPa 0,0 l/m 0,0 km/h (0 Bft) N 0 0 min 0,000 mm 0,0 UV-I 0 W/m 7,5 C 13,7 C 0,0 km/h (0 Bft) 95,65 %
09.08.2022 00:12 13,7 C 66 % 1021,9 hPa 0,0 l/m 0,0 km/h (0 Bft) N 0 0 min 0,000 mm 0,0 UV-I 0 W/m 7,5 C 13,7 C 0,0 km/h (0 Bft) 100,00 %
09.08.2022 00:11 13,7 C 66 % 1021,9 hPa 0,0 l/m 0,0 km/h (0 Bft) N 0 0 min 0,000 mm 0,0 UV-I 0 W/m 7,5 C 13,7 C 0,0 km/h (0 Bft) 95,65 %
09.08.2022 00:10 13,7 C 66 % 1021,9 hPa 0,0 l/m 0,0 km/h (0 Bft) N 0 0 min 0,000 mm 0,0 UV-I 0 W/m 7,5 C 13,7 C 0,0 km/h (0 Bft) 100,00 %
09.08.2022 00:09 13,7 C 66 % 1021,9 hPa 0,0 l/m 0,0 km/h (0 Bft) N 0 0 min 0,000 mm 0,0 UV-I 0 W/m 7,5 C 13,7 C 0,0 km/h (0 Bft) 95,65 %
09.08.2022 00:08 13,7 C 66 % 1021,9 hPa 0,0 l/m 0,0 km/h (0 Bft) N 0 0 min 0,000 mm 0,0 UV-I 0 W/m 7,5 C 13,7 C 0,0 km/h (0 Bft) 100,00 %
09.08.2022 00:07 13,7 C 66 % 1021,8 hPa 0,0 l/m 0,0 km/h (0 Bft) N 0 0 min 0,000 mm 0,0 UV-I 0 W/m 7,5 C 13,7 C 0,0 km/h (0 Bft) 100,00 %
09.08.2022 00:06 13,7 C 66 % 1021,9 hPa 0,0 l/m 0,0 km/h (0 Bft) N 0 0 min 0,000 mm 0,0 UV-I 0 W/m 7,5 C 13,7 C 0,0 km/h (0 Bft) 100,00 %
09.08.2022 00:05 13,7 C 66 % 1021,9 hPa 0,0 l/m 0,0 km/h (0 Bft) N 0 0 min 0,000 mm 0,0 UV-I 0 W/m 7,5 C 13,7 C 0,0 km/h (0 Bft) 100,00 %
09.08.2022 00:04 13,7 C 66 % 1022,0 hPa 0,0 l/m 0,0 km/h (0 Bft) N 0 0 min 0,000 mm 0,0 UV-I 0 W/m 7,5 C 13,7 C 0,0 km/h (0 Bft) 100,00 %
09.08.2022 00:03 13,7 C 66 % 1022,0 hPa 0,0 l/m 0,0 km/h (0 Bft) N 0 0 min 0,000 mm 0,0 UV-I 0 W/m 7,5 C 13,7 C 0,0 km/h (0 Bft) 100,00 %
09.08.2022 00:02 13,7 C 66 % 1022,0 hPa 0,0 l/m 0,0 km/h (0 Bft) N 0 0 min 0,000 mm 0,0 UV-I 0 W/m 7,5 C 13,7 C 0,0 km/h (0 Bft) 95,65 %
09.08.2022 00:01 13,8 C 66 % 1022,1 hPa 0,0 l/m 0,0 km/h (0 Bft) N 0 0 min 0,000 mm 0,0 UV-I 0 W/m 7,6 C 13,8 C 0,0 km/h (0 Bft) 95,65 %
09.08.2022 00:00 13,8 C 66 % 1022,0 hPa 0,0 l/m 0,0 km/h (0 Bft) N 0 0 min 0,000 mm 0,0 UV-I 0 W/m 7,6 C 13,8 C 0,0 km/h (0 Bft) 100,00 %
_ Min-Zeit 04:49 13:51 00:07 - 00:00 - - - - - - 06:25 04:51 00:00 16:21
Minimum _ 10,6 C 32 % 1021,8 hPa - 0,0 km/h (0 Bft) - - - - - - 4,9 C 10,6 C 0,0 km/h (0 Bft) 82,61 %
_ Max-Zeit 16:32 04:52 10:36 00:00 12:59 - - 08:36 14:00 12:59 11:58 16:31 16:32 13:41 00:00
Maximum _ 25,8 C 71 % 1023,8 hPa 0,0 l/m 17,7 km/h
O-SO (3 Bft)
- - 1 min 0,635 mm 5,6 UV-I 914 W/m 11,1 C 25,8 C 22,5 km/h
NO (4 Bft)
100,00 %
Durchschnitt _ 18,8 C 50 % 1022,8 hPa #0,0 l/m 3,9 km/h (1 Bft) O-NO - #10:25 h #4,849 mm 3,3 UV-I 433 W/m 7,7 C 18,8 C 6,3 km/h (2 Bft) 98,24 %